[[{"header":{"parameterUnit":"m.s-1","parameterCategory":1,"la1":30.6,"la2":29.2853,"lo1":-89.7004,"lo2":-87.6739,"dy":0.0162,"dx":0.0183,"nx":112,"ny":82,"refTime":"2026-05-14T12:00:00:Z","depth":0,"parameterNumber":2,"parameterNumberName":"U-component_of_WINDS"},"data":[0.0,0.0,0.0,0.0,0.0,0.0,0.0,0.0,0.0,0.0,0.0,0.0,0.0,0.0,0.0,0.0,0.0,0.0,0.0,0.0,0.0,0.0,0.0,0.0,0.0,0.0,0.0,0.0,0.0,0.0,0.0,0.0,0.0,0.0,0.0,0.0,0.0,0.0,0.0,0.0,0.0,0.0,0.0,0.0,0.0,0.0,0.0,0.0,0.0,0.0,0.0,0.0,0.0,0.0,0.0,0.0,0.0,0.0,0.0,0.0,0.0,0.0,0.0,0.0,0.0,0.0,0.0,0.0,0.0,0.0,0.0,0.0,0.0,0.0,0.0,0.0,0.0,0.0,0.0,0.0,0.0,0.0,0.0,0.0,0.0,0.0,0.0,0.0,0.0,0.0,0.0,-1.5,-1.6875,-1.7871,-1.75,-1.6711,-1.5556,-1.4113,0.0,0.0,0.0,0.0,0.0,0.0,0.0,0.0,0.0,0.0,0.0,0.0,0.0,0.0,0.0,0.0,0.0,0.0,0.0,0.0,0.0,0.0,0.0,0.0,0.0,0.0,0.0,0.0,0.0,0.0,0.0,0.0,0.0,0.0,0.0,0.0,0.0,0.0,0.0,0.0,0.0,0.0,0.0,0.0,0.0,0.0,0.0,0.0,0.0,0.0,0.0,0.0,0.0,0.0,0.0,0.0,0.0,0.0,0.0,0.0,0.0,0.0,0.0,0.0,0.0,0.0,0.0,0.0,0.0,0.0,0.0,0.0,0.0,0.0,0.0,0.0,0.0,0.0,0.0,0.0,0.0,0.0,0.0,0.0,0.0,0.0,0.0,0.0,0.0,0.0,0.0,0.0,0.0,0.0,0.0,0.0,0.0,0.0,0.0,0.0,0.0,0.0,0.0,0.0,-1.4621,-1.6758,-1.7598,-1.7988,-1.791,-1.7129,-1.6138,-1.5071,0.0,0.0,0.0,0.0,0.0,0.0,0.0,0.0,0.0,0.0,0.0,0.0,0.0,0.0,0.0,0.0,0.0,0.0,0.0,0.0,0.0,0.0,0.0,0.0,0.0,0.0,0.0,0.0,0.0,0.0,0.0,0.0,0.0,0.0,0.0,0.0,0.0,0.0,0.0,0.0,0.0,0.0,0.0,0.0,0.0,0.0,0.0,0.0,0.0,0.0,0.0,0.0,0.0,0.0,0.0,0.0,0.0,0.0,0.0,0.0,0.0,0.0,0.0,0.0,0.0,0.0,0.0,0.0,0.0,0.0,0.0,0.0,0.0,0.0,0.0,0.0,0.0,0.0,0.0,0.0,0.0,0.0,0.0,0.0,0.0,0.0,0.0,0.0,0.0,0.0,0.0,0.0,0.0,0.0,0.0,0.0,0.0,0.0,0.0,0.0,0.0,0.0,0.0,-1.4004,-1.5742,-1.7227,-1.7754,-1.791,-1.7695,-1.6875,-1.5808,-1.4505,-1.2395,0.0,0.0,0.0,0.0,0.0,0.0,0.0,0.0,0.0,0.0,0.0,0.0,0.0,0.0,0.0,0.0,0.0,0.0,0.0,0.0,0.0,0.0,0.0,0.0,0.0,0.0,0.0,0.0,0.0,0.0,0.0,0.0,0.0,0.0,0.0,0.0,0.0,0.0,0.0,0.0,0.0,0.0,0.0,0.0,0.0,0.0,0.0,0.0,0.0,0.0,0.0,0.0,0.0,0.0,0.0,0.0,0.0,0.0,0.0,0.0,0.0,0.0,0.0,0.0,0.0,0.0,0.0,0.0,0.0,0.0,0.0,0.0,0.0,0.0,0.0,0.0,0.0,0.0,0.0,0.0,0.0,0.0,0.0,0.0,0.0,0.0,0.0,0.0,0.0,0.0,0.0,0.0,0.0,0.0,0.0,0.0,0.0,0.0,0.0,0.0,0.0,0.0,-1.5566,-1.6711,-1.7441,-1.7812,-1.7832,-1.7422,-1.6515,-1.5352,-1.3922,-1.1997,0.0,0.0,0.0,0.0,0.0,0.0,0.0,0.0,0.0,0.0,0.0,0.0,0.0,0.0,0.0,0.0,0.0,0.0,0.0,0.0,0.0,0.0,0.0,0.0,0.0,0.0,0.0,0.0,0.0,0.0,0.0,0.0,0.0,0.0,0.0,0.0,0.0,0.0,0.0,0.0,0.0,0.0,0.0,0.0,0.0,0.0,0.0,0.0,0.0,0.0,0.0,0.0,0.0,0.0,0.0,0.0,0.0,0.0,0.0,0.0,0.0,0.0,0.0,0.0,0.0,0.0,0.0,0.0,0.0,0.0,0.0,0.0,0.0,0.0,0.0,0.0,0.0,0.0,0.0,0.0,0.0,0.0,0.0,0.0,0.0,0.0,0.0,0.0,0.0,0.0,0.0,0.0,0.0,0.0,0.0,0.0,0.0,0.0,0.0,0.0,0.0,0.0,-1.6465,-1.7461,-1.791,-1.7988,-1.7832,-1.7422,-1.6191,-1.5021,-1.4038,-1.1756,0.0,0.0,0.0,0.0,0.0,0.0,0.0,0.0,0.0,0.0,0.0,0.0,0.0,0.0,0.0,0.0,0.0,0.0,0.0,0.0,0.0,0.0,0.0,0.0,0.0,0.0,0.0,0.0,0.0,0.0,0.0,0.0,0.0,0.0,0.0,0.0,0.0,0.0,0.0,0.0,0.0,0.0,0.0,0.0,0.0,0.0,0.0,0.0,0.0,0.0,0.0,0.0,0.0,0.0,0.0,0.0,0.0,0.0,0.0,0.0,0.0,0.0,0.0,0.0,0.0,0.0,0.0,0.0,0.0,0.0,0.0,0.0,0.0,0.0,0.0,0.0,0.0,0.0,0.0,0.0,0.0,0.0,0.0,0.0,0.0,0.0,0.0,0.0,0.0,0.0,0.0,0.0,0.0,0.0,0.0,0.0,0.0,0.0,0.0,0.0,0.0,0.0,-1.6797,-1.7832,0.0,-1.8208,-1.7974,-1.7051,-1.5985,-1.474,-1.3164,0.0,0.0,0.0,0.0,0.0,0.0,0.0,0.0,0.0,0.0,0.0,0.0,0.0,0.0,0.0,0.0,0.0,0.0,0.0,0.0,0.0,0.0,0.0,0.0,0.0,0.0,0.0,0.0,0.0,0.0,0.0,0.0,0.0,0.0,0.0,0.0,0.0,0.0,0.0,0.0,0.0,0.0,0.0,0.0,0.0,0.0,0.0,0.0,0.0,0.0,0.0,0.0,0.0,0.0,0.0,0.0,0.0,0.0,0.0,0.0,0.0,0.0,0.0,0.0,0.0,0.0,0.0,0.0,0.0,0.0,0.0,0.0,0.0,0.0,0.0,0.0,0.0,0.0,0.0,0.0,0.0,0.0,0.0,0.0,0.0,0.0,0.0,0.0,0.0,0.0,0.0,0.0,0.0,0.0,0.0,0.0,0.0,0.0,0.0,0.0,0.0,0.0,-1.5128,-1.7019,-1.813,0.0,-1.8344,-1.8149,-1.6999,-1.5996,-1.4701,-1.3087,0.0,0.0,0.0,0.0,0.0,0.0,0.0,0.0,0.0,0.0,0.0,0.0,0.0,0.0,0.0,0.0,0.0,0.0,0.0,0.0,0.0,0.0,0.0,0.0,0.0,0.0,0.0,0.0,0.0,0.0,0.0,0.0,0.0,0.0,0.0,0.0,0.0,0.0,0.0,0.0,0.0,0.0,0.0,0.0,0.0,0.0,0.0,0.0,0.0,0.0,0.0,0.0,0.0,0.0,0.0,0.0,0.0,0.0,0.0,0.0,0.0,0.0,0.0,0.0,0.0,0.0,0.0,0.0,0.0,0.0,0.0,0.0,0.0,0.0,0.0,0.0,0.0,0.0,0.0,0.0,0.0,0.0,0.0,0.0,0.0,0.0,0.0,0.0,0.0,0.0,0.0,0.0,0.0,0.0,0.0,0.0,0.0,0.0,0.0,0.0,0.0,0.0,-1.5195,-1.7272,-1.8442,-1.8047,-1.8364,-1.8266,-1.7461,-1.6172,-1.5002,0.0,0.0,0.0,0.0,0.0,0.0,0.0,0.0,0.0,0.0,0.0,0.0,0.0,0.0,0.0,0.0,0.0,0.0,0.0,0.0,0.0,0.0,0.0,0.0,0.0,0.0,0.0,0.0,0.0,0.0,0.0,0.0,0.0,0.0,0.0,0.0,0.0,0.0,0.0,0.0,0.0,0.0,0.0,0.0,0.0,0.0,0.0,0.0,0.0,0.0,0.0,0.0,0.0,0.0,0.0,0.0,0.0,0.0,0.0,0.0,0.0,0.0,0.0,0.0,0.0,0.0,0.0,0.0,0.0,0.0,0.0,0.0,0.0,0.0,0.0,0.0,0.0,0.0,0.0,0.0,0.0,0.0,0.0,0.0,0.0,0.0,0.0,0.0,0.0,0.0,0.0,0.0,0.0,0.0,0.0,0.0,0.0,0.0,0.0,0.0,0.0,0.0,0.0,-1.5195,-1.7559,-1.8809,-1.8086,-1.8672,-1.8633,-1.7513,-1.6476,-1.5342,-1.4084,0.0,0.0,0.0,0.0,0.0,0.0,0.0,0.0,0.0,0.0,0.0,0.0,0.0,0.0,0.0,0.0,0.0,0.0,0.0,0.0,0.0,0.0,0.0,0.0,0.0,0.0,0.0,0.0,0.0,0.0,0.0,0.0,0.0,0.0,0.0,0.0,0.0,0.0,0.0,0.0,0.0,0.0,0.0,0.0,0.0,0.0,0.0,0.0,0.0,0.0,0.0,0.0,0.0,0.0,0.0,0.0,0.0,0.0,0.0,0.0,0.0,0.0,0.0,0.0,0.0,0.0,0.0,0.0,0.0,0.0,0.0,0.0,0.0,0.0,0.0,0.0,0.0,0.0,0.0,0.0,0.0,0.0,0.0,0.0,0.0,0.0,0.0,0.0,0.0,0.0,0.0,0.0,0.0,0.0,0.0,0.0,0.0,0.0,0.0,0.0,0.0,0.0,-1.5195,-1.7676,-1.9023,-1.834,-1.8887,-1.8906,-1.7969,-1.6934,-1.5829,-1.4643,0.0,0.0,0.0,0.0,0.0,0.0,0.0,0.0,0.0,0.0,0.0,0.0,0.0,0.0,0.0,0.0,0.0,0.0,0.0,0.0,0.0,0.0,0.0,0.0,0.0,0.0,0.0,0.0,0.0,0.0,0.0,0.0,0.0,0.0,0.0,0.0,0.0,0.0,0.0,0.0,0.0,0.0,0.0,0.0,0.0,0.0,0.0,0.0,0.0,0.0,0.0,0.0,0.0,0.0,0.0,0.0,0.0,0.0,0.0,0.0,0.0,0.0,0.0,0.0,0.0,0.0,0.0,0.0,0.0,0.0,0.0,0.0,0.0,0.0,0.0,0.0,0.0,0.0,0.0,0.0,0.0,0.0,0.0,0.0,0.0,0.0,0.0,0.0,0.0,0.0,0.0,0.0,0.0,0.0,0.0,0.0,0.0,0.0,0.0,0.0,0.0,0.0,-1.5195,-1.7676,-1.9121,-1.8656,-1.9023,-1.9102,-1.8637,-1.7467,-1.6356,-1.5469,0.0,0.0,0.0,0.0,0.0,0.0,0.0,0.0,0.0,0.0,0.0,0.0,0.0,0.0,0.0,0.0,0.0,0.0,0.0,0.0,0.0,0.0,0.0,0.0,0.0,0.0,0.0,0.0,0.0,0.0,0.0,0.0,0.0,0.0,0.0,0.0,0.0,0.0,0.0,0.0,0.0,0.0,0.0,0.0,0.0,0.0,0.0,0.0,0.0,0.0,0.0,0.0,0.0,0.0,0.0,0.0,0.0,0.0,0.0,0.0,-1.6394,-1.6029,0.0,0.0,0.0,0.0,0.0,0.0,0.0,0.0,0.0,0.0,0.0,0.0,0.0,0.0,0.0,0.0,0.0,0.0,0.0,0.0,0.0,0.0,0.0,0.0,0.0,0.0,0.0,0.0,0.0,0.0,0.0,0.0,0.0,0.0,0.0,0.0,0.0,0.0,0.0,0.0,-1.5234,-1.7676,-1.9121,-1.8656,-1.9023,-1.9102,-1.8637,-1.7773,-1.6719,-1.5488,-1.4043,0.0,0.0,0.0,0.0,0.0,0.0,0.0,0.0,0.0,0.0,0.0,0.0,0.0,0.0,0.0,0.0,0.0,0.0,0.0,0.0,0.0,0.0,0.0,0.0,0.0,0.0,0.0,0.0,0.0,0.0,0.0,0.0,0.0,0.0,0.0,0.0,0.0,0.0,0.0,0.0,0.0,0.0,0.0,0.0,0.0,0.0,0.0,0.0,0.0,0.0,0.0,0.0,0.0,0.0,0.0,0.0,0.0,0.0,0.0,-1.8497,-1.7709,0.0,0.0,0.0,0.0,0.0,0.0,0.0,0.0,0.0,0.0,0.0,0.0,0.0,0.0,0.0,0.0,0.0,0.0,0.0,0.0,0.0,0.0,0.0,0.0,0.0,0.0,0.0,0.0,0.0,0.0,0.0,0.0,0.0,0.0,0.0,0.0,0.0,0.0,0.0,0.0,-1.579,-1.7949,-1.9277,-1.9221,-1.9277,-1.9199,-1.8965,-1.7988,-1.6914,-1.5801,-1.4512,0.0,0.0,0.0,0.0,0.0,0.0,0.0,0.0,0.0,0.0,0.0,0.0,0.0,0.0,0.0,0.0,0.0,0.0,0.0,0.0,0.0,0.0,0.0,0.0,0.0,0.0,0.0,0.0,0.0,0.0,0.0,0.0,0.0,0.0,0.0,0.0,0.0,0.0,0.0,0.0,0.0,0.0,0.0,0.0,0.0,0.0,0.0,0.0,0.0,0.0,0.0,0.0,0.0,-2.1387,-2.1552,-2.2397,-2.248,-2.2687,-2.2873,-2.1089,-2.0072,-1.9658,-1.9119,0.0,0.0,0.0,0.0,0.0,0.0,0.0,0.0,0.0,0.0,0.0,0.0,0.0,0.0,0.0,0.0,0.0,0.0,0.0,0.0,0.0,0.0,-1.8926,-1.8348,-1.7869,-1.7149,-1.5537,0.0,0.0,0.0,0.0,0.0,0.0,0.0,0.0,0.0,0.0,0.0,-1.6551,-1.8281,-1.9453,-1.9863,-1.9609,-1.9375,-1.9297,-1.8262,-1.7207,-1.6261,-1.5098,-1.3997,0.0,0.0,0.0,0.0,0.0,0.0,0.0,0.0,0.0,0.0,0.0,0.0,0.0,0.0,0.0,0.0,0.0,0.0,0.0,0.0,0.0,0.0,0.0,0.0,0.0,0.0,0.0,0.0,0.0,0.0,0.0,0.0,-1.6898,-1.7046,0.0,0.0,0.0,0.0,0.0,0.0,0.0,0.0,0.0,0.0,0.0,0.0,0.0,-2.3639,-2.3367,-2.3921,-2.4198,-2.4102,-2.4012,-2.4239,-2.4755,-2.5171,-2.5171,-2.4838,-2.4943,0.0,-2.1983,-2.1114,0.0,0.0,0.0,0.0,0.0,0.0,0.0,0.0,0.0,0.0,0.0,0.0,0.0,0.0,0.0,0.0,0.0,0.0,0.0,0.0,0.0,0.0,-2.074,-2.0316,-2.0029,-1.98,-1.9545,-1.7829,-1.62,-1.5772,-1.5263,-1.4629,0.0,0.0,0.0,0.0,0.0,0.0,-1.707,-1.8457,-1.9453,-1.9863,-1.9863,-1.9687,-1.9316,-1.8789,-1.7915,-1.6687,-1.6113,-1.5126,-1.3496,-1.291,0.0,0.0,0.0,0.0,0.0,0.0,0.0,0.0,0.0,0.0,0.0,0.0,0.0,0.0,0.0,0.0,0.0,0.0,0.0,0.0,0.0,0.0,0.0,0.0,0.0,0.0,0.0,0.0,0.0,-1.671,-1.8405,-1.8706,-1.9258,-1.9384,0.0,0.0,0.0,0.0,0.0,0.0,0.0,0.0,0.0,-2.4304,-2.5756,-2.6491,-2.6385,-2.6741,-2.6976,-2.696,-2.6581,-2.6636,-2.7138,-2.7324,-2.7303,-2.7138,-2.7345,-2.6558,-2.5091,-2.337,-2.2128,-2.1176,0.0,0.0,0.0,0.0,-1.9103,-1.9292,-1.9524,-1.9653,-1.9733,-1.9912,0.0,0.0,0.0,0.0,0.0,0.0,0.0,-1.9479,-2.0196,-2.1363,-2.2246,-2.1983,-2.1622,-2.1324,-2.1072,-1.9967,-1.8754,-1.7729,-1.6777,-1.5957,-1.5332,-1.416,0.0,0.0,0.0,-1.6406,-1.7857,-1.9004,-1.9805,-2.0234,-2.0059,-1.9746,-1.9316,-1.8887,-1.8169,-1.7168,-1.668,-1.5879,-1.4629,-1.3945,-1.2934,0.0,0.0,0.0,0.0,0.0,0.0,0.0,0.0,0.0,0.0,0.0,0.0,0.0,0.0,0.0,0.0,0.0,0.0,0.0,0.0,0.0,0.0,0.0,0.0,0.0,0.0,0.0,0.0,-1.8509,-1.9986,-2.0388,-2.1066,-2.132,0.0,0.0,0.0,0.0,0.0,0.0,-2.4378,-2.4933,-2.5893,-2.7432,-2.8418,-2.8976,-2.8978,-2.9034,-2.9081,-2.9015,-2.8509,-2.8462,-2.8794,-2.8918,-2.8897,-2.8794,-2.8794,-2.8338,-2.7448,-2.5443,-2.4033,-2.3101,-2.219,-2.1694,-2.147,-2.1527,-2.1632,-2.1757,-2.2048,-2.2372,-2.2676,-2.2797,-2.2251,-2.1422,-2.0333,0.0,0.0,0.0,0.0,-2.1209,-2.2128,-2.2936,-2.3495,-2.333,-2.29,-2.2452,-2.2151,-2.163,-2.0778,-1.9219,-1.8071,-1.7246,-1.6797,-1.5742,0.0,0.0,0.0,-1.7486,-1.8773,-1.9475,-2.0078,-2.0566,-2.0273,-1.9863,-1.9336,-1.8984,-1.8437,-1.7598,-1.7129,-1.6504,-1.5625,-1.4835,-1.3886,-1.272,0.0,0.0,0.0,0.0,0.0,0.0,0.0,0.0,0.0,0.0,0.0,0.0,0.0,0.0,0.0,0.0,0.0,0.0,0.0,0.0,0.0,0.0,0.0,0.0,0.0,0.0,0.0,0.0,0.0,-2.2196,-2.315,0.0,0.0,0.0,0.0,-2.4332,-2.5243,-2.6202,-2.7311,-2.7903,-2.8821,-3.017,-3.0676,-3.0866,-3.0766,-3.051,-3.0073,-2.9381,-2.9274,-2.9249,-2.929,-2.9725,-2.9684,-2.927,-2.927,-2.9001,-2.8442,-2.7013,-2.5896,-2.4962,-2.4095,-2.3991,-2.4239,-2.3617,-2.3635,-2.4063,-2.4338,-2.4432,-2.4513,-2.4912,-2.3861,-2.2332,-2.1598,-2.0835,0.0,0.0,-2.2022,-2.2859,-2.3598,-2.4115,-2.4425,-2.4425,-2.3905,-2.3409,-2.3409,-2.2733,-2.1668,-2.0136,-1.9473,-1.9023,-1.8539,0.0,-1.75,-1.8325,-1.813,-1.8398,-1.9687,-1.9883,-2.0078,-2.0566,-2.0586,-2.0233,-1.9355,-1.9277,-1.8887,-1.8027,-1.7578,-1.6985,-1.6105,-1.5586,-1.4515,-1.2739,-1.2507,0.0,0.0,0.0,0.0,0.0,0.0,0.0,0.0,0.0,0.0,0.0,0.0,0.0,0.0,0.0,0.0,0.0,0.0,0.0,0.0,0.0,0.0,0.0,0.0,0.0,0.0,0.0,0.0,-2.489,-2.5661,0.0,-2.6314,-2.6013,-2.623,-2.7287,-2.835,-2.941,-3.0483,-3.1447,-3.2269,-3.295,-3.2974,-3.2766,-3.2392,-3.1614,-3.0983,-3.0549,-3.0025,-2.9746,-2.9766,-2.9911,-2.9911,-2.9746,-2.9746,-2.9477,-2.9021,-2.8524,-2.78,-2.6863,-2.6289,-2.621,-2.6268,-2.6011,-2.6053,-2.6176,-2.5941,-2.6085,-2.6311,-2.6141,-2.5279,-2.419,-2.3947,-2.333,-2.2736,-2.3268,-2.3886,-2.4401,-2.4673,-2.5068,-2.5337,-2.5003,-2.4774,-2.4399,-2.3655,-2.3265,-2.2734,-2.161,-2.0722,-2.0096,-1.9902,-1.918,-1.8711,-1.9004,-1.916,-1.9394,-1.9863,-2.0156,-2.0391,-2.0586,-2.0605,-2.037,-1.9746,-1.9434,-1.9043,-1.8422,-1.7773,-1.7109,-1.6523,-1.6074,-1.5293,-1.4068,-1.3704,-1.2857,0.0,0.0,0.0,0.0,0.0,0.0,0.0,0.0,0.0,0.0,0.0,0.0,0.0,0.0,0.0,0.0,0.0,0.0,0.0,0.0,0.0,0.0,0.0,0.0,0.0,-2.3485,-2.5586,-2.6901,-2.7846,-2.8473,-2.8649,-2.8524,-2.8775,-2.9704,-3.0809,-3.1838,-3.2742,-3.3671,-3.429,-3.4545,-3.4261,-3.3839,-3.3208,-3.2241,-3.1483,-3.1043,-3.0339,-2.9994,-2.9994,-2.9994,-2.9994,-2.9994,-2.9994,-2.9829,-2.9539,-2.9539,-2.9187,-2.8566,-2.7966,-2.7717,-2.7717,-2.7717,-2.7717,-2.7676,-2.7365,-2.7365,-2.7427,-2.7117,-2.6367,-2.5554,-2.5554,-2.4975,-2.4438,-2.4913,-2.5307,-2.5575,-2.583,-2.602,-2.6041,-2.5751,-2.5416,-2.498,-2.4233,-2.3902,-2.3591,-2.2994,-2.1927,-2.1135,-2.1055,-2.041,-1.9941,-1.9941,-2.0059,-2.0137,-2.0137,-2.0429,-2.0605,-2.0605,-2.0605,-2.037,-1.9746,-1.9453,-1.9043,-1.8422,-1.7773,-1.7187,-1.6726,-1.6309,-1.5694,-1.4833,-1.3975,-1.3113,-1.2264,0.0,0.0,0.0,0.0,0.0,0.0,0.0,0.0,0.0,0.0,0.0,0.0,0.0,0.0,0.0,0.0,0.0,0.0,0.0,0.0,0.0,0.0,0.0,-2.303,-2.5553,-2.7544,-2.8122,-2.9654,-3.0457,-2.9955,-3.0407,-3.0934,-3.1436,-3.2516,-3.3395,-3.3922,-3.4474,-3.4799,-3.4834,-3.4552,-3.4006,-3.3247,-3.237,-3.1578,-3.0827,-3.0256,-2.9994,-3.0015,-3.0015,-3.0036,-3.0036,-3.0015,-3.0015,-3.0015,-2.9994,-2.9994,-2.9911,-2.9001,-2.8649,-2.8649,-2.8649,-2.8649,-2.8628,-2.8628,-2.8338,-2.7945,-2.7945,-2.7153,-2.6274,-2.6274,-2.5803,-2.5421,-2.6038,-2.6253,-2.6402,-2.709,-2.6978,-2.6625,-2.6625,-2.5916,-2.523,-2.5189,-2.4707,-2.4227,-2.4206,-2.3157,-2.2203,-2.1955,-2.1543,-2.121,-2.119,-2.0859,0.0,-2.0605,-2.0605,-2.0605,-2.0605,-2.0605,-2.0253,-1.9375,-1.9297,-1.8926,-1.8066,-1.7598,-1.7168,-1.6687,-1.6269,-1.5674,-1.4852,-1.3343,-1.232,-1.1837,0.0,0.0,0.0,0.0,0.0,0.0,0.0,0.0,0.0,0.0,0.0,0.0,0.0,0.0,0.0,0.0,0.0,0.0,0.0,0.0,0.0,-2.3356,-2.4757,-2.4876,-2.6932,-2.8825,-2.9804,-3.1009,-3.1888,-3.2139,-3.2667,-3.3068,-3.3194,-3.4248,-3.4881,-3.5031,-3.5604,-3.584,-3.5685,-3.504,-3.4412,-3.3819,-3.2398,-3.1483,-3.1094,-3.0339,-3.018,-3.0491,-3.0491,-3.0677,-3.0988,-3.0636,-3.0491,-3.047,-3.0139,-2.9994,-2.9973,-2.9704,-2.9622,-2.9622,-2.9622,-2.9415,-2.9125,-2.9125,-2.8814,-2.8421,-2.8421,-2.8206,-2.7889,-2.7558,-2.7325,-2.7133,-2.7022,-2.7008,-2.7049,-2.722,-2.7206,-2.704,-2.6687,-2.6372,-2.602,-2.5334,-2.5042,-2.4769,-2.4311,-2.3917,-2.344,-2.274,-2.2117,-2.1602,-2.1249,-2.1093,-2.0937,-2.0644,-2.0605,-2.0605,-2.0605,-2.0605,-2.039,-1.9785,-1.9473,-1.8926,-1.8066,-1.7291,-1.6719,-1.63,-1.582,-1.5488,-1.5254,-1.4452,-1.37,0.0,0.0,0.0,0.0,0.0,0.0,0.0,0.0,0.0,0.0,0.0,0.0,0.0,0.0,0.0,0.0,0.0,0.0,0.0,0.0,0.0,0.0,-2.5425,-2.7067,-2.7318,-2.8674,-2.9991,-3.116,-3.2039,-3.2792,-3.337,-3.3721,-3.4098,-3.455,-3.5132,-3.5608,-3.5881,-3.6182,-3.6216,-3.586,-3.5259,-3.4556,-3.3671,-3.2398,-3.1607,-3.1197,-3.0862,-3.0779,-3.1051,-3.124,-3.1437,-3.1558,-3.0938,-3.0677,-3.0657,-3.018,-2.9994,-2.9994,0.0,0.0,0.0,0.0,-2.9829,-2.9601,-2.9601,-2.929,-2.8897,-2.8897,-2.8773,-2.8566,-2.8297,-2.809,-2.7862,-2.7614,-2.7455,-2.7309,-2.7309,-2.7309,-2.7247,-2.6978,-2.675,-2.6434,-2.5896,-2.5502,-2.5063,-2.4664,-2.4372,0.0,-2.3519,-2.2822,-2.2195,-2.1816,-2.1424,-2.1093,-2.0879,-2.0684,-2.0605,-2.0605,-2.0605,-2.0429,-1.9941,-1.9531,0.0,0.0,0.0,-1.6797,-1.6367,-1.6094,0.0,0.0,0.0,0.0,0.0,0.0,0.0,0.0,-1.0462,-1.0264,0.0,0.0,0.0,0.0,0.0,0.0,0.0,0.0,0.0,0.0,0.0,0.0,0.0,0.0,0.0,0.0,-2.7261,-2.9239,-2.9955,-3.0482,-3.1135,-3.2114,-3.2717,-3.3294,-3.3847,-3.3947,-3.4424,-3.5408,-3.5558,-3.5855,-3.638,-3.6405,0.0,0.0,0.0,-3.458,-3.3296,-3.242,-3.1753,-3.1357,-3.1579,-3.1731,-3.1816,-3.219,-3.2262,-3.2032,-3.115,-3.076,-3.0719,-3.0201,-2.9994,-2.9994,-2.9994,-2.9994,-2.9994,-2.9994,-2.9994,-2.9994,-2.9994,0.0,0.0,-2.9373,-2.9104,-2.8752,-2.8711,-2.84,-2.8048,-2.7945,-2.7634,-2.7372,-2.7309,-2.7309,-2.7309,-2.7309,-2.6998,-2.6687,-2.6625,-2.5896,-2.5251,-2.5189,-2.4687,-2.4249,-2.4206,-2.3496,-2.2876,-2.2605,-2.1836,-2.1249,-2.121,-2.084,-2.0605,-2.0605,-2.0605,0.0,-1.9941,-1.957,-1.916,-1.8637,-1.7852,-1.7207,-1.6785,-1.6726,-1.6707,-1.6707,-1.6243,-1.5946,-1.5892,-1.5086,-1.4514,-1.4079,-1.238,-1.1688,0.0,0.0,0.0,0.0,0.0,0.0,0.0,0.0,0.0,0.0,0.0,0.0,0.0,0.0,0.0,-2.7016,-2.8647,-3.0131,-3.1537,-3.1838,-3.1989,-3.219,-3.2717,-3.3294,-3.3847,-3.4299,-3.4781,-3.5458,-3.5956,-3.6304,-3.6405,-3.6405,-3.6263,-3.5908,-3.5259,-3.4532,-3.3845,-3.2398,-3.1936,-3.2509,-3.2315,0.0,-3.368,-3.3573,-3.3506,-3.3476,-3.1973,-3.1236,-3.1174,-3.0346,-2.9994,-2.9994,-2.9994,-2.9994,-2.9994,-2.9994,-2.9994,-2.9994,-2.9994,-2.9932,-2.987,-2.987,-2.9808,-2.9663,-2.929,-2.9104,0.0,-2.8131,-2.7862,-2.7717,-2.7392,-2.7309,-2.7309,-2.7309,-2.7247,-2.7061,-2.6687,-2.6144,-2.5647,-2.5251,-2.4774,-2.4378,-2.4249,-2.3737,-2.3256,-2.2876,-2.2215,-2.1641,-2.1249,-2.084,-2.0605,-2.0605,-2.0605,-2.0429,-1.9941,-1.9844,-1.9473,-1.8656,-1.7852,-1.7344,-1.7266,-1.6882,-1.6707,-1.6707,-1.6597,-1.6714,-1.7064,-1.6741,-1.6632,-1.6698,-1.4337,-1.3397,0.0,0.0,0.0,0.0,0.0,0.0,0.0,0.0,0.0,0.0,0.0,-2.1848,-2.3548,0.0,-2.7024,-2.8768,-3.0139,-3.1286,-3.2089,-3.2466,-3.2641,-3.2641,-3.2893,-3.3395,-3.4223,-3.455,-3.5052,-3.5906,-3.6458,-3.6832,-3.6832,-3.7036,-3.7089,-3.6798,-3.6284,-3.5668,-3.4993,-3.3805,-3.3375,-3.3801,-3.3922,-3.4283,-3.4832,-3.4645,-3.445,-3.4146,-3.2427,-3.1588,-3.1298,-3.0387,-2.9994,-2.9994,-2.9994,-2.9994,-2.9994,-2.9994,-2.9994,-2.9994,-2.9994,-2.9994,-2.9994,-2.9994,-2.9994,-2.9953,-2.9725,-2.9497,-2.9166,-2.8462,-2.809,-2.7821,-2.7413,-2.7309,-2.7309,-2.7309,-2.7309,-2.7247,-2.7019,-2.6418,-2.5813,-2.5606,-2.4962,-2.4464,-2.4378,-2.4077,-2.3694,-2.3259,-2.2735,-2.2176,-2.1621,-2.1172,-2.082,-2.0625,-2.0605,-2.0507,-2.0254,-2.0039,-1.9648,-1.9004,-1.8574,-1.834,-1.834,-1.8125,-1.8008,-1.8008,-1.8008,-1.8125,-1.834,-1.8147,-1.8078,-1.8061,-1.6737,-1.5931,0.0,0.0,0.0,0.0,0.0,0.0,0.0,0.0,-2.0701,-2.2178,-2.3597,-2.4909,-2.6293,-2.7869,-2.9251,-3.022,-3.139,-3.2265,-3.2365,-3.2792,-3.3111,-3.3111,-3.3111,-3.352,-3.4625,-3.468,-3.5177,-3.6329,-3.6933,-3.7186,-3.7186,-3.7713,-3.7891,-3.7693,-3.7494,-3.7043,-3.6336,-3.5517,-3.5201,-3.537,-3.5736,-3.5968,-3.5955,-3.5645,-3.5168,-3.4558,-3.279,-3.1733,-3.1195,-3.0429,-3.0077,-2.9994,-2.9994,-2.9994,-2.9994,-2.9994,-2.9994,-2.9994,-2.9994,-2.9994,-2.9994,-2.9994,-2.9994,-2.9994,-2.9994,-2.9746,-2.9352,-2.8876,-2.8421,-2.7945,-2.751,-2.7372,-2.7309,-2.7309,-2.7309,-2.7309,-2.7309,-2.6646,-2.6024,-2.5941,-2.5233,-2.4611,-2.4507,-2.4378,-2.412,-2.3687,-2.3222,-2.2698,-2.2176,-2.1562,-2.1094,-2.0742,-2.0664,-2.0605,-2.0605,-2.0234,-1.9902,-1.9551,-1.9453,-1.9414,-1.9414,-1.9336,-1.9297,-1.9297,-1.9297,-1.9336,-1.9414,-1.9267,-1.9121,-1.9087,-1.8957,-1.834,-1.8861,-2.0022,-2.1642,-2.2757,-2.2973,-2.3059,0.0,0.0,-2.386,-2.5454,-2.6239,-2.7193,-2.8937,-2.9576,-3.0244,-3.1514,-3.1972,-3.239,-3.2893,-3.3086,-3.3111,-3.3111,-3.3111,-3.352,-3.4625,-3.468,-3.5177,-3.6329,-3.6933,-3.7186,-3.7186,-3.7713,-3.8015,-3.7965,-3.7916,-3.7742,-3.7444,-3.6616,-3.6552,-3.7263,-3.7156,-3.7316,-3.7666,-3.6619,-3.5827,-3.5168,-3.2937,-3.1547,-3.076,-3.0657,-3.0367,-2.9994,-2.9994,-2.9994,-2.9994,-2.9994,-2.9994,-2.9994,-2.9994,-2.9994,-2.9994,-2.9994,-2.9994,-2.9994,-2.9994,-2.9953,-2.9829,-2.9352,-2.8897,-2.8442,-2.7966,-2.7552,-2.7309,-2.7309,-2.7309,-2.7309,-2.7309,-2.6895,-2.6418,-2.5958,-2.5482,-2.4983,-2.4569,-2.4507,-2.4378,-2.4163,-2.3436,-2.2859,-2.28,-2.1861,-2.1171,-2.1132,-2.0801,-2.0605,-2.0605,-2.0566,-2.0507,-2.0468,-2.0059,-1.9844,-1.9844,-1.9492,-1.9297,-1.9297,-1.9297,-1.9473,-1.9844,-1.9806,-2.0001,-2.0391,-2.0391,-1.9716,-2.1481,-2.2511,-2.3898,0.0,-2.5743,-2.6308,-2.681,-2.7146,-2.7631,-2.8584,-2.945,-3.0242,-3.1017,-3.1498,-3.198,0.0,-3.2674,-3.2792,-3.3043,-3.3111,-3.3111,-3.3111,-3.3111,-3.3395,-3.4173,-3.4525,-3.5177,-3.6329,-3.7161,-3.7814,-3.814,-3.8693,-3.8994,-3.8994,-3.8994,-3.8893,-3.8613,-3.805,-3.7889,-3.808,-3.7976,-3.7757,-3.7441,-3.6449,-3.519,-3.3741,-3.2511,-3.176,-3.1422,-3.0905,-3.0574,-3.0367,-3.0098,-2.9994,-2.9994,-2.9994,-2.9994,-2.9994,-2.9994,-2.9994,-2.9994,-2.9994,-2.9994,-2.9994,-2.9994,-2.9994,-2.9891,-2.9435,-2.898,-2.8504,-2.8048,-2.7593,-2.7309,-2.7309,-2.7309,-2.7309,-2.7309,-2.6936,-2.6563,-2.6356,-2.5709,-2.5127,-2.4941,-2.4673,-2.4464,-2.4378,-2.3829,-2.3308,-2.2941,-2.2333,-2.1736,-2.1249,-2.084,-2.0605,-2.0605,-2.0605,-2.0605,-2.0605,-2.0429,-2.0293,-2.0293,-2.0155,-2.0077,-2.0077,-2.0077,-2.0155,-2.0293,-2.0293,-2.0429,-2.0605,-2.0605,-2.0314,-2.3898,-2.4757,0.0,-2.7102,-2.7971,-2.875,-2.9453,-2.9829,-3.0181,-3.0708,-3.1436,-3.1989,-3.1989,-3.2441,-3.2842,-3.2842,-3.2968,-3.3111,-3.3111,-3.3111,-3.3111,-3.3111,-3.3111,-3.3244,-3.3646,-3.4173,-3.5002,-3.6304,-3.7236,-3.809,-3.8869,-3.9396,-3.9697,-3.9697,-3.9697,-3.9594,-3.9413,-3.9154,-3.8893,-3.8631,-3.8396,-3.7868,-3.7066,-3.585,-3.4379,-3.2649,-3.2318,-3.2112,-3.1926,-3.134,-3.0905,-3.0657,-3.0325,-3.0098,-2.9994,-2.9994,-2.9994,-2.9994,-2.9994,-2.9994,-2.9994,-2.9994,-2.9994,-2.9994,-2.9994,-2.9994,-2.9932,-2.958,-2.9063,-2.8545,-2.8193,-2.7696,-2.7309,-2.7309,-2.7309,-2.7309,-2.7309,-2.704,-2.677,-2.6646,-2.5937,-2.5334,-2.521,-2.4797,-2.4507,-2.4507,-2.4143,-2.374,-2.3205,-2.2768,-2.2187,-2.1288,-2.0937,-2.0742,-2.0625,-2.0605,-2.0605,-2.0605,-2.0605,-2.0605,-2.0605,-2.0605,-2.0605,-2.0605,-2.0605,-2.0605,-2.0605,-2.0605,-2.0605,-2.0605,-2.0605,-2.0605,0.0,0.0,-2.7595,-2.9277,-2.9704,-3.003,-3.1085,-3.0934,-3.0733,-3.126,-3.1386,-3.1411,-3.1411,-3.1863,-3.224,-3.224,-3.2717,-3.3111,-3.3111,-3.3111,-3.3111,-3.3111,-3.3111,-3.3136,0.0,-3.3596,-3.46,-3.6279,-3.6885,-3.7688,-3.8869,-3.9396,-3.9697,-3.9697,-3.9697,-3.9697,-3.9697,-3.9697,-3.9542,-3.9258,-3.8319,-3.7631,-3.7019,-3.5002,-3.3537,-3.2669,-3.2669,-3.2401,-3.1988,-3.1946,-3.1485,-3.0677,-3.0677,-3.0387,-2.9994,-2.9994,-2.9994,-2.9994,-2.9994,-2.9994,-2.9994,-2.9994,-2.9994,-2.9994,-2.9994,-2.9994,-2.9994,-2.9973,-2.9311,-2.8607,-2.8587,-2.7924,-2.7309,-2.7309,-2.7309,-2.7309,-2.7309,-2.7289,-2.7164,-2.6708,-2.6231,-2.573,-2.5251,-2.4797,-2.4507,-2.4507,-2.4335,-2.412,-2.382,-2.3031,-2.2187,-2.1288,-2.119,-2.1035,-2.0644,-2.0605,-2.0605,-2.0605,-2.0605,-2.0605,-2.0605,-2.0605,-2.0605,-2.0605,-2.0605,-2.0605,-2.0605,-2.0605,-2.0605,-2.0605,-2.0605,-2.0605,-2.66,0.0,-2.8699,-3.0005,-3.0884,-3.1486,-3.1863,-3.2089,-3.219,-3.1989,-3.1637,-3.1386,-3.1386,-3.126,-3.1386,-3.2089,-3.2365,-3.2641,-3.3018,-3.3111,-3.3111,-3.3111,-3.3395,0.0,0.0,0.0,0.0,-3.6257,-3.6885,-3.7839,-3.9346,-3.9597,-3.9697,-3.9697,-3.9697,-3.9645,-3.9438,-3.9413,-3.8998,-3.8133,-3.6642,-3.5608,-3.5002,-3.3931,-3.3182,-3.2669,-3.2669,-3.2587,-3.2421,-3.2112,-3.1802,-3.1526,-3.0926,-3.0594,-3.0408,-3.0098,-2.9994,-2.9994,-2.9994,-2.9994,-2.9994,-2.9994,-2.9994,-2.9994,-2.9994,-2.9994,-2.9994,-2.9994,-2.9332,-2.8607,-2.8607,-2.7945,-2.7309,-2.7309,-2.7309,-2.7309,-2.7309,-2.7309,-2.7268,-2.7102,-2.6459,-2.5834,-2.5689,-2.5047,-2.4464,-2.4335,-2.412,-2.3841,-2.3624,-2.2945,-2.2402,-2.2068,-2.1541,-2.1132,-2.1016,-2.0742,-2.0605,-2.0605,-2.0605,-2.0605,-2.0605,-2.0605,-2.0605,-2.0605,-2.0605,-2.0605,-2.0605,-2.0605,-2.0762,-2.1016,-2.1016,-2.1172,-2.772,-2.885,-2.9765,-3.0909,-3.1712,-3.2215,-3.2215,-3.2491,-3.2491,-3.1537,-3.0909,-3.0457,-3.0256,-3.0105,-3.0342,-3.1461,-3.1964,-3.2416,-3.2993,-3.3111,-3.3111,-3.3111,-3.3571,-3.3822,0.0,0.0,0.0,-3.6533,-3.6985,-3.7914,-3.9597,-3.9697,-3.9697,-3.9697,-3.9697,-3.9594,-3.931,-3.8998,-3.8003,-3.6449,-3.519,-3.419,-3.3537,-3.3182,-3.2898,-3.2669,-3.2669,-3.2669,-3.2706,-3.2359,-3.2132,-3.1926,-3.1402,-3.0967,-3.0657,-3.0346,-3.0139,-2.9994,-2.9994,-2.9994,-2.9994,-2.9994,-2.9994,-2.9994,-2.9994,-2.9994,-2.9994,-2.9994,-2.9456,-2.8814,-2.8649,-2.8048,-2.7469,-2.7351,-2.7309,-2.7309,-2.7309,-2.7309,-2.7309,-2.7309,-2.6687,-2.6127,-2.5916,-2.513,-2.4464,-2.4335,-2.41,-2.3841,-2.3557,-2.3126,-2.2761,-2.2519,-2.2012,-2.1522,-2.121,-2.0977,-2.0742,-2.0625,-2.0605,-2.0605,-2.0605,-2.0605,-2.0605,-2.0605,-2.0605,-2.0605,-2.0605,-2.0723,-2.0957,-2.119,-2.1346,-2.1621,-2.9428,-3.0281,-3.0959,-3.1989,-3.224,-3.2215,-3.2215,-3.2164,-3.1687,-3.008,-2.9252,-2.8612,0.0,0.0,-2.9164,-3.0392,-3.1486,-3.239,-3.2993,-3.3111,-3.3136,0.0,0.0,0.0,0.0,0.0,0.0,-3.7111,-3.7186,-3.7889,-3.9597,-3.9697,-3.9697,-3.9697,-3.9697,-3.9594,-3.9258,-3.8267,-3.6696,-3.4469,-3.4134,-3.3537,-3.2669,-3.2669,-3.2669,-3.2669,-3.2669,-3.2669,-3.2669,-3.2669,-3.2421,-3.2008,-3.1988,-3.1505,-3.0719,-3.0698,-3.0387,-2.9994,-2.9994,-2.9994,-2.9994,-2.9994,-2.9994,-2.9994,-2.9994,-2.9994,-2.9994,-2.9994,-2.9663,-2.9208,-2.8773,-2.8297,-2.7821,-2.7434,-2.733,-2.7309,-2.7309,-2.7309,-2.7309,-2.7309,-2.6936,-2.6459,-2.5937,-2.515,-2.4528,-2.4507,-2.4335,-2.4077,-2.36,-2.3493,-2.3248,-2.264,-2.2519,-2.2187,-2.1327,-2.1249,-2.1094,-2.0703,-2.0664,-2.0664,-2.0664,-2.0644,-2.0644,-2.0664,-2.0644,-2.0644,-2.0664,-2.1055,-2.1249,-2.1268,-2.1719,-2.1934,-3.0532,-3.1386,-3.1964,-3.2692,-3.2541,-3.2215,-3.2215,-3.1587,-3.0658,-2.9402,-2.8047,-2.7168,0.0,0.0,0.0,-3.0231,-3.116,0.0,-3.2943,-3.3111,0.0,-3.3646,0.0,-3.5228,-3.555,-3.6031,0.0,0.0,-3.7335,-3.7536,-3.9597,-3.9697,-3.9697,-3.9697,-3.9697,-3.9413,-3.8945,-3.7203,-3.5576,-3.4134,-3.3671,-3.3182,-3.2669,-3.2669,-3.2669,-3.2669,-3.2669,-3.2669,-3.2669,-3.2669,-3.2607,-3.2463,-3.2112,-3.1692,-3.1153,-3.0822,-3.0387,-2.9994,-2.9994,-2.9994,-2.9994,-2.9994,-2.9994,-2.9994,-2.9994,-2.9994,-2.9994,-2.9994,-2.9663,-2.927,-2.9166,-2.8524,-2.7883,-2.7779,-2.751,-2.7309,-2.7309,-2.7309,-2.7309,-2.7309,-2.6936,-2.633,-2.5523,-2.5168,-2.49,-2.4549,-2.4464,-2.4335,-2.4077,-2.3731,-2.341,-2.3268,-2.2781,-2.2422,-2.2207,-2.1894,-2.168,-2.1603,-2.1584,-2.1584,-2.1584,-2.123,-2.1211,-2.1543,-2.123,-2.123,-2.1584,-2.166,-2.1875,-2.2187,-2.2305,-2.2519,-3.1361,-3.2164,-3.2616,-3.2692,-3.2466,-3.2039,-3.1311,-3.0482,-2.9428,-2.7795,-2.6364,0.0,-2.5787,-2.5787,0.0,0.0,0.0,0.0,-3.2541,-3.3119,-3.3646,0.0,-3.5228,0.0,-3.6358,-3.686,-3.7538,0.0,-3.7613,-3.7839,-3.9597,-3.9697,-3.9697,-3.9697,-3.9697,-3.905,-3.7684,-3.6286,-3.488,-3.3424,-3.3126,-3.2898,-3.2669,-3.2669,-3.2669,-3.2669,-3.2669,-3.2669,-3.2669,-3.2669,-3.2669,-3.2649,-3.238,-3.194,-3.134,-3.1091,-3.0574,-2.9994,-2.9994,-2.9994,-2.9994,-2.9994,-2.9994,-2.9994,-2.9994,-2.9994,-2.9994,-2.9994,-2.9808,-2.9559,-2.9352,-2.8773,-2.8173,-2.7966,-2.7593,-2.7309,-2.7309,-2.7309,-2.7309,-2.7309,-2.6936,-2.6413,-2.5916,-2.5647,-2.5357,-2.4879,-2.4797,-2.4691,-2.4356,-2.4013,-2.3731,-2.3493,-2.3146,-2.2801,-2.2519,-2.2305,-2.209,-2.1894,-2.1894,-2.1894,-2.1894,-2.166,-2.1641,-2.1875,-2.1641,-2.1641,-2.1894,-2.207,-2.2285,-2.2519,-2.2695,-2.2867,-3.2064,-3.2692,-3.2943,-3.2365,-3.2114,-3.1587,-3.003,-2.9001,-2.7759,-2.5711,0.0,-2.3477,-2.3627,-2.413,-2.5202,-2.7519,0.0,-3.0783,-3.1938,-3.3068,-3.4048,-3.4751,-3.5805,-3.6581,-3.6709,-3.7136,-3.7638,-3.8191,-3.8165,-3.8592,-3.9647,-3.9697,-3.9697,-3.9697,-3.9645,-3.8477,-3.624,-3.5685,-3.4491,-3.2669,-3.2669,-3.2669,-3.2669,-3.2669,-3.2669,-3.2669,-3.2669,-3.2669,-3.2669,-3.2669,-3.2669,-3.2669,-3.2669,-3.2209,-3.1464,-3.1464,-3.0884,-3.0098,-3.0098,-3.0036,-2.9994,-2.9994,-2.9994,-2.9994,-2.9994,-2.9994,-2.9994,-2.9994,-2.9994,-2.9911,-2.9497,-2.9001,-2.8504,-2.811,-2.7634,-2.7309,-2.7309,-2.7309,-2.7309,-2.7309,-2.6978,-2.6687,-2.6625,-2.6273,-2.5813,-2.5289,-2.523,-2.5044,-2.4588,-2.4333,-2.4034,-2.36,-2.3493,-2.3268,-2.2637,-2.2598,-2.2441,-2.207,-2.2051,-2.2051,-2.2051,-2.1992,-2.1992,-2.2051,-2.1992,-2.1992,-2.2051,-2.2422,-2.2598,-2.2598,-2.2925,-2.3101,-3.2742,-3.2993,-3.2943,-3.2365,-3.1537,-3.0583,-2.9314,-2.7208,0.0,0.0,-2.1945,-2.0815,-2.1744,-2.2372,-2.3627,-2.6348,0.0,0.0,0.0,0.0,-3.3771,0.0,0.0,0.0,0.0,0.0,0.0,0.0,-3.8969,-3.8994,-3.9672,-3.9697,-3.9697,-3.9697,-3.9206,-3.8056,-3.624,-3.5685,-3.4491,-3.2669,-3.2669,-3.2669,-3.2669,-3.2669,-3.2669,-3.2669,-3.2669,-3.2669,-3.2669,-3.2669,-3.2669,-3.2669,-3.2669,-3.2339,-3.1919,-3.1919,-3.136,-3.0574,-3.0574,-3.0305,-2.9994,-2.9994,-2.9994,-2.9994,-2.9994,-2.9994,-2.9994,-2.9994,-2.9994,-2.9973,-2.9891,-2.9249,-2.8587,-2.8504,-2.7862,-2.7309,-2.7309,-2.7309,-2.7309,-2.7309,-2.7247,-2.7061,-2.6687,-2.6542,-2.6243,-2.5538,-2.5283,-2.5104,-2.4801,-2.4431,-2.4077,-2.3797,-2.358,-2.3387,-2.3027,-2.2984,-2.2964,-2.2886,-2.2886,-2.2886,-2.2886,-2.2578,-2.2559,-2.2867,-2.2578,-2.2578,-2.2886,-2.2945,-2.2984,-2.2984,-2.3062,-2.3101,-3.2842,-3.3111,-3.2867,-3.1989,-3.1185,-3.008,-2.8097,0.0,0.0,0.0,-2.0539,-1.9635,-2.0464,0.0,0.0,0.0,0.0,0.0,0.0,0.0,0.0,0.0,0.0,0.0,0.0,0.0,-3.9396,-3.9672,-3.9446,-3.9421,-3.9672,-3.9697,-3.9697,-3.9697,-3.9102,-3.795,-3.624,-3.5685,-3.4491,-3.2669,-3.2669,-3.2669,-3.2669,-3.2669,-3.2669,-3.2669,-3.2669,-3.2669,-3.2669,-3.2669,-3.2669,-3.2669,-3.2669,-3.2401,-3.1988,-3.1988,-3.1464,-3.0677,-3.0677,-3.0387,-2.9994,-2.9994,-2.9994,-2.9994,-2.9994,-2.9994,-2.9994,-2.9994,-2.9994,-2.9994,-2.9994,-2.9477,-2.8918,-2.8669,-2.7924,-2.7309,-2.7309,-2.7309,-2.7309,-2.7309,-2.7309,-2.7247,-2.7019,-2.6978,-2.6765,-2.6172,-2.597,-2.5706,-2.5098,-2.4828,-2.4451,-2.3861,-2.3711,-2.3493,-2.3144,-2.3101,-2.3101,-2.3101,-2.3101,-2.3101,-2.3101,-2.2906,-2.2886,-2.3081,-2.2906,-2.2906,-2.3101,-2.3101,-2.3101,-2.3101,-2.3101,-2.3101,-3.2835,-3.3111,-3.286,-3.1662,-3.0809,-2.9553,-2.6927,-2.4764,0.0,0.0,-1.9334,-1.8632,-1.9183,0.0,-2.0842,0.0,0.0,0.0,0.0,0.0,0.0,0.0,0.0,0.0,0.0,0.0,0.0,-3.9697,-3.9697,-3.9697,-3.9697,-3.9697,-3.9697,-3.9697,-3.9102,-3.795,-3.624,-3.5685,-3.4491,-3.2669,-3.2669,-3.2669,-3.2669,-3.2669,-3.2669,-3.2669,-3.2669,-3.2669,-3.2669,-3.2669,-3.2669,-3.2669,-3.2669,-3.2442,-3.2132,-3.2132,-3.1609,-3.0843,-3.0843,-3.047,-2.9994,-2.9994,-2.9994,-2.9994,-2.9994,-2.9994,-2.9994,-2.9994,-2.9994,-2.9994,-2.9994,-2.9642,-2.9166,-2.8607,-2.7924,-2.7413,-2.733,-2.7309,-2.7309,-2.7309,-2.7309,-2.7309,-2.7309,-2.7309,-2.7138,-2.6739,-2.6641,-2.631,-2.5516,-2.5396,-2.4972,-2.4022,-2.3858,-2.3624,-2.3144,-2.3101,-2.3101,-2.3101,-2.3101,-2.3101,-2.3101,-2.3101,-2.3101,-2.3101,-2.3101,-2.3101,-2.3101,-2.3101,-2.3101,-2.3101,-2.3198,-2.3237,-3.2893,-3.3111,-3.286,-3.1662,-3.0231,-2.8436,-2.6189,0.0,0.0,-1.9409,-1.7854,-1.6901,-1.7524,-1.8053,-1.8982,-2.0717,0.0,-2.5636,0.0,0.0,0.0,0.0,0.0,0.0,0.0,0.0,-3.9697,-3.9697,-3.9697,-3.9697,-3.9697,-3.9697,-3.9697,-3.9697,-3.9102,-3.795,-3.624,-3.5685,-3.4491,-3.2669,-3.2669,-3.2669,-3.2669,-3.2669,-3.2669,-3.2669,-3.2669,-3.2669,-3.2669,-3.2669,-3.2669,-3.2669,-3.2669,-3.2649,-3.2607,-3.2607,-3.2085,-3.1319,-3.1319,-3.0739,-2.9994,-2.9994,-2.9994,-2.9994,-2.9994,-2.9994,-2.9994,-2.9994,-2.9994,-2.9994,-2.9994,-2.9642,-2.9083,-2.8193,-2.7924,-2.7759,-2.7392,-2.7309,-2.7309,-2.7309,-2.7309,-2.7309,-2.7309,-2.7309,-2.7194,-2.6935,-2.6707,-2.6491,-2.6151,-2.5945,-2.5468,-2.4549,-2.4038,-2.3624,-2.3144,-2.3101,-2.3101,-2.3101,-2.3101,-2.3101,-2.3101,-2.3101,-2.3101,-2.3101,-2.3101,-2.3101,-2.3101,-2.3101,-2.3101,-2.3101,-2.3555,-2.373,-3.2315,-3.2566,-3.229,-3.1185,-2.9679,-2.777,-2.5209,0.0,-2.0289,-1.8832,-1.7428,-1.6697,-1.7297,-1.7551,-1.8229,-1.9886,-2.192,-2.4004,-2.5988,0.0,0.0,0.0,0.0,0.0,0.0,0.0,-3.9346,-3.9672,-3.9697,-3.9697,-3.9697,-3.9697,-3.9697,-3.9697,-3.9102,-3.795,-3.624,-3.5685,-3.4491,-3.2669,-3.2669,-3.2669,-3.2669,-3.2669,-3.2669,-3.2669,-3.2669,-3.2669,-3.2669,-3.2669,-3.2669,-3.2669,-3.2669,-3.2504,-3.2256,-3.2256,-3.1733,-3.0967,-3.0967,-3.0532,-2.9994,-2.9994,-2.9994,-2.9994,-2.9994,-2.9994,-2.9994,-2.9994,-2.9994,-2.9994,-2.9994,-2.9642,-2.9208,-2.8835,-2.8338,-2.7883,-2.7696,-2.7448,-2.7309,-2.7309,-2.7309,-2.7309,-2.7309,-2.7309,-2.7262,-2.7167,-2.7049,-2.6889,-2.6481,-2.6367,-2.6032,-2.5239,-2.4614,-2.3923,-2.3164,-2.3101,-2.3101,-2.3101,-2.3101,-2.3101,-2.3101,-2.3101,-2.3101,-2.3101,-2.3101,-2.3101,-2.3101,-2.3354,-2.3535,-2.3535,-2.3965,-2.416,-3.1411,-3.1863,-3.1712,-3.0633,-2.9101,-2.7193,0.0,-2.2146,-2.0013,-1.8505,-1.7277,-1.6647,-1.7049,-1.7124,-1.7601,-1.9083,-2.074,-2.2548,-2.4582,0.0,0.0,0.0,0.0,-3.5228,0.0,-3.7938,-3.9094,-3.9647,-3.9697,-3.9697,-3.9697,-3.9697,-3.9697,-3.9697,-3.9102,-3.795,-3.624,-3.5685,-3.4491,-3.2669,-3.2669,-3.2669,-3.2669,-3.2669,-3.2669,-3.2669,-3.2669,-3.2669,-3.2669,-3.2669,-3.2669,-3.2669,-3.2669,-3.2401,-3.1988,-3.1988,-3.1464,-3.0677,-3.0677,-3.0387,-2.9994,-2.9994,-2.9994,-2.9994,-2.9994,-2.9994,-2.9994,-2.9994,-2.9994,-2.9994,-2.9994,-2.9746,-2.9477,-2.9332,-2.8814,-2.8255,-2.7986,-2.7676,-2.7407,-2.733,-2.7309,-2.7309,-2.7309,-2.7309,-2.7309,-2.7309,-2.7309,-2.7138,-2.6733,-2.6786,-2.6506,-2.5752,-2.527,-2.4616,-2.3688,-2.3398,-2.3296,-2.3296,-2.3159,-2.3101,-2.3101,-2.3101,-2.3159,-2.3276,-2.3296,-2.3354,-2.3471,-2.3828,-2.3984,-2.3984,-2.4414,-2.4687,-3.0181,-3.1009,-3.1135,-3.008,-2.8549,-2.6751,0.0,-2.182,-1.951,-1.843,-1.7277,-1.65,-1.65,-1.65,-1.6876,-1.8028,-1.9635,-2.1295,-2.2895,0.0,0.0,0.0,0.0,-3.4016,-3.6204,-3.7938,-3.9094,-3.9647,-3.9697,-3.9697,-3.9697,-3.9697,-3.9697,-3.9697,-3.9102,-3.795,-3.624,-3.5685,-3.4491,-3.2669,-3.2669,-3.2669,-3.2669,-3.2669,-3.2669,-3.2669,-3.2669,-3.2669,-3.2669,-3.2669,-3.2669,-3.2669,-3.2669,-3.2401,-3.1988,-3.1988,-3.1464,-3.0677,-3.0677,-3.0387,-2.9994,-2.9994,-2.9994,-2.9994,-2.9994,-2.9994,-2.9994,-2.9994,-2.9994,-2.9994,-2.9994,-2.9994,-2.987,-2.9415,-2.929,-2.9042,-2.8131,-2.7924,-2.7779,-2.7392,-2.7309,-2.7309,-2.7309,-2.7309,-2.7309,-2.7309,-2.7309,-2.7214,-2.6948,-2.7119,-2.6934,-2.592,-2.6026,-2.5797,-2.4868,-2.4159,-2.3789,-2.3789,-2.3379,-2.3101,-2.3101,-2.3101,-2.334,-2.3769,-2.3789,-2.3984,-2.4414,-2.4414,-2.4414,-2.4414,-2.4863,-2.5293,-2.8549,-2.9302,-2.9453,-2.8348,-2.6816,-2.5008,-2.2799,-2.0715,-1.8933,-1.7877,-1.7049,-1.65,-1.65,-1.65,-1.6876,-1.8028,-1.9258,-2.0941,0.0,0.0,0.0,0.0,0.0,-3.4248,0.0,0.0,-3.8668,-3.9622,-3.9697,-3.9697,-3.9697,-3.9542,-3.9367,-3.9145,-3.8904,-3.7781,-3.568,-3.545,-3.4491,-3.2669,-3.2669,-3.2669,-3.2669,-3.2669,-3.2669,-3.2669,-3.2669,-3.2669,-3.2669,-3.2669,-3.2669,-3.2669,-3.2669,-3.2271,-3.1588,-3.1588,-3.1008,-3.0222,-3.0222,-3.0118,-2.9994,-2.9994,-2.9994,-2.9994,-2.9994,-2.9994,-2.9994,-2.9994,-2.9994,-2.9994,-2.9994,-2.9994,-2.9953,-2.9808,-2.9539,-2.9228,-2.8938,-2.8359,-2.7883,-2.7738,-2.7469,-2.7309,-2.7309,-2.7309,-2.7309,-2.7309,-2.7309,-2.7214,-2.6948,-2.6996,-2.6887,-2.6601,-2.6275,-2.5784,-2.4861,-2.4617,-2.4283,-2.3809,-2.3652,-2.3457,-2.3101,-2.3418,-2.3652,-2.3789,-2.4082,-2.4277,-2.4414,-2.4727,-2.5019,-2.5284,-2.5469,-2.5605,0.0,-2.6967,-2.7132,-2.6264,-2.4958,-2.3401,-2.1594,-1.9911,-1.8455,-1.7599,-1.6923,-1.65,-1.65,-1.65,-1.6876,-1.8028,-1.9108,-2.0639,0.0,0.0,0.0,0.0,0.0,0.0,0.0,-3.809,-3.8718,-3.9622,-3.9697,-3.9697,-3.9697,-3.9413,-3.891,-3.7988,-3.824,-3.734,-3.5291,-3.5109,-3.4267,-3.2669,-3.2669,-3.2669,-3.2669,-3.2669,-3.2669,-3.2669,-3.2669,-3.2669,0.0,-3.2669,-3.2669,-3.2669,-3.2669,-3.2168,-3.1381,-3.1381,-3.0801,-2.9994,-2.9994,-2.9994,-2.9994,-2.9994,-2.9994,-2.9994,-2.9994,-2.9994,-2.9994,-2.9994,-2.9994,-2.9994,-2.9994,-2.9994,-2.9994,-2.9994,-2.9766,-2.9518,-2.9352,-2.8856,-2.8338,-2.7986,-2.7696,-2.7469,-2.733,-2.7309,-2.7309,-2.7309,-2.7309,-2.7167,-2.6805,-2.6853,-2.6805,-2.6592,-2.64,-2.5968,-2.5337,-2.5046,-2.4736,-2.4343,-2.4121,-2.3906,-2.3588,-2.3887,-2.4102,-2.4277,-2.4531,-2.4746,-2.4875,-2.5195,-2.5469,-2.5693,-2.5693,-2.5693,0.0,-2.413,-2.4499,-2.4004,-2.3025,-2.1895,-2.0817,-1.9334,0.0,-1.7448,-1.6898,-1.65,-1.655,-1.655,-1.6948,-1.8129,-1.9233,-2.0539,0.0,0.0,0.0,0.0,-3.4053,0.0,-3.7086,-3.8216,-3.9094,-3.9647,-3.9697,-3.9697,-3.9697,-3.9337,-3.8275,-3.6386,-3.6959,-3.653,-3.4803,-3.4505,-3.3789,-3.2644,-3.2607,-3.2628,-3.2628,-3.2669,-3.2669,-3.2669,-3.2669,-3.2669,-3.2669,-3.2669,-3.2669,-3.2669,-3.2669,-3.2168,-3.1381,-3.1381,-3.0801,-2.9994,-2.9994,-2.9994,-2.9994,-2.9994,-2.9994,-2.9994,-2.9994,-2.9994,-2.9994,-2.9994,-2.9994,-2.9994,-2.9994,-2.9994,-2.9994,-2.9994,-2.9994,-2.9891,-2.9497,-2.9373,-2.9104,-2.8235,-2.8028,-2.7821,-2.7434,-2.733,-2.7309,-2.7309,-2.7262,-2.7071,-2.6544,-2.6709,-2.664,-2.6139,-2.6304,-2.6352,-2.6091,-2.5543,-2.5145,-2.5106,-2.4687,-2.4453,-2.4414,-2.4453,-2.4648,-2.5106,-2.5145,-2.5312,-2.5693,-2.5693,-2.5693,-2.5693,-2.5693,-2.5693,-1.976,0.0,-2.2874,-2.2749,-2.187,-2.0792,0.0,-1.8455,-1.74,-1.6848,0.0,-1.6626,-1.7099,-1.7197,-1.7677,-1.9183,-2.0363,-2.1913,-2.4258,0.0,0.0,-3.3662,-3.4304,-3.5369,-3.7613,-3.8442,-3.9094,-3.9647,-3.9517,-3.9362,-3.9362,-3.8136,-3.6904,-3.5801,-3.4946,-3.3989,-3.295,-3.3083,-3.2639,-3.1692,-3.2043,-3.2153,-3.2153,-3.2504,-3.2669,-3.2669,-3.2669,-3.2669,-3.2669,-3.2669,-3.2669,-3.2669,-3.2669,-3.2168,-3.1381,-3.1381,-3.0801,-2.9994,-2.9994,-2.9994,-2.9994,-2.9994,-2.9994,-2.9994,-2.9994,-2.9994,-2.9994,-2.9994,-2.9994,-2.9994,-2.9994,-2.9994,-2.9994,-2.9994,-2.9994,-3.0056,-3.0305,-3.0077,-2.9766,-2.9559,-2.8938,-2.8297,-2.7841,-2.7489,-2.7309,-2.7309,-2.7119,-2.69,-2.6544,-2.64,-2.6255,-2.6091,-2.5965,-2.5965,-2.6091,-2.5963,-2.565,-2.5145,-2.5028,-2.4766,-2.4434,-2.4727,-2.5008,-2.5106,-2.541,-2.5625,-2.5693,-2.5693,-2.5693,-2.5693,-2.5693,-2.5693,-1.8331,-1.9886,-2.1167,-2.1167,-2.0539,-1.9685,-1.8832,0.0,0.0,0.0,0.0,-1.6697,-1.7297,-1.7599,-1.838,-2.0263,-2.1518,0.0,0.0,0.0,0.0,-3.3814,-3.4831,-3.5953,-3.7464,-3.8617,-3.9371,-3.9672,-3.9413,-3.9055,-3.842,-3.7272,-3.5864,-3.4165,-3.3279,-3.259,-3.2097,-3.2223,-3.1993,-3.1381,-3.1836,-3.1988,-3.2008,-3.2463,-3.2669,-3.2669,-3.2669,-3.2669,-3.2669,-3.2669,-3.2669,-3.2669,-3.2669,-3.2168,-3.1381,-3.1381,-3.0801,-2.9994,-2.9994,-2.9994,-2.9994,-2.9994,-2.9994,-2.9994,-2.9994,-2.9994,-2.9994,-2.9994,-2.9994,-2.9994,-2.9994,-2.9994,-3.0056,-3.0263,-3.0305,-3.045,-3.0905,-3.0801,-3.0512,-3.0077,-2.9601,-2.8959,-2.8069,-2.7717,-2.7441,-2.716,-2.6996,-2.6757,-2.6352,-2.6207,-2.6062,-2.5917,-2.5791,-2.5791,-2.5917,-2.5917,-2.577,-2.5391,-2.5371,-2.5273,-2.5039,-2.5254,-2.5371,-2.5371,-2.5557,-2.5693,-2.5693,-2.5693,-2.5693,-2.5693,-2.5693,-2.5693,-1.7903,-1.9058,-1.9936,-1.9936,-1.9535,-1.9008,-1.8555,0.0,0.0,0.0,0.0,0.0,0.0,-1.8204,0.0,0.0,0.0,0.0,-2.9443,-3.0296,-3.1414,-3.3787,-3.5356,-3.6503,-3.7012,-3.8592,-3.9572,-3.9572,-3.9314,-3.8573,-3.7308,-3.6417,-3.4883,-3.2433,-3.1949,-3.1718,-3.1591,-3.1538,-3.1425,-3.1174,-3.1609,-3.1781,-3.1802,-3.2313,-3.252,-3.252,-3.252,-3.252,-3.252,-3.252,-3.252,-3.252,-3.252,-3.2002,-3.1278,-3.1278,-3.0719,-2.9994,-2.9994,-2.9994,-2.9994,-2.9994,-2.9994,-2.9994,-2.9994,-2.9994,-2.9994,-2.9994,-2.9994,-2.9994,-2.9994,-2.9994,-3.0098,-3.0491,-3.0574,-3.0698,-3.1174,-3.1278,-3.1029,-3.0243,-3.0098,-2.9704,-2.8462,-2.8173,-2.7909,-2.7316,-2.7097,-2.6822,-2.6258,-2.6141,-2.6044,-2.5742,-2.5693,-2.5693,-2.5693,-2.5693,-2.5693,-2.5693,-2.5693,-2.5693,-2.5693,-2.5693,-2.5693,-2.5693,-2.5693,-2.5693,-2.5693,-2.5693,-2.5693,-2.5693,-2.5752,-2.5791,-1.7903,-1.9359,-2.0566,-2.0566,-2.0138,-1.966,-1.9585,-1.8731,0.0,0.0,0.0,0.0,0.0,-1.9937,-2.1043,0.0,0.0,-2.8292,0.0,0.0,-3.2192,-3.412,-3.5135,-3.5934,-3.6483,-3.8064,-3.9045,-3.9045,-3.8536,-3.7871,-3.6948,-3.5062,-3.3398,-3.2088,-3.1125,-3.0548,-3.0308,-3.0265,-3.0254,-3.0222,-3.0677,-3.0905,-3.0905,-3.1381,-3.1588,-3.1588,-3.1588,-3.1588,-3.1588,-3.1588,-3.1588,-3.1588,-3.1588,-3.1257,-3.0801,-3.0801,-3.045,-2.9994,-2.9994,-2.9994,-2.9994,-2.9994,-2.9994,-2.9994,-2.9994,-2.9994,-2.9994,-2.9994,-2.9994,-2.9994,-2.9994,-2.9994,-3.0015,-3.0077,-3.0098,-3.0222,-3.0698,-3.0801,-3.0739,-3.0615,-3.0574,-3.0387,-2.9787,-2.9352,-2.8961,-2.8615,-2.8066,-2.7432,-2.6685,-2.6468,-2.6202,-2.5732,-2.5693,-2.5693,-2.5693,-2.5693,-2.5693,-2.5693,-2.5693,-2.5693,-2.5693,-2.5693,-2.5693,-2.5693,-2.5693,-2.5693,-2.5693,-2.5693,-2.5693,-2.5693,-2.6113,-2.6289,-1.7903,-1.9183,-2.0365,-2.0993,-2.1142,-2.0991,-2.0413,-1.9635,0.0,0.0,0.0,0.0,0.0,0.0,-2.3025,-2.6163,0.0,-3.0286,-3.1588,-3.2288,-3.3104,-3.4074,-3.5258,-3.6132,-3.6383,-3.7588,-3.8391,-3.8391,-3.7915,-3.6957,-3.5395,-3.4057,-3.2613,-3.0989,-3.0465,-3.0151,-2.9994,-2.9994,-2.9994,-2.9994,-3.047,-3.0677,-3.0698,-3.1174,-3.1381,-3.1381,-3.1381,-3.1381,-3.1381,-3.1381,-3.1381,-3.1381,-3.1381,-3.1091,-3.0657,-3.0408,-3.018,-2.9994,-2.9994,-2.9994,-2.9994,-2.9994,-2.9994,-2.9994,-2.9994,-2.9994,-2.9994,-2.9994,-2.9994,-2.9994,-2.9994,-2.9994,-3.0056,-3.0305,-3.0367,-3.0438,-3.0784,-3.0941,-3.0934,-3.0504,-3.057,-3.0532,-3.0077,-2.9829,-2.9446,-2.8787,-2.841,-2.7872,-2.696,-2.6769,-2.6562,-2.6133,-2.6094,-2.5996,-2.5713,-2.5693,-2.5693,-2.5693,-2.5693,-2.5693,-2.5693,-2.5693,-2.5693,-2.5693,-2.5693,-2.5693,-2.5693,-2.5693,-2.581,-2.6094,-2.6289,-2.6504,-1.7727,-1.8807,-1.9861,-2.084,-2.1719,-2.2121,-2.1418,-2.079,-2.0439,0.0,0.0,0.0,0.0,-2.3175,0.0,-2.8712,-3.0368,-3.1533,-3.2485,-3.3206,-3.3782,-3.4052,-3.5284,-3.6134,-3.6138,-3.7016,-3.7617,-3.7617,-3.7072,-3.5925,-3.4032,-3.3231,-3.1949,-3.0047,-2.9994,-2.9994,-2.9994,-2.9994,-2.9994,-2.9994,-3.0346,-3.0532,-3.0532,-3.0884,-3.105,-3.105,-3.105,-3.105,-3.105,-3.105,-3.105,-3.105,-3.105,-3.0843,-3.047,-3.0118,-2.9994,-2.9994,-2.9994,-2.9994,-2.9994,-2.9994,-2.9994,-2.9994,-2.9994,-2.9994,-2.9994,-2.9942,-2.9942,-2.9994,-2.9994,-2.9994,-3.0077,-3.045,-3.0479,-3.0455,-3.0567,-3.0758,-3.0709,-3.0179,-3.0327,-3.052,-3.0222,-3.016,-2.9826,-2.8955,-2.8709,-2.8261,-2.7278,-2.7246,-2.7109,-2.6582,-2.6543,-2.6328,-2.5732,-2.5693,-2.5693,-2.5693,-2.5693,-2.5693,-2.5693,-2.5693,-2.5693,-2.5693,-2.5693,-2.5732,-2.5849,-2.5849,-2.6113,-2.6543,-2.6641,-2.6855,-1.7275,-1.8254,-1.9183,-1.9786,-2.1117,-2.2393,-2.2819,-2.2493,-2.2243,-2.2769,0.0,0.0,0.0,-2.5561,-2.7745,-3.0105,-3.1026,-3.1926,-3.3293,-3.3786,-3.4076,-3.4314,-3.4919,-3.5305,-3.5307,-3.6034,-3.653,-3.653,-3.5864,-3.494,-3.3703,-3.2405,-3.121,-3.0047,-2.9994,-2.9994,-2.9994,-2.9994,-2.9994,-2.9994,-3.0036,-3.0036,-3.0036,-3.0077,-3.0098,-3.0098,-3.0098,-3.0098,-3.0098,-3.0098,-3.0098,-3.0098,-3.0098,-3.0077,-3.0036,-3.0015,-2.9994,-2.9994,-2.9994,-2.9994,-2.9994,-2.9994,-2.9994,-2.9994,-2.9994,-2.9994,-2.9942,-2.9711,-2.9837,-2.9994,-2.9994,-2.9994,-2.9994,-3.0036,-2.9878,-2.9668,-2.9688,-2.9497,-2.9318,-2.9615,-2.9974,-3.0314,-3.0582,-3.0636,-3.0401,-2.9823,-2.9353,-2.872,-2.778,-2.7969,-2.7891,-2.7051,-2.6973,-2.6641,-2.5752,-2.5693,-2.5693,-2.5693,-2.5693,-2.5693,-2.5693,-2.5693,-2.5693,-2.5693,-2.5693,-2.5888,-2.6348,-2.6348,-2.6562,-2.6973,-2.7383,-2.765,-1.7727,-1.8455,-1.9309,-2.0539,-2.1845,-2.2844,-2.3045,-2.3496,-2.4029,-2.4556,-2.4958,0.0,0.0,0.0,-2.9026,-3.126,-3.1945,-3.2744,-3.417,-3.4582,-3.4727,-3.4655,-3.4993,-3.5138,-3.4967,-3.5066,-3.4941,-3.4447,-3.4,-3.3348,-3.2412,-3.1746,-3.094,-3.0047,-2.9994,-2.9994,-2.9994,-2.9994,-2.9994,-2.9994,-2.9994,-2.9994,-2.9994,-2.9994,-2.9994,-2.9994,-2.9994,-2.9994,-2.9994,-2.9994,-2.9994,-2.9994,-2.9994,-2.9994,-2.9994,-2.9994,-2.9994,-2.9994,-2.9994,-2.9994,-2.9994,-2.9994,-2.9994,-2.9994,-2.9994,-2.9994,-2.9942,-2.9659,-2.9659,-2.9764,-2.9764,-2.9889,-2.9942,-2.9764,-2.9659,-2.9501,-2.9152,-2.9079,-2.9079,-2.9046,-2.9485,-2.9954,-3.0327,-3.057,-3.0516,-2.9904,-2.9655,-2.918,-2.8212,-2.8203,-2.8164,-2.7851,-2.7324,-2.6875,-2.6562,-2.5986,-2.5693,-2.5693,-2.5693,-2.5693,-2.5693,-2.5693,-2.5693,-2.5693,-2.5996,-2.623,-2.6387,-2.6641,-2.6992,-2.7422,-2.765,-2.7812,-1.8053,-1.848,-1.9083,-2.0589,-2.192,0.0,-2.3521,-2.4531,-2.5536,-2.6239,-2.6716,-2.7178,-2.7695,0.0,0.0,0.0,-3.2536,-3.3068,-3.4487,-3.4751,-3.4775,-3.4581,-3.4556,-3.4556,-3.4532,-3.4141,-3.3648,-3.3001,-3.26,-3.2145,-3.1534,-3.1146,-3.0651,-3.0047,-2.9994,-2.9994,-2.9994,-2.9994,-2.9994,-2.9994,-2.9994,-2.9994,-2.9994,-2.9994,-2.9994,-2.9994,-2.9994,-2.9994,-2.9994,-2.9994,-2.9994,-2.9994,-2.9994,-2.9994,-2.9994,-2.9994,-2.9994,-2.9994,-2.9994,-2.9994,-2.9994,-2.9994,-2.9994,-2.9994,-2.9994,-2.9994,-2.9942,-2.9554,-2.9501,-2.9554,-2.9343,-2.9501,-2.9711,-2.9606,-2.9448,-2.9185,-2.8781,-2.8781,-2.8814,-2.8727,-2.9046,-2.9444,-2.9942,-3.013,-3.0023,-2.9648,-2.9487,-2.9172,-2.8393,-2.8398,-2.8437,-2.8301,-2.7773,-2.7305,-2.7031,-2.6602,-2.6289,-2.6103,-2.6083,-2.5966,-2.5693,-2.5693,-2.5752,-2.5937,-2.623,-2.6523,-2.6797,-2.709,-2.7441,-2.7871,-2.7871,-2.8027,-1.8078,-1.8229,-1.848,-1.956,0.0,0.0,-2.4424,-2.5686,-2.6826,-2.7896,-2.8122,-2.8298,-2.8787,-2.8913,0.0,-3.2616,-3.2655,-3.28,-3.4197,-3.4164,-3.3967,-3.3993,-3.3522,-3.3396,-3.3944,-3.325,-3.265,-3.242,-3.1863,-3.1454,-3.1176,-3.0681,-3.0287,-2.9994,-2.9994,-2.9994,-2.9994,-2.9994,-2.9994,-2.9994,-2.9994,-2.9994,-2.9994,-2.9994,-2.9994,-2.9994,-2.9994,-2.9994,-2.9994,-2.9994,-2.9994,-2.9994,-2.9994,-2.9994,-2.9994,-2.9994,-2.9994,-2.9994,-2.9994,-2.9994,-2.9994,-2.9994,-2.9994,-2.9994,-2.9994,-2.9994,-2.9889,-2.929,-2.9343,-2.9448,-2.8834,-2.8887,-2.9185,-2.9501,-2.9152,-2.8674,-2.8674,-2.8514,-2.8408,-2.8621,-2.8674,-2.8887,-2.9501,-2.9343,-2.9079,-2.9079,-2.8887,-2.8621,-2.8354,-2.8652,-2.8769,-2.834,-2.8301,-2.7949,-2.7109,-2.7422,-2.748,-2.7051,-2.7012,-2.6641,-2.5732,-2.5693,-2.5957,-2.6387,-2.6406,-2.6816,-2.7728,-2.7728,-2.7891,-2.8301,-2.8301,-2.8301,-1.8933,-1.9258,0.0,-2.1641,0.0,0.0,0.0,-2.6816,0.0,0.0,-3.0156,-3.0231,-2.9654,-3.0156,-3.0934,-3.1763,-3.2438,-3.2911,-3.2975,-3.3218,-3.3151,-3.2376,-3.237,-3.2319,-3.2325,-3.1942,-3.1403,-3.0754,-3.0547,-3.0443,-3.0339,-3.0203,-3.0099,-2.9994,-2.9994,-2.9994,-2.9994,-2.9994,-2.9994,-2.9994,-2.9994,-2.9994,-2.9994,-2.9994,-2.9994,-2.9994,-2.9994,-2.9994,-2.9994,-2.9994,-2.9994,-2.9994,-2.9994,-2.9994,-2.9994,-2.9994,-2.9994,-2.9994,-2.9994,-2.9994,-2.9994,-2.9994,-2.9994,-2.9994,-2.9994,-2.9889,-2.9606,-2.9237,-2.9026,-2.894,-2.8727,-2.8621,-2.8601,-2.8887,-2.8834,-2.8621,-2.8461,-2.8354,-2.8301,-2.8408,-2.8568,-2.8781,-2.894,-2.9026,-2.9026,-2.8834,-2.8727,-2.8621,-2.8354,-2.8652,-2.8867,-2.875,-2.873,-2.8633,-2.8379,-2.793,-2.7669,-2.748,-2.7187,-2.6894,-2.6641,-2.659,-2.6699,-2.6836,-2.7129,-2.7454,-2.7728,-2.7969,-2.8164,-2.8301,-2.8301,-2.8301,-1.918,-2.0006,0.0,-2.2669,-2.4098,-2.5611,-2.7494,0.0,0.0,0.0,-3.0859,-3.0959,-3.0507,-3.0879,-3.1414,-3.1864,-3.2332,-3.2574,-3.2257,-3.2533,-3.2398,-3.1534,-3.1505,-3.1505,-3.1432,-3.1073,-3.063,-3.0047,-2.9994,-2.9994,-2.9994,-2.9994,-2.9994,-2.9994,-2.9994,-2.9994,-2.9994,-2.9994,-2.9994,-2.9994,-2.9994,-2.9994,-2.9994,-2.9994,-2.9994,-2.9994,-2.9994,-2.9994,-2.9994,-2.9994,-2.9994,-2.9994,-2.9994,-2.9994,-2.9994,-2.9994,-2.9994,-2.9994,-2.9994,-2.9994,-2.9994,-2.9889,-2.9837,-2.9837,-2.9659,-2.9501,-2.9343,-2.9026,-2.8834,-2.8674,-2.8568,-2.8408,-2.8354,-2.8621,-2.8621,-2.8514,-2.8354,-2.8301,-2.8301,-2.8301,-2.8461,-2.8568,-2.8674,-2.8781,-2.8761,-2.8727,-2.8621,-2.8461,-2.8301,-2.8516,-2.8672,-2.8672,-2.8828,-2.8848,-2.8691,-2.8359,-2.8086,-2.793,-2.7676,-2.7519,-2.7519,-2.7187,-2.709,-2.7266,-2.7591,-2.7806,-2.791,-2.8164,-2.8301,-2.8301,-2.8301,-2.8301,-1.9027,-2.0499,0.0,-2.302,-2.46,0.0,-2.8487,-2.9428,-2.9955,-3.0507,0.0,-3.0884,-3.1311,-3.1322,-3.1555,-3.2389,-3.2216,-3.1903,-3.1802,-3.1773,-3.1578,-3.0995,-3.0773,-3.0742,-3.103,-3.0608,-3.0235,-2.9994,-2.9994,-2.9994,-2.9994,-2.9994,-2.9994,-2.9994,-2.9994,-2.9994,-2.9994,-2.9994,-2.9994,-2.9994,-2.9994,-2.9994,-2.9994,-2.9994,-2.9994,-2.9994,-2.9994,-2.9994,-2.9994,-2.9994,-2.9994,-2.9994,-2.9994,-2.9994,-2.9994,-2.9994,-2.9994,-2.9994,-2.9994,-2.9994,-2.9942,-2.9659,-2.9606,-2.9554,-2.9185,-2.9079,-2.9026,-2.8781,-2.8674,-2.8621,-2.8354,-2.8301,-2.8354,-2.8621,-2.8461,-2.8301,-2.8301,-2.8301,-2.8301,-2.8301,-2.8301,-2.8408,-2.8621,-2.8461,-2.8408,-2.8621,-2.8461,-2.8301,-2.8301,-2.8301,-2.8301,-2.8301,-2.8672,-2.8769,-2.8379,-2.8691,-2.875,-2.8379,-2.832,-2.8301,-2.8301,-2.7539,-2.7324,-2.7767,-2.7767,-2.791,-2.8301,-2.8301,-2.8301,-2.8301,-2.8301,-2.8301,-1.9071,-2.079,0.0,0.0,-2.6561,-2.8448,-2.9402,-2.9704,-2.9955,-3.0507,-3.1286,-3.1763,-3.1461,-3.1947,-3.2129,-3.135,-3.1526,-3.1344,-3.0112,-3.0139,-2.9998,-2.9249,-2.9432,-2.9661,-2.9692,-2.9922,-3.0047,-2.9994,-2.9994,-2.9994,-2.9994,-2.9994,-2.9994,-2.9994,-2.9994,-2.9994,-2.9994,-2.9994,-2.9994,-2.9994,-2.9994,-2.9994,-2.9994,-2.9994,-2.9994,-2.9994,-2.9994,-2.9994,-2.9994,-2.9994,-2.9994,-2.9994,-2.9994,-2.9994,-2.9994,-2.9994,-2.9994,-2.9994,-2.9994,-2.9994,-2.9942,-2.9659,-2.9606,-2.9554,-2.9185,-2.892,-2.8781,-2.8727,-2.8568,-2.8354,-2.8281,-2.8301,-2.8281,-2.8354,-2.8354,-2.8301,-2.8301,-2.8301,-2.8301,-2.8301,-2.8301,-2.8301,-2.8408,-2.8354,-2.8301,-2.8408,-2.8354,-2.8301,-2.8301,-2.8301,-2.8301,-2.8301,-2.8672,-2.8887,-2.8789,-2.8867,-2.8887,-2.8789,-2.8476,-2.8301,-2.8301,-2.8125,-2.8066,-2.8164,-2.8164,-2.8203,-2.8301,-2.8301,-2.8301,-2.8301,-2.8301,-2.8301,-1.8407,0.0,0.0,-2.5943,0.0,-2.9038,-2.9654,-2.9804,-2.988,-3.0156,-3.0884,-3.1512,-3.1738,-3.197,-3.1871,-3.1172,-3.1127,-3.0718,-2.9397,-2.9327,-2.9204,-2.8657,-2.9021,-2.9311,-2.9311,-2.9725,-2.9994,-2.9994,-2.9994,-2.9994,-2.9994,-2.9994,-2.9994,-2.9994,-2.9994,-2.9994,-2.9994,-2.9994,-2.9994,-2.9994,-2.9994,-2.9994,-2.9994,-2.9994,-2.9994,-2.9994,-2.9994,-2.9994,-2.9994,-2.9994,-2.9994,-2.9994,-2.9889,-2.9889,-2.9994,-2.9889,-2.9889,-2.9994,-2.9994,-2.9994,-2.9942,-2.9501,-2.9343,-2.929,-2.8867,-2.8601,-2.8514,-2.8514,-2.8408,-2.8301,-2.8301,-2.8301,-2.8301,-2.8301,-2.8301,-2.8301,-2.8301,-2.8301,-2.8301,-2.8301,-2.8301,-2.8301,-2.8301,-2.8301,-2.8301,-2.8301,-2.8301,-2.8301,-2.8301,-2.8301,-2.8301,-2.8301,-2.8496,-2.8613,-2.8613,-2.8613,-2.8613,-2.8613,-2.8418,-2.8301,-2.8301,-2.8301,-2.8301,-2.8301,-2.8301,-2.8301,-2.8301,-2.8301,-2.8301,-2.8301,-2.8301,-2.8301,-1.7489,0.0,-2.3547,-2.7165,-2.8449,0.0,-2.9654,-2.9804,-2.9804,-2.9804,-3.0231,-3.0884,-3.1763,-3.1638,-3.1241,-3.0914,-3.0466,-2.9775,-2.8628,-2.8528,-2.8481,-2.8255,-2.8731,-2.9063,-2.9063,-2.9559,-2.987,-2.987,-2.9953,-2.9994,-2.9994,-2.9994,-2.9994,-2.9994,-2.9994,-2.9994,-2.9994,-2.9994,-2.9994,-2.9994,-2.9994,-2.9994,-2.9994,-2.9994,-2.9994,-2.9994,-2.9994,-2.9994,-2.9994,-2.9994,-2.9994,-2.9994,-2.9711,-2.9711,-2.9889,-2.9659,-2.9711,-2.9942,-2.9994,-2.9994,-2.9837,-2.929,-2.9079,-2.892,-2.8461,-2.8301,-2.8301,-2.8301,-2.8301,-2.8301,-2.8301,-2.834,-2.8398,-2.8398,-2.8457,-2.8476,-2.832,-2.8301,-2.8301,-2.8301,-2.8301,-2.8301,-2.8301,-2.8301,-2.8301,-2.8301,-2.8301,-2.8301,-2.8301,-2.8301,-2.8301,-2.8301,-2.8301,-2.8301,-2.8301,-2.8301,-2.8301,-2.8301,-2.8301,-2.8301,-2.8301,-2.8301,-2.8301,-2.8301,-2.8301,-2.8301,-2.8301,-2.8359,-2.8398,-2.8398,-2.8476,-2.8516,-1.6975,0.0,-2.4719,0.0,-2.8301,-2.8912,0.0,0.0,-2.9804,0.0,-3.0231,-3.0658,-3.0809,-3.0844,-3.05,-2.925,-2.8625,-2.7855,-2.6508,-2.663,-2.6895,-2.6895,-2.7593,-2.811,-2.811,-2.8897,-2.9394,-2.9394,-2.9766,-2.9994,-2.9994,-2.9994,-2.9994,-2.9994,-2.9994,-2.9994,-2.9994,-2.9994,-2.9994,-2.9994,-2.9994,-2.9994,-2.9994,-2.9994,-2.9994,-2.9994,-2.9994,-2.9994,-2.9994,-2.9994,-2.9994,-2.9994,-2.9711,-2.9606,-2.9659,-2.9606,-2.9606,-2.9659,-2.9942,-2.9837,-2.9606,-2.9237,-2.892,-2.8674,-2.8408,-2.8301,-2.8301,-2.8301,-2.8301,-2.8301,-2.8301,-2.8555,-2.8828,-2.8828,-2.9121,-2.9199,-2.8457,-2.8301,-2.8301,-2.8301,-2.8301,-2.8301,-2.8301,-2.8301,-2.8301,-2.8301,-2.8301,-2.8301,-2.8301,-2.8301,-2.8301,-2.8301,-2.8301,-2.8301,-2.8301,-2.8301,-2.8301,-2.8301,-2.8301,-2.8301,-2.8301,-2.8301,-2.8301,-2.8301,-2.8301,-2.8301,-2.8301,-2.8652,-2.8828,-2.8848,-2.9219,-2.945,-1.7335,-2.0885,-2.4081,0.0,-2.768,-2.866,-2.9176,0.0,-2.9804,-2.9804,-2.9877,-3.0009,-3.0373,-3.026,-2.9849,-2.8994,-2.8462,-2.7744,-2.6459,-2.6564,-2.6718,-2.6604,-2.7593,-2.8317,-2.8317,-2.9145,-2.9684,-2.9684,-2.9891,-2.9994,-2.9994,-2.9994,-2.9994,-2.9994,-2.9994,-2.9994,-2.9994,-2.9994,-2.9994,-2.9994,-2.9994,-2.9994,-2.9994,-2.9994,-2.9994,-2.9994,-2.9994,-2.9994,-2.9994,-2.9994,-2.9994,-2.9942,-2.9501,-2.9448,-2.9554,-2.9237,-2.9185,-2.9343,-2.9448,-2.9396,-2.929,-2.8973,-2.8781,-2.8621,-2.8408,-2.8301,-2.8301,-2.8301,-2.8301,-2.8301,-2.8301,-2.8613,-2.8926,-2.8926,-2.9258,-2.9528,-2.9082,-2.9004,-2.9004,-2.9004,-2.9004,-2.9004,-2.9004,-2.9004,-2.9004,-2.9004,-2.8789,-2.873,-2.8984,-2.8789,-2.873,-2.8984,-2.9004,-2.9004,-2.9004,-2.9004,-2.9004,-2.9004,-2.9004,-2.9004,-2.9004,-2.9004,-2.9004,-2.9004,-2.8535,-2.8398,-2.8652,-2.8828,-2.9043,-2.9297,-2.9473,-2.9626,-1.7334,-2.0155,-2.2634,-2.4837,-2.6505,-2.7729,0.0,0.0,-2.954,0.0,-2.9422,-2.945,-2.9846,-2.96,-2.9155,-2.8598,-2.8245,-2.7626,-2.6561,-2.6568,-2.6592,-2.6273,-2.7324,-2.809,-2.809,-2.8938,-2.9477,-2.9477,-2.958,-2.9642,-2.9642,-2.9642,-2.9642,-2.9642,-2.9642,-2.9642,-2.9642,-2.9766,-2.987,-2.9994,-2.9994,-2.9994,-2.9994,-2.9994,-2.9994,-2.9994,-2.9994,-2.9994,-2.9994,-2.9994,-2.9994,-2.9942,-2.9343,-2.9237,-2.9396,-2.8887,-2.8834,-2.9026,-2.9079,-2.9079,-2.8973,-2.8781,-2.8674,-2.8568,-2.8354,-2.8359,-2.8457,-2.8457,-2.8535,-2.8613,-2.8613,-2.8926,-2.9238,-2.9238,-2.959,-2.9844,-2.9665,-2.9626,-2.9626,-2.9626,-2.9626,-2.9626,-2.9626,-2.9626,-2.9626,-2.9626,-2.9297,-2.9199,-2.9531,-2.9277,-2.9199,-2.9531,-2.9626,-2.9626,-2.9626,-2.9626,-2.9626,-2.9626,-2.9626,-2.9626,-2.9626,-2.9626,-2.9626,-2.9626,-2.8945,-2.8769,-2.9082,-2.9199,-2.9414,-2.9783,-2.9844,-2.9902,-1.6308,-1.8327,-2.0525,-2.2954,-2.442,0.0,0.0,0.0,-2.8787,-2.8938,-2.9057,-2.9052,-2.8919,-2.8706,-2.8267,-2.7353,-2.7254,-2.6926,-2.599,-2.6044,-2.5977,-2.5339,-2.6123,-2.6729,-2.6729,-2.751,-2.8028,-2.8028,-2.8442,-2.869,-2.869,-2.869,-2.869,-2.869,-2.869,-2.869,-2.869,-2.9125,-2.9559,-2.9994,-2.9994,-2.9994,-2.9994,-2.9994,-2.9994,-2.9994,-2.9994,-2.9994,-2.9994,-2.9994,-2.9994,-2.9942,-2.9343,-2.9132,-2.9079,-2.8834,-2.8727,-2.8781,-2.9026,-2.892,-2.8727,-2.8674,-2.8514,-2.8301,-2.8301,-2.8574,-2.8887,-2.8887,-2.918,-2.9512,-2.9512,-2.9805,-3.0137,-3.0137,-3.0488,-3.0586,-2.9746,-2.9626,-2.9626,-2.9626,-2.9626,-2.9626,-2.9626,-2.9626,-2.9626,-2.9626,-2.9551,-2.9551,-2.9626,-2.9551,-2.9551,-2.9626,-2.9626,-2.9626,-2.9626,-2.9626,-2.9626,-2.9626,-2.9626,-2.9626,-2.9626,-2.9626,-2.9626,-2.9626,-2.9587,-2.9567,-2.9531,-2.9941,-3.0137,-3.0176,-3.0625,-3.082,-1.4391,-1.61,0.0,-2.0014,-2.1892,-2.3665,-2.5237,-2.6572,-2.7742,-2.87,-2.8849,-2.8727,-2.8639,-2.8435,-2.8179,-2.7696,-2.729,-2.6775,-2.6133,-2.6022,-2.5826,-2.5277,-2.602,-2.6729,-2.704,-2.7572,-2.7999,-2.8338,-2.8524,-2.8607,-2.8607,-2.8607,-2.8607,-2.8607,-2.8607,-2.8752,-2.9063,-2.9228,-2.9539,-2.9994,-2.9994,-2.9994,-2.9994,-2.9994,-2.9994,-2.9994,-2.9994,-2.9994,-2.9994,-2.9994,-2.9994,-2.9942,-2.9343,-2.9079,-2.9026,-2.8621,-2.8461,-2.8461,-2.8548,-2.8514,-2.8461,-2.8461,-2.8408,-2.8301,-2.8301,-2.8594,-2.8926,-2.8926,-2.9238,-2.9626,-2.9626,-2.9883,-3.0273,-3.0566,-3.0762,-3.0801,-3.0488,-3.041,-3.041,-3.041,-3.041,-3.041,-3.041,-3.041,-3.041,-3.041,-3.0156,-3.0078,-3.0371,-3.0156,-3.0078,-3.0391,-3.041,-3.041,-3.041,-3.041,-3.041,-3.041,-3.041,-3.041,-3.041,-3.041,-3.041,-3.041,-3.041,-3.0273,-2.998,-3.0117,-3.0351,-3.0644,-3.082,-3.0898,-1.2958,-1.4405,0.0,0.0,0.0,-2.1577,-2.3191,0.0,-2.644,-2.7964,-2.8388,-2.8543,-2.8694,-2.8498,-2.8139,-2.7696,-2.729,-2.6775,-2.6133,-2.5892,-2.5592,-2.5049,-2.5668,-2.6248,-2.6558,-2.6972,-2.7365,-2.7676,-2.7841,-2.7924,-2.7924,-2.8069,-2.8152,-2.8152,-2.8152,-2.838,-2.8835,-2.8835,-2.9145,-2.9766,-2.9662,-2.9745,-2.9994,-2.9889,-2.9942,-2.9994,-2.9889,-2.9942,-2.9994,-2.9994,-2.9942,-2.9837,-2.929,-2.9026,-2.892,-2.8441,-2.8301,-2.8301,-2.8301,-2.8301,-2.832,-2.8457,-2.8496,-2.8535,-2.8672,-2.9023,-2.9355,-2.9355,-2.9668,-3.0019,-3.0019,-3.0215,-3.0508,-3.082,-3.0898,-3.0898,-3.0898,-3.0898,-3.0898,-3.0898,-3.0898,-3.0898,-3.0898,-3.0898,-3.0898,-3.0898,-3.0625,-3.0547,-3.0859,-3.0625,-3.0547,-3.0859,-3.0898,-3.0898,-3.0898,-3.0898,-3.0898,-3.0898,-3.0898,-3.0898,-3.0898,-3.0898,-3.0898,-3.0898,-3.0898,-3.0742,-3.043,-3.043,-3.0586,-3.0898,-3.0898,-3.0898,0.0,0.0,0.0,0.0,0.0,0.0,-2.0694,0.0,-2.4781,-2.6579,-2.7619,-2.8418,-2.9008,-2.8752,-2.8195,-2.7244,-2.7121,-2.6835,-2.5902,-2.5589,-2.5253,-2.4593,-2.49,-2.5168,-2.5189,-2.5606,-2.592,-2.5875,-2.6356,-2.6625,-2.6625,-2.7061,-2.7309,-2.7309,-2.7309,-2.7469,-2.7924,-2.7924,-2.838,-2.929,-2.9003,-2.9301,-2.9973,-2.9711,-2.9784,-2.9994,-2.9711,-2.9784,-2.9994,-2.9994,-2.9837,-2.9554,-2.9237,-2.894,-2.8674,-2.8408,-2.8301,-2.8301,-2.8301,-2.8301,-2.8379,-2.8789,-2.8926,-2.9023,-2.9434,-2.9863,-3.0195,-3.0195,-3.0527,-3.0898,-3.0898,-3.0898,-3.0898,-3.0898,-3.0898,-3.0898,-3.0898,-3.0898,-3.0898,-3.0898,-3.0898,-3.0898,-3.0898,-3.0898,-3.0898,-3.0898,-3.0898,-3.0898,-3.0898,-3.0898,-3.0898,-3.0898,-3.0898,-3.0898,-3.0898,-3.0898,-3.0898,-3.0898,-3.0898,-3.0898,-3.0898,-3.0898,-3.0898,-3.0898,-3.0898,-3.0898,-3.0898,-3.0898,-3.0898,-3.0898,-3.0898,-3.0898,-1.1861,0.0,0.0,0.0,0.0,0.0,0.0,0.0,-2.2367,-2.491,-2.6047,-2.7112,-2.8674,-2.8617,-2.8081,-2.7256,-2.6876,-2.6445,-2.5695,-2.5274,-2.4956,-2.455,-2.4611,-2.4817,-2.5148,-2.5292,-2.5544,-2.5854,-2.6356,-2.6625,-2.6625,-2.7061,-2.7309,-2.7309,-2.7309,-2.7469,-2.7924,-2.7924,-2.8214,-2.8814,-2.886,-2.9137,-2.9518,-2.9568,-2.9784,-2.9994,-2.9711,-2.9659,-2.9659,-2.9448,-2.929,-2.9185,-2.894,-2.8781,-2.8674,-2.8408,-2.8301,-2.8301,-2.8301,-2.8496,-2.8769,-2.8887,-2.9141,-2.9414,-2.9531,-2.9863,-3.0195,-3.0195,-3.0527,-3.0898,-3.0898,-3.0898,-3.0898,-3.0898,-3.0898,-3.0898,-3.0898,-3.0898,-3.0898,-3.0898,-3.0898,-3.0898,-3.0898,-3.0898,-3.0898,-3.0898,-3.0898,-3.0898,-3.0898,-3.0898,-3.0898,-3.0898,-3.0898,-3.0898,-3.0898,-3.0898,-3.0898,-3.0898,-3.0898,-3.0898,-3.0898,-3.0898,-3.0898,-3.0898,-3.0898,-3.0898,-3.0898,-3.0898,-3.0898,-3.0898,-3.0898,-3.0898,-1.2525,0.0,0.0,0.0,0.0,0.0,-1.6528,-1.8329,-2.0486,0.0,-2.4414,-2.5664,-2.7392,-2.7287,-2.6788,-2.6168,-2.5666,-2.5286,-2.5126,-2.4871,-2.4658,-2.4507,-2.4507,-2.4611,-2.4879,-2.49,-2.5003,-2.5295,-2.5751,-2.6082,-2.6314,-2.677,-2.7019,-2.7019,-2.7206,-2.7434,-2.7655,-2.7655,-2.7883,-2.8338,-2.8207,-2.8533,-2.9311,-2.9218,-2.9443,-2.9994,-2.9554,-2.9396,-2.9343,-2.892,-2.8814,-2.894,-2.8781,-2.8621,-2.8514,-2.8354,-2.8301,-2.8301,-2.8301,-2.8574,-2.8945,-2.9141,-2.9473,-2.9863,-3.0059,-3.0293,-3.0488,-3.0488,-3.0684,-3.0898,-3.0898,-3.0898,-3.0898,-3.0898,-3.0898,-3.0898,-3.0898,-3.0898,-3.0898,-3.0898,-3.0898,-3.0898,-3.0898,-3.0898,-3.0898,-3.0898,-3.0898,-3.0898,-3.0898,-3.0898,-3.0898,-3.0898,-3.0898,-3.0898,-3.0898,-3.0898,-3.0898,-3.0898,-3.0898,-3.0898,-3.0898,-3.0898,-3.0898,-3.0898,-3.0898,-3.0898,-3.0898,-3.0898,-3.0898,-3.0898,-3.0898,-3.0898,-1.3869,-1.3824,0.0,0.0,-1.4087,0.0,-1.5372,-1.6948,-1.8862,0.0,-2.2472,-2.3812,-2.5276,-2.5092,-2.4637,-2.4346,-2.3882,-2.3738,-2.4345,-2.4425,-2.4445,-2.4487,-2.4507,-2.4507,-2.4507,-2.4507,-2.4507,-2.4507,-2.4921,-2.542,-2.5854,-2.6356,-2.6625,-2.6625,-2.7061,-2.7309,-2.7309,-2.7309,-2.7469,-2.7841,-2.7366,-2.7882,-2.9228,-2.8777,-2.9042,-2.9942,-2.9343,-2.9079,-2.9026,-2.8495,-2.8461,-2.8674,-2.8674,-2.8514,-2.8301,-2.8301,-2.8301,-2.8301,-2.8301,-2.8574,-2.8984,-2.9375,-2.9805,-3.0273,-3.0684,-3.0859,-3.0898,-3.0898,-3.0898,-3.0898,-3.0898,-3.0898,-3.0898,-3.0898,-3.0898,-3.0898,-3.0898,-3.0898,-3.0898,-3.0898,-3.0898,-3.0898,-3.0898,-3.0898,-3.0898,-3.0898,-3.0898,-3.0898,-3.0898,-3.0898,-3.0898,-3.0898,-3.0898,-3.0898,-3.0898,-3.0898,-3.0898,-3.0898,-3.0898,-3.0898,-3.0898,-3.0898,-3.0898,-3.0898,-3.0898,-3.0898,-3.0898,-3.0898,-3.0898,-3.0898,-3.0898,-3.0898,-1.538,-1.5277,-1.5111,-1.4366,0.0,0.0,-1.4073,-1.5113,-1.654,0.0,-1.9376,-2.0711,-2.221,-2.2503,-2.2478,-2.2345,-2.2388,-2.2762,-2.3888,-2.4012,-2.4136,-2.4466,-2.4507,-2.4507,-2.4507,-2.4507,-2.4507,-2.4507,-2.4921,-2.542,-2.5854,-2.6356,-2.6625,-2.6625,-2.7061,-2.7309,-2.7309,-2.7309,-2.7351,-2.7434,-2.7419,-2.7868,-2.8752,-2.8788,-2.9146,-2.9659,-2.929,-2.8973,-2.8727,-2.8461,-2.8354,-2.8408,-2.8408,-2.8354,-2.8301,-2.8301,-2.8301,-2.8301,-2.8301,-2.8574,-2.8926,-2.9023,-2.957,-3.0215,-3.0312,-3.0586,-3.0898,-3.0898,-3.0898,-3.0898,-3.0898,-3.0898,-3.0898,-3.0898,-3.0898,-3.0898,-3.0898,-3.0898,-3.0898,-3.0898,-3.0898,-3.0898,-3.0898,-3.0898,-3.0898,-3.0898,-3.0898,-3.0898,-3.0898,-3.0898,-3.0898,-3.0898,-3.0898,-3.0898,-3.0898,-3.0898,-3.0898,-3.0898,-3.0898,-3.0898,-3.0898,-3.0898,-3.0898,-3.0898,-3.0898,-3.0898,-3.0898,-3.0898,-3.0898,-3.0898,-3.0898,-3.0898,-1.746,-1.7057,-1.6477,-1.5566,0.0,0.0,0.0,-1.4384,-1.5562,-1.7,-1.8118,-1.9305,-2.0831,-2.1041,-2.0962,-2.0862,-2.0978,-2.1295,-2.2022,-2.2749,-2.335,-2.3805,-2.4218,-2.4404,-2.424,-2.4569,-2.4755,-2.4507,-2.4714,-2.4941,-2.5192,-2.5854,-2.6273,-2.6273,-2.6936,-2.7309,-2.7309,-2.7309,-2.7309,-2.7309,-2.7221,-2.7672,-2.8578,-2.8401,-2.8818,-2.9554,-2.9079,-2.8834,-2.8674,-2.8408,-2.8301,-2.8301,-2.8301,-2.8301,-2.8301,-2.8301,-2.8301,-2.8301,-2.8301,-2.8574,-2.8926,-2.8926,-2.9492,-3.0195,-3.0195,-3.0527,-3.0898,-3.0898,-3.0898,-3.0898,-3.0898,-3.0898,-3.0898,-3.0898,-3.0898,-3.0898,-3.0898,-3.0898,-3.0898,-3.0898,-3.0898,-3.0898,-3.0898,-3.0898,-3.0898,-3.0898,-3.0898,-3.0898,-3.0898,-3.0898,-3.0898,-3.0898,-3.0898,-3.0898,-3.0898,-3.0898,-3.0898,-3.0898,-3.0898,-3.0898,-3.0898,-3.0898,-3.0898,-3.0898,-3.0898,-3.0898,-3.0898,-3.0898,-3.0898,-3.0898,-3.0898,-3.0898,0.0,0.0,0.0,0.0,0.0,-1.5028,0.0,0.0,0.0,-1.6568,-1.7477,0.0,0.0,0.0,0.0,-1.9372,0.0,0.0,0.0,-2.0948,0.0,-2.2832,-2.3639,-2.4012,-2.3639,-2.4364,-2.4652,-2.4259,-2.4321,-2.4363,-2.4363,-2.5275,-2.5751,-2.5751,-2.6604,-2.7081,-2.7164,-2.7185,-2.7226,-2.7309,-2.7071,-2.7516,-2.8528,-2.8076,-2.8461,-2.9396,-2.8887,-2.8674,-2.8621,-2.8408,-2.8301,-2.8301,-2.8301,-2.8301,-2.8301,-2.8301,-2.8301,-2.8301,-2.8301,-2.8516,-2.8789,-2.8789,-2.9375,-3.0098,-3.0273,-3.0586,-3.0898,-3.0898,-3.0898,-3.0898,-3.0898,-3.0898,-3.0898,-3.0898,-3.0898,-3.0898,-3.0898,-3.0898,-3.0898,-3.0898,-3.0898,-3.0898,-3.0898,-3.0898,-3.0898,-3.0898,-3.0898,-3.0898,-3.0898,-3.0898,-3.0898,-3.0898,-3.0898,-3.0898,-3.0898,-3.0898,-3.0898,-3.0898,-3.0898,-3.0898,-3.0898,-3.0898,-3.0898,-3.0898,-3.0898,-3.0898,-3.0898,-3.0898,-3.0898,-3.0898,-3.0898,-3.0898,0.0,0.0,0.0,0.0,-1.6891,0.0,0.0,0.0,-1.5648,-1.5814,0.0,0.0,0.0,0.0,0.0,0.0,0.0,0.0,-1.7998,-1.8506,-1.9658,-2.1714,-2.2418,-2.2708,-2.2666,-2.3122,-2.3391,-2.335,-2.3722,-2.395,-2.395,-2.4819,-2.5251,-2.5251,-2.5771,-2.6273,-2.6687,-2.6687,-2.6895,-2.7309,-2.7262,-2.7592,-2.8227,-2.8177,-2.8358,-2.8781,-2.8727,-2.8568,-2.8354,-2.8281,-2.8301,-2.8301,-2.8301,-2.8301,-2.8301,-2.8301,-2.8301,-2.8301,-2.8301,-2.832,-2.8359,-2.8359,-2.8945,-2.9785,-3.0566,-3.0859,-3.0898,-3.0898,-3.0898,-3.0898,-3.0898,-3.0898,-3.0898,-3.0898,-3.0898,-3.0898,-3.0898,-3.0898,-3.0898,-3.0898,-3.0898,-3.0898,-3.0898,-3.0898,-3.0898,-3.0898,-3.0898,-3.0898,-3.0898,-3.0898,-3.0898,-3.0898,-3.0898,-3.0898,-3.0898,-3.0898,-3.0898,-3.0898,-3.0898,-3.0898,-3.0898,-3.0898,-3.0898,-3.0898,-3.0898,-3.0898,-3.0898,-3.0898,-3.0898,-3.0898,-3.0898,-3.0898,0.0,0.0,0.0,0.0,0.0,0.0,-1.5608,0.0,-1.5587,0.0,0.0,0.0,0.0,0.0,0.0,0.0,-1.7606,0.0,0.0,0.0,-1.8547,-2.0038,-2.1093,-2.1901,-2.2439,-2.2418,-2.2377,-2.2377,-2.306,-2.3474,-2.3474,-2.484,-2.5482,-2.5189,-2.5647,-2.6148,-2.6604,-2.6625,-2.6853,-2.7309,-2.7119,-2.7467,-2.8197,-2.7875,-2.8101,-2.8674,-2.8514,-2.8408,-2.8301,-2.8301,-2.8301,-2.8301,-2.8301,-2.8301,-2.8301,-2.8301,-2.8301,-2.8301,-2.8301,-2.8457,-2.873,-2.9238,-2.9648,-3.0059,-3.0703,-3.0898,-3.0898,-3.0898,-3.0898,-3.0898,-3.0898,-3.0898,-3.0898,-3.0898,-3.0898,-3.0898,-3.0898,-3.0898,-3.0898,-3.0898,-3.0898,-3.0898,-3.0898,-3.0898,-3.0898,-3.0898,-3.0898,-3.0898,-3.0898,-3.0898,-3.0898,-3.0898,-3.0898,-3.0898,-3.0898,-3.0898,-3.0898,-3.0898,-3.0898,-3.0898,-3.0898,-3.0898,-3.0898,-3.0898,-3.0898,-3.0898,-3.0898,-3.0898,-3.0898,-3.0898,-3.0898,-3.0898,-2.2894,0.0,0.0,0.0,0.0,0.0,0.0,0.0,0.0,0.0,0.0,0.0,0.0,0.0,0.0,0.0,0.0,-1.748,0.0,-1.6643,0.0,0.0,0.0,-2.0907,-2.1838,-2.1507,-2.13,-2.1424,-2.217,-2.2791,-2.3163,-2.455,-2.5295,-2.5189,-2.542,-2.5792,-2.6418,-2.6418,-2.6682,-2.7167,-2.6996,-2.7272,-2.7975,-2.7602,-2.7823,-2.8568,-2.8408,-2.8301,-2.8301,-2.8301,-2.8301,-2.8301,-2.8301,-2.8301,-2.8301,-2.8301,-2.8301,-2.8301,-2.8301,-2.8574,-2.9062,-2.9922,-3.0195,-3.0293,-3.0762,-3.0898,-3.0898,-3.0898,-3.0898,-3.0898,-3.0898,-3.0898,-3.0898,-3.0898,-3.0898,-3.0898,-3.0898,-3.0898,-3.0898,-3.0898,-3.0898,-3.0898,-3.0898,-3.0898,-3.0898,-3.0898,-3.0898,-3.0898,-3.0898,-3.0898,-3.0898,-3.0898,-3.0898,-3.0898,-3.0898,-3.0898,-3.0937,-3.1055,-3.1172,-3.1191,-3.1074,-3.1055,-3.1016,-3.0898,-3.0898,-3.0898,-3.0898,-3.0898,-3.0898,-3.0898,-3.0898,-3.0898,0.0,-2.217,0.0,-1.943,0.0,0.0,0.0,0.0,-1.8175,0.0,0.0,0.0,0.0,0.0,0.0,0.0,0.0,0.0,0.0,0.0,0.0,0.0,0.0,0.0,-2.0374,-2.0079,-2.0031,-2.0395,-2.087,-2.1776,-2.3122,-2.3701,-2.4343,-2.5168,-2.4776,-2.5006,-2.5896,-2.5896,-2.628,-2.69,-2.69,-2.7057,-2.745,-2.7399,-2.772,-2.8281,-2.8301,-2.8301,-2.8301,-2.8301,-2.8301,-2.8301,-2.8301,-2.8301,-2.8301,-2.8301,-2.8301,-2.8301,-2.8301,-2.8574,-2.9062,-2.9922,-3.0195,-3.0293,-3.0762,-3.0898,-3.0898,-3.0898,-3.0898,-3.0898,-3.0898,-3.0898,-3.0898,-3.0898,-3.0898,-3.0898,-3.0898,-3.0898,-3.0898,-3.0898,-3.0898,-3.0898,-3.0898,-3.0898,-3.0898,-3.0898,-3.0898,-3.0898,-3.0898,-3.0898,-3.0898,-3.0898,-3.0898,-3.0898,-3.0898,-3.0898,-3.1055,-3.1465,-3.1894,-3.1934,-3.1504,-3.1504,-3.1309,-3.0898,-3.0898,-3.0898,-3.0898,-3.0898,-3.0898,-3.0898,-3.0898,-3.0898,-2.4819,-2.3764,-2.2687,-2.1611,-2.0342,-1.9285,0.0,0.0,0.0,0.0,0.0,0.0,0.0,0.0,0.0,0.0,0.0,0.0,0.0,0.0,0.0,0.0,0.0,0.0,0.0,-1.9243,-1.9533,-1.9955,-2.0679,-2.1714,-2.3101,-2.3908,-2.4549,-2.5168,-2.4735,-2.4921,-2.5875,-2.5715,-2.6074,-2.69,-2.6544,-2.6743,-2.7399,-2.7196,-2.7584,-2.8301,-2.8301,-2.8301,-2.8301,-2.8301,-2.8301,-2.8301,-2.8301,-2.8301,-2.832,-2.8613,-2.8711,-2.8789,-2.9355,-2.9648,-2.9863,-3.0469,-3.0644,-3.0684,-3.084,-3.0898,-3.0898,-3.0898,-3.0898,-3.0898,-3.0898,-3.0898,-3.0898,-3.0898,-3.0898,-3.0898,-3.0898,-3.0898,-3.0976,-3.125,-3.1309,-3.1406,-3.168,-3.1738,-3.1543,-3.0976,-3.0898,-3.0898,-3.0898,-3.0898,-3.0898,-3.0898,-3.0898,-3.0898,-3.0898,-3.1152,-3.1367,-3.1504,-3.1934,-3.1973,-3.1543,-3.1523,-3.1328,-3.0898,-3.0898,-3.0898,-3.0898,-3.0898,-3.0898,-3.0898,-3.0898,-3.0898,-2.6227,-2.5275,-2.4364,-2.3453,-2.2211,-2.113,-2.0555,-1.9996,-1.9748,0.0,0.0,0.0,0.0,0.0,0.0,0.0,0.0,0.0,0.0,-1.5442,0.0,0.0,0.0,0.0,0.0,0.0,-1.9056,-1.9513,-2.0369,-2.1549,-2.3101,-2.3743,-2.4383,-2.5168,-2.4735,-2.4921,-2.5875,-2.5624,-2.591,-2.6757,-2.6443,-2.6656,-2.7266,-2.727,-2.7637,-2.8301,-2.8301,-2.8301,-2.8301,-2.8301,-2.8301,-2.8301,-2.8301,-2.8379,-2.8555,-2.8809,-2.9023,-2.9258,-2.9961,-3.0195,-3.0273,-3.0742,-3.0898,-3.0898,-3.0898,-3.0898,-3.0898,-3.0898,-3.0898,-3.0898,-3.0898,-3.0898,-3.0898,-3.0898,-3.0898,-3.0898,-3.0898,-3.0898,-3.1016,-3.1445,-3.1523,-3.166,-3.209,-3.2229,-3.1992,-3.1426,-3.1348,-3.1348,-3.1348,-3.1348,-3.1348,-3.1348,-3.1348,-3.1348,-3.1348,-3.1738,-3.1973,-3.1973,-3.2383,-3.2422,-3.1992,-3.1973,-3.1777,-3.1348,-3.1348,-3.1348,-3.1348,-3.1348,-3.1269,-3.1113,-3.1113,-3.1035]},{"header":{"parameterUnit":"m.s-1","parameterCategory":1,"la1":30.6,"la2":29.2853,"lo1":-89.7004,"lo2":-87.6739,"dy":0.0162,"dx":0.0183,"nx":112,"ny":82,"refTime":"2026-05-14T12:00:00:Z","depth":0,"parameterNumber":3,"parameterNumberName":"V-component_of_WINDS"},"data":[0.0,0.0,0.0,0.0,0.0,0.0,0.0,0.0,0.0,0.0,0.0,0.0,0.0,0.0,0.0,0.0,0.0,0.0,0.0,0.0,0.0,0.0,0.0,0.0,0.0,0.0,0.0,0.0,0.0,0.0,0.0,0.0,0.0,0.0,0.0,0.0,0.0,0.0,0.0,0.0,0.0,0.0,0.0,0.0,0.0,0.0,0.0,0.0,0.0,0.0,0.0,0.0,0.0,0.0,0.0,0.0,0.0,0.0,0.0,0.0,0.0,0.0,0.0,0.0,0.0,0.0,0.0,0.0,0.0,0.0,0.0,0.0,0.0,0.0,0.0,0.0,0.0,0.0,0.0,0.0,0.0,0.0,0.0,0.0,0.0,0.0,0.0,0.0,0.0,0.0,0.0,2.5981,2.9228,3.0954,3.0311,2.8872,2.7148,2.5137,0.0,0.0,0.0,0.0,0.0,0.0,0.0,0.0,0.0,0.0,0.0,0.0,0.0,0.0,0.0,0.0,0.0,0.0,0.0,0.0,0.0,0.0,0.0,0.0,0.0,0.0,0.0,0.0,0.0,0.0,0.0,0.0,0.0,0.0,0.0,0.0,0.0,0.0,0.0,0.0,0.0,0.0,0.0,0.0,0.0,0.0,0.0,0.0,0.0,0.0,0.0,0.0,0.0,0.0,0.0,0.0,0.0,0.0,0.0,0.0,0.0,0.0,0.0,0.0,0.0,0.0,0.0,0.0,0.0,0.0,0.0,0.0,0.0,0.0,0.0,0.0,0.0,0.0,0.0,0.0,0.0,0.0,0.0,0.0,0.0,0.0,0.0,0.0,0.0,0.0,0.0,0.0,0.0,0.0,0.0,0.0,0.0,0.0,0.0,0.0,0.0,0.0,0.0,0.0,2.5388,2.9025,3.048,3.1157,3.1021,2.9668,2.8165,2.657,0.0,0.0,0.0,0.0,0.0,0.0,0.0,0.0,0.0,0.0,0.0,0.0,0.0,0.0,0.0,0.0,0.0,0.0,0.0,0.0,0.0,0.0,0.0,0.0,0.0,0.0,0.0,0.0,0.0,0.0,0.0,0.0,0.0,0.0,0.0,0.0,0.0,0.0,0.0,0.0,0.0,0.0,0.0,0.0,0.0,0.0,0.0,0.0,0.0,0.0,0.0,0.0,0.0,0.0,0.0,0.0,0.0,0.0,0.0,0.0,0.0,0.0,0.0,0.0,0.0,0.0,0.0,0.0,0.0,0.0,0.0,0.0,0.0,0.0,0.0,0.0,0.0,0.0,0.0,0.0,0.0,0.0,0.0,0.0,0.0,0.0,0.0,0.0,0.0,0.0,0.0,0.0,0.0,0.0,0.0,0.0,0.0,0.0,0.0,0.0,0.0,0.0,0.0,2.4255,2.7266,2.9837,3.0751,3.1021,3.0649,2.9228,2.7589,2.5768,2.2651,0.0,0.0,0.0,0.0,0.0,0.0,0.0,0.0,0.0,0.0,0.0,0.0,0.0,0.0,0.0,0.0,0.0,0.0,0.0,0.0,0.0,0.0,0.0,0.0,0.0,0.0,0.0,0.0,0.0,0.0,0.0,0.0,0.0,0.0,0.0,0.0,0.0,0.0,0.0,0.0,0.0,0.0,0.0,0.0,0.0,0.0,0.0,0.0,0.0,0.0,0.0,0.0,0.0,0.0,0.0,0.0,0.0,0.0,0.0,0.0,0.0,0.0,0.0,0.0,0.0,0.0,0.0,0.0,0.0,0.0,0.0,0.0,0.0,0.0,0.0,0.0,0.0,0.0,0.0,0.0,0.0,0.0,0.0,0.0,0.0,0.0,0.0,0.0,0.0,0.0,0.0,0.0,0.0,0.0,0.0,0.0,0.0,0.0,0.0,0.0,0.0,0.0,2.6962,2.8872,3.0209,3.0852,3.0886,3.0176,2.8534,2.6725,2.4796,2.1755,0.0,0.0,0.0,0.0,0.0,0.0,0.0,0.0,0.0,0.0,0.0,0.0,0.0,0.0,0.0,0.0,0.0,0.0,0.0,0.0,0.0,0.0,0.0,0.0,0.0,0.0,0.0,0.0,0.0,0.0,0.0,0.0,0.0,0.0,0.0,0.0,0.0,0.0,0.0,0.0,0.0,0.0,0.0,0.0,0.0,0.0,0.0,0.0,0.0,0.0,0.0,0.0,0.0,0.0,0.0,0.0,0.0,0.0,0.0,0.0,0.0,0.0,0.0,0.0,0.0,0.0,0.0,0.0,0.0,0.0,0.0,0.0,0.0,0.0,0.0,0.0,0.0,0.0,0.0,0.0,0.0,0.0,0.0,0.0,0.0,0.0,0.0,0.0,0.0,0.0,0.0,0.0,0.0,0.0,0.0,0.0,0.0,0.0,0.0,0.0,0.0,0.0,2.8518,3.0243,3.1021,3.1157,3.0886,3.0176,2.8044,2.6149,2.4686,2.1263,0.0,0.0,0.0,0.0,0.0,0.0,0.0,0.0,0.0,0.0,0.0,0.0,0.0,0.0,0.0,0.0,0.0,0.0,0.0,0.0,0.0,0.0,0.0,0.0,0.0,0.0,0.0,0.0,0.0,0.0,0.0,0.0,0.0,0.0,0.0,0.0,0.0,0.0,0.0,0.0,0.0,0.0,0.0,0.0,0.0,0.0,0.0,0.0,0.0,0.0,0.0,0.0,0.0,0.0,0.0,0.0,0.0,0.0,0.0,0.0,0.0,0.0,0.0,0.0,0.0,0.0,0.0,0.0,0.0,0.0,0.0,0.0,0.0,0.0,0.0,0.0,0.0,0.0,0.0,0.0,0.0,0.0,0.0,0.0,0.0,0.0,0.0,0.0,0.0,0.0,0.0,0.0,0.0,0.0,0.0,0.0,0.0,0.0,0.0,0.0,0.0,0.0,2.9093,3.0886,0.0,3.1616,3.121,2.9533,2.7757,2.5725,2.3386,0.0,0.0,0.0,0.0,0.0,0.0,0.0,0.0,0.0,0.0,0.0,0.0,0.0,0.0,0.0,0.0,0.0,0.0,0.0,0.0,0.0,0.0,0.0,0.0,0.0,0.0,0.0,0.0,0.0,0.0,0.0,0.0,0.0,0.0,0.0,0.0,0.0,0.0,0.0,0.0,0.0,0.0,0.0,0.0,0.0,0.0,0.0,0.0,0.0,0.0,0.0,0.0,0.0,0.0,0.0,0.0,0.0,0.0,0.0,0.0,0.0,0.0,0.0,0.0,0.0,0.0,0.0,0.0,0.0,0.0,0.0,0.0,0.0,0.0,0.0,0.0,0.0,0.0,0.0,0.0,0.0,0.0,0.0,0.0,0.0,0.0,0.0,0.0,0.0,0.0,0.0,0.0,0.0,0.0,0.0,0.0,0.0,0.0,0.0,0.0,0.0,0.0,2.6268,2.9551,3.1481,0.0,3.1853,3.1515,2.9517,2.7706,2.5657,2.3249,0.0,0.0,0.0,0.0,0.0,0.0,0.0,0.0,0.0,0.0,0.0,0.0,0.0,0.0,0.0,0.0,0.0,0.0,0.0,0.0,0.0,0.0,0.0,0.0,0.0,0.0,0.0,0.0,0.0,0.0,0.0,0.0,0.0,0.0,0.0,0.0,0.0,0.0,0.0,0.0,0.0,0.0,0.0,0.0,0.0,0.0,0.0,0.0,0.0,0.0,0.0,0.0,0.0,0.0,0.0,0.0,0.0,0.0,0.0,0.0,0.0,0.0,0.0,0.0,0.0,0.0,0.0,0.0,0.0,0.0,0.0,0.0,0.0,0.0,0.0,0.0,0.0,0.0,0.0,0.0,0.0,0.0,0.0,0.0,0.0,0.0,0.0,0.0,0.0,0.0,0.0,0.0,0.0,0.0,0.0,0.0,0.0,0.0,0.0,0.0,0.0,0.0,2.6319,2.9991,3.2022,3.1258,3.1887,3.1718,3.0243,2.801,2.6115,0.0,0.0,0.0,0.0,0.0,0.0,0.0,0.0,0.0,0.0,0.0,0.0,0.0,0.0,0.0,0.0,0.0,0.0,0.0,0.0,0.0,0.0,0.0,0.0,0.0,0.0,0.0,0.0,0.0,0.0,0.0,0.0,0.0,0.0,0.0,0.0,0.0,0.0,0.0,0.0,0.0,0.0,0.0,0.0,0.0,0.0,0.0,0.0,0.0,0.0,0.0,0.0,0.0,0.0,0.0,0.0,0.0,0.0,0.0,0.0,0.0,0.0,0.0,0.0,0.0,0.0,0.0,0.0,0.0,0.0,0.0,0.0,0.0,0.0,0.0,0.0,0.0,0.0,0.0,0.0,0.0,0.0,0.0,0.0,0.0,0.0,0.0,0.0,0.0,0.0,0.0,0.0,0.0,0.0,0.0,0.0,0.0,0.0,0.0,0.0,0.0,0.0,0.0,2.6319,3.0412,3.2577,3.1326,3.2341,3.2273,3.0258,2.8466,2.664,2.4705,0.0,0.0,0.0,0.0,0.0,0.0,0.0,0.0,0.0,0.0,0.0,0.0,0.0,0.0,0.0,0.0,0.0,0.0,0.0,0.0,0.0,0.0,0.0,0.0,0.0,0.0,0.0,0.0,0.0,0.0,0.0,0.0,0.0,0.0,0.0,0.0,0.0,0.0,0.0,0.0,0.0,0.0,0.0,0.0,0.0,0.0,0.0,0.0,0.0,0.0,0.0,0.0,0.0,0.0,0.0,0.0,0.0,0.0,0.0,0.0,0.0,0.0,0.0,0.0,0.0,0.0,0.0,0.0,0.0,0.0,0.0,0.0,0.0,0.0,0.0,0.0,0.0,0.0,0.0,0.0,0.0,0.0,0.0,0.0,0.0,0.0,0.0,0.0,0.0,0.0,0.0,0.0,0.0,0.0,0.0,0.0,0.0,0.0,0.0,0.0,0.0,0.0,2.6319,3.0615,3.2949,3.1765,3.2713,3.2747,3.1123,2.933,2.7486,2.5555,0.0,0.0,0.0,0.0,0.0,0.0,0.0,0.0,0.0,0.0,0.0,0.0,0.0,0.0,0.0,0.0,0.0,0.0,0.0,0.0,0.0,0.0,0.0,0.0,0.0,0.0,0.0,0.0,0.0,0.0,0.0,0.0,0.0,0.0,0.0,0.0,0.0,0.0,0.0,0.0,0.0,0.0,0.0,0.0,0.0,0.0,0.0,0.0,0.0,0.0,0.0,0.0,0.0,0.0,0.0,0.0,0.0,0.0,0.0,0.0,0.0,0.0,0.0,0.0,0.0,0.0,0.0,0.0,0.0,0.0,0.0,0.0,0.0,0.0,0.0,0.0,0.0,0.0,0.0,0.0,0.0,0.0,0.0,0.0,0.0,0.0,0.0,0.0,0.0,0.0,0.0,0.0,0.0,0.0,0.0,0.0,0.0,0.0,0.0,0.0,0.0,0.0,2.6319,3.0615,3.3119,3.2395,3.2949,3.3085,3.2361,3.033,2.84,2.6793,0.0,0.0,0.0,0.0,0.0,0.0,0.0,0.0,0.0,0.0,0.0,0.0,0.0,0.0,0.0,0.0,0.0,0.0,0.0,0.0,0.0,0.0,0.0,0.0,0.0,0.0,0.0,0.0,0.0,0.0,0.0,0.0,0.0,0.0,0.0,0.0,0.0,0.0,0.0,0.0,0.0,0.0,0.0,0.0,0.0,0.0,0.0,0.0,0.0,0.0,0.0,0.0,0.0,0.0,0.0,0.0,0.0,0.0,0.0,0.0,2.6236,2.559,0.0,0.0,0.0,0.0,0.0,0.0,0.0,0.0,0.0,0.0,0.0,0.0,0.0,0.0,0.0,0.0,0.0,0.0,0.0,0.0,0.0,0.0,0.0,0.0,0.0,0.0,0.0,0.0,0.0,0.0,0.0,0.0,0.0,0.0,0.0,0.0,0.0,0.0,0.0,0.0,2.6387,3.0615,3.3119,3.2395,3.2949,3.3085,3.2361,3.0784,2.8958,2.6826,2.4323,0.0,0.0,0.0,0.0,0.0,0.0,0.0,0.0,0.0,0.0,0.0,0.0,0.0,0.0,0.0,0.0,0.0,0.0,0.0,0.0,0.0,0.0,0.0,0.0,0.0,0.0,0.0,0.0,0.0,0.0,0.0,0.0,0.0,0.0,0.0,0.0,0.0,0.0,0.0,0.0,0.0,0.0,0.0,0.0,0.0,0.0,0.0,0.0,0.0,0.0,0.0,0.0,0.0,0.0,0.0,0.0,0.0,0.0,0.0,2.9529,2.8271,0.0,0.0,0.0,0.0,0.0,0.0,0.0,0.0,0.0,0.0,0.0,0.0,0.0,0.0,0.0,0.0,0.0,0.0,0.0,0.0,0.0,0.0,0.0,0.0,0.0,0.0,0.0,0.0,0.0,0.0,0.0,0.0,0.0,0.0,0.0,0.0,0.0,0.0,0.0,0.0,2.7419,3.1089,3.3389,3.3376,3.3389,3.3254,3.2848,3.1157,2.9296,2.7368,2.5135,0.0,0.0,0.0,0.0,0.0,0.0,0.0,0.0,0.0,0.0,0.0,0.0,0.0,0.0,0.0,0.0,0.0,0.0,0.0,0.0,0.0,0.0,0.0,0.0,0.0,0.0,0.0,0.0,0.0,0.0,0.0,0.0,0.0,0.0,0.0,0.0,0.0,0.0,0.0,0.0,0.0,0.0,0.0,0.0,0.0,0.0,0.0,0.0,0.0,0.0,0.0,0.0,0.0,3.3571,3.4575,3.5843,3.5976,3.6307,3.6605,3.3667,3.2045,3.1383,3.0522,0.0,0.0,0.0,0.0,0.0,0.0,0.0,0.0,0.0,0.0,0.0,0.0,0.0,0.0,0.0,0.0,0.0,0.0,0.0,0.0,0.0,0.0,3.142,3.0764,3.0185,2.9114,2.6708,0.0,0.0,0.0,0.0,0.0,0.0,0.0,0.0,0.0,0.0,0.0,2.8739,3.1664,3.3694,3.4404,3.3964,3.3558,3.3423,3.163,2.9803,2.8094,2.615,2.4305,0.0,0.0,0.0,0.0,0.0,0.0,0.0,0.0,0.0,0.0,0.0,0.0,0.0,0.0,0.0,0.0,0.0,0.0,0.0,0.0,0.0,0.0,0.0,0.0,0.0,0.0,0.0,0.0,0.0,0.0,0.0,0.0,2.0139,2.027,0.0,0.0,0.0,0.0,0.0,0.0,0.0,0.0,0.0,0.0,0.0,0.0,0.0,3.1441,3.2609,3.4322,3.5791,3.7026,3.7965,3.8884,3.9713,4.0282,4.0282,3.9846,3.9918,0.0,3.5181,3.3789,0.0,0.0,0.0,0.0,0.0,0.0,0.0,0.0,0.0,0.0,0.0,0.0,0.0,0.0,0.0,0.0,0.0,0.0,0.0,0.0,0.0,0.0,3.4431,3.3729,3.3582,3.3446,3.3097,3.0572,2.813,2.7249,2.637,2.5338,0.0,0.0,0.0,0.0,0.0,0.0,2.9567,3.1968,3.3694,3.4404,3.4404,3.41,3.3457,3.2544,3.1108,2.8976,2.7909,2.6133,2.3376,2.2361,0.0,0.0,0.0,0.0,0.0,0.0,0.0,0.0,0.0,0.0,0.0,0.0,0.0,0.0,0.0,0.0,0.0,0.0,0.0,0.0,0.0,0.0,0.0,0.0,0.0,0.0,0.0,0.0,0.0,2.0092,2.1934,2.2293,2.29,2.305,0.0,0.0,0.0,0.0,0.0,0.0,0.0,0.0,0.0,3.1178,3.3264,3.4916,3.6067,3.8547,4.0277,4.1318,4.2026,4.273,4.3429,4.3727,4.3694,4.3429,4.3761,4.2502,4.0056,3.74,3.5413,3.3889,0.0,0.0,0.0,0.0,3.1404,3.1792,3.2655,3.3033,3.3168,3.347,0.0,0.0,0.0,0.0,0.0,0.0,0.0,3.1632,3.2796,3.4692,3.6213,3.5961,3.5632,3.5402,3.5507,3.3982,3.2158,3.063,2.9059,2.7638,2.6556,2.4526,0.0,0.0,0.0,2.8416,3.1007,3.2916,3.4303,3.5047,3.4742,3.4201,3.3457,3.2713,3.1549,2.9736,2.889,2.7503,2.5338,2.4154,2.2573,0.0,0.0,0.0,0.0,0.0,0.0,0.0,0.0,0.0,0.0,0.0,0.0,0.0,0.0,0.0,0.0,0.0,0.0,0.0,0.0,0.0,0.0,0.0,0.0,0.0,0.0,0.0,0.0,2.2305,2.3871,2.4298,2.5106,2.5352,0.0,0.0,0.0,0.0,0.0,0.0,3.0171,3.0928,3.2262,3.4332,3.6291,3.7933,3.9251,4.1853,4.3522,4.4361,4.4966,4.5549,4.6079,4.6278,4.6245,4.6079,4.6079,4.5351,4.3926,4.0619,3.846,3.697,3.5512,3.4717,3.4442,3.4958,3.5214,3.5504,3.6334,3.6959,3.746,3.7661,3.685,3.5389,3.3262,0.0,0.0,0.0,0.0,3.419,3.5413,3.6704,3.7691,3.7793,3.7278,3.6819,3.6956,3.6448,3.5363,3.3288,3.1379,2.9871,2.9093,2.7266,0.0,0.0,0.0,3.0364,3.2598,3.3816,3.4776,3.5532,3.5115,3.4404,3.3491,3.2882,3.1935,3.048,2.9668,2.8586,2.7063,2.576,2.4233,2.2425,0.0,0.0,0.0,0.0,0.0,0.0,0.0,0.0,0.0,0.0,0.0,0.0,0.0,0.0,0.0,0.0,0.0,0.0,0.0,0.0,0.0,0.0,0.0,0.0,0.0,0.0,0.0,0.0,0.0,2.6452,2.759,0.0,0.0,0.0,0.0,2.9452,3.0827,3.2213,3.3576,3.4304,3.5671,3.7844,3.8739,4.0225,4.2444,4.3776,4.4691,4.5242,4.6285,4.6808,4.6874,4.757,4.7504,4.6841,4.6841,4.6411,4.5516,4.323,4.1442,4.0044,3.856,3.8394,3.8884,3.8351,3.8569,3.9268,4.0107,4.0461,4.0595,4.1358,3.9711,3.7075,3.5418,3.442,0.0,0.0,3.5937,3.7211,3.7857,3.8593,3.9183,3.9183,3.8724,3.8294,3.8294,3.7928,3.6969,3.4788,3.3728,3.2949,3.2192,0.0,3.0311,3.1819,3.1481,3.1867,3.41,3.4438,3.4776,3.5532,3.5566,3.4957,3.3525,3.3389,3.2713,3.1224,3.0446,2.9345,2.7824,2.6996,2.5268,2.2459,2.2276,0.0,0.0,0.0,0.0,0.0,0.0,0.0,0.0,0.0,0.0,0.0,0.0,0.0,0.0,0.0,0.0,0.0,0.0,0.0,0.0,0.0,0.0,0.0,0.0,0.0,0.0,0.0,0.0,2.9597,3.0582,0.0,3.136,3.1001,3.1329,3.2736,3.4087,3.5441,3.6733,3.7811,3.9058,4.0419,4.1454,4.2509,4.3576,4.5149,4.615,4.6485,4.7243,4.7603,4.7636,4.7868,4.7868,4.7603,4.7603,4.7173,4.6444,4.5649,4.4489,4.3094,4.2071,4.1844,4.2038,4.183,4.1896,4.2095,4.192,4.2152,4.2518,4.2347,4.0951,3.9282,3.8698,3.7701,3.692,3.7601,3.8505,3.9335,3.958,4.0117,4.0547,4.0111,3.9839,3.9428,3.8602,3.8245,3.7836,3.6777,3.5622,3.4721,3.4472,3.322,3.2408,3.2916,3.3186,3.3592,3.4404,3.4912,3.5318,3.5566,3.56,3.5194,3.4201,3.366,3.2983,3.1989,3.0784,2.9634,2.8619,2.7841,2.6488,2.4489,2.3977,2.2841,0.0,0.0,0.0,0.0,0.0,0.0,0.0,0.0,0.0,0.0,0.0,0.0,0.0,0.0,0.0,0.0,0.0,0.0,0.0,0.0,0.0,0.0,0.0,0.0,0.0,2.8175,3.0492,3.1989,3.3185,3.3933,3.4143,3.3993,3.4292,3.54,3.6716,3.7943,3.902,4.0127,4.1138,4.2093,4.2975,4.3803,4.4673,4.6045,4.6896,4.7236,4.7737,4.8001,4.8001,4.8001,4.8001,4.8001,4.8001,4.7736,4.7272,4.7272,4.6709,4.5715,4.4754,4.4357,4.4357,4.4357,4.4357,4.4291,4.3794,4.3794,4.3893,4.3396,4.2299,4.1194,4.1194,4.0358,3.9588,4.0259,4.0796,4.1227,4.1437,4.164,4.1674,4.121,4.0774,4.0171,3.9256,3.8909,3.8687,3.8363,3.7225,3.6331,3.6377,3.5351,3.4539,3.4539,3.4742,3.4878,3.4878,3.5295,3.56,3.56,3.56,3.5194,3.4201,3.3694,3.2983,3.1989,3.0784,2.977,2.9044,2.8247,2.7114,2.5626,2.4452,2.3414,2.2588,0.0,0.0,0.0,0.0,0.0,0.0,0.0,0.0,0.0,0.0,0.0,0.0,0.0,0.0,0.0,0.0,0.0,0.0,0.0,0.0,0.0,0.0,0.0,2.769,3.052,3.2826,3.3514,3.534,3.6297,3.5699,3.6237,3.6866,3.7464,3.8751,3.9798,4.0427,4.1085,4.1934,4.3016,4.3243,4.4118,4.576,4.6337,4.6927,4.747,4.7836,4.8001,4.8034,4.8034,4.8067,4.8067,4.8034,4.8034,4.8034,4.8001,4.8001,4.7868,4.6411,4.5847,4.5847,4.5847,4.5847,4.5814,4.5814,4.5351,4.4721,4.4721,4.3879,4.277,4.277,4.2417,4.21,4.2594,4.2737,4.2874,4.3459,4.3069,4.2506,4.2506,4.1475,4.0475,4.0409,3.9927,3.9534,3.9501,3.8539,3.7788,3.7932,3.7313,3.6829,3.6795,3.6129,0.0,3.56,3.56,3.56,3.56,3.56,3.4991,3.3558,3.3423,3.278,3.1292,3.048,2.9736,2.8976,2.818,2.708,2.566,2.3643,2.2691,2.2859,0.0,0.0,0.0,0.0,0.0,0.0,0.0,0.0,0.0,0.0,0.0,0.0,0.0,0.0,0.0,0.0,0.0,0.0,0.0,0.0,0.0,2.8333,2.9505,2.9711,3.2167,3.4352,3.5519,3.6956,3.8003,3.8302,3.8931,3.9409,3.9559,4.0816,4.1662,4.1841,4.2432,4.2998,4.3482,4.3953,4.4545,4.529,4.6269,4.6896,4.7202,4.7737,4.8299,4.8796,4.8796,4.9094,4.9591,4.9028,4.8796,4.8763,4.8233,4.8001,4.7968,4.7537,4.7404,4.7404,4.7404,4.7073,4.6609,4.6609,4.6113,4.5483,4.5483,4.5249,4.4848,4.4318,4.4049,4.3846,4.3455,4.3326,4.3393,4.3562,4.3433,4.3168,4.2605,4.2204,4.164,4.0641,4.0271,4.0026,3.9575,3.922,3.8915,3.8605,3.8019,3.7415,3.6897,3.6626,3.6265,3.5667,3.56,3.56,3.56,3.56,3.5228,3.4269,3.3728,3.278,3.1292,3.0025,2.8958,2.8162,2.7402,2.6826,2.642,2.5349,2.4652,0.0,0.0,0.0,0.0,0.0,0.0,0.0,0.0,0.0,0.0,0.0,0.0,0.0,0.0,0.0,0.0,0.0,0.0,0.0,0.0,0.0,0.0,3.0981,3.2258,3.2557,3.4173,3.5821,3.7135,3.8182,3.908,3.9768,4.0187,4.0636,4.1175,4.1961,4.253,4.2761,4.312,4.3448,4.3793,4.4228,4.473,4.54,4.6269,4.686,4.7134,4.7866,4.843,4.8858,4.9155,4.9585,5.0017,4.9391,4.9094,4.9061,4.8299,4.8001,4.8001,0.0,0.0,0.0,0.0,4.7736,4.7371,4.7371,4.6874,4.6245,4.6245,4.6046,4.5715,4.5284,4.4953,4.4589,4.4191,4.383,4.3598,4.3598,4.3598,4.3499,4.3069,4.2704,4.2303,4.1442,4.0812,4.0304,3.9954,3.9674,0.0,3.9142,3.8647,3.8154,3.7787,3.7202,3.6626,3.6163,3.5825,3.56,3.56,3.56,3.5295,3.4539,3.3829,0.0,0.0,0.0,2.9093,2.8349,2.7875,0.0,0.0,0.0,0.0,0.0,0.0,0.0,0.0,2.399,2.4626,0.0,0.0,0.0,0.0,0.0,0.0,0.0,0.0,0.0,0.0,0.0,0.0,0.0,0.0,0.0,0.0,3.3365,3.4923,3.5699,3.6327,3.7105,3.8272,3.899,3.9679,4.0337,4.0457,4.1025,4.2291,4.247,4.2731,4.326,4.329,0.0,0.0,0.0,4.4761,4.5724,4.6301,4.6856,4.7263,4.8052,4.8513,4.8644,4.9333,4.9798,5.0039,4.9489,4.9226,4.916,4.8332,4.8001,4.8001,4.8001,4.8001,4.8001,4.8001,4.8001,4.8001,4.8001,0.0,0.0,4.7007,4.6576,4.6013,4.5947,4.545,4.4887,4.4721,4.4224,4.3698,4.3598,4.3598,4.3598,4.3598,4.3102,4.2605,4.2506,4.1442,4.0509,4.0409,3.9893,3.9475,3.9501,3.9201,3.8933,3.8956,3.7821,3.6897,3.6829,3.6096,3.56,3.56,3.56,0.0,3.4539,3.3897,3.3186,3.2361,3.092,2.9803,2.9145,2.9044,2.901,2.901,2.842,2.8185,2.8305,2.7857,2.7807,2.8161,2.6854,2.7205,0.0,0.0,0.0,0.0,0.0,0.0,0.0,0.0,0.0,0.0,0.0,0.0,0.0,0.0,0.0,3.3964,3.4906,3.5908,3.7584,3.7943,3.8123,3.8362,3.899,3.9679,4.0337,4.0876,4.1542,4.2351,4.2851,4.317,4.329,4.329,4.3409,4.3754,4.4228,4.4699,4.5221,4.6269,4.7015,4.7523,4.7796,0.0,4.9466,4.9775,5.0384,5.1059,5.0309,4.9988,4.9889,4.8564,4.8001,4.8001,4.8001,4.8001,4.8001,4.8001,4.8001,4.8001,4.8001,4.7901,4.7802,4.7802,4.7703,4.7471,4.6874,4.6576,0.0,4.5019,4.4589,4.4357,4.3731,4.3598,4.3598,4.3598,4.3499,4.3201,4.2605,4.1839,4.1044,4.0509,3.9839,3.9395,3.9475,3.9603,3.948,3.8933,3.8188,3.7483,3.6897,3.6096,3.56,3.56,3.56,3.5295,3.4539,3.437,3.3728,3.2395,3.092,3.004,2.9905,2.9314,2.901,2.901,2.8892,2.9096,2.9705,2.9665,3.0395,3.1822,2.9558,2.9396,0.0,0.0,0.0,0.0,0.0,0.0,0.0,0.0,0.0,0.0,0.0,3.0141,3.1606,0.0,3.4356,3.5764,3.6562,3.7285,3.8242,3.8691,3.8901,3.8901,3.92,3.9798,4.0786,4.1175,4.1773,4.2791,4.3449,4.3798,4.3798,4.4137,4.4398,4.464,4.5008,4.5448,4.6019,4.685,4.7444,4.7717,4.811,4.8621,4.9285,4.9941,5.0596,5.1225,5.09,5.0551,5.0088,4.863,4.8001,4.8001,4.8001,4.8001,4.8001,4.8001,4.8001,4.8001,4.8001,4.8001,4.8001,4.8001,4.8001,4.7934,4.757,4.7206,4.6676,4.5549,4.4953,4.4522,4.3764,4.3598,4.3598,4.3598,4.3598,4.3499,4.3135,4.2175,4.1309,4.0978,4.0044,3.9342,3.9395,3.958,3.9629,3.9387,3.8789,3.8121,3.7449,3.6671,3.6062,3.5633,3.56,3.543,3.5081,3.4709,3.4032,3.2916,3.2171,3.1765,3.1765,3.1393,3.119,3.119,3.119,3.1393,3.1765,3.1831,3.2363,3.3265,3.2067,3.2039,0.0,0.0,0.0,0.0,0.0,0.0,0.0,0.0,2.71,2.9166,3.1032,3.2683,3.4034,3.5431,3.6528,3.7152,3.791,3.8452,3.8571,3.908,3.9373,3.9373,3.9373,3.9948,4.1265,4.1422,4.1923,4.32,4.3917,4.4317,4.4317,4.4945,4.5357,4.5522,4.5686,4.6052,4.6612,4.7239,4.7572,4.769,4.8294,4.8608,4.8812,4.9857,5.0576,5.0995,5.1224,5.0783,4.9922,4.8696,4.8133,4.8001,4.8001,4.8001,4.8001,4.8001,4.8001,4.8001,4.8001,4.8001,4.8001,4.8001,4.8001,4.8001,4.8001,4.7603,4.6974,4.6212,4.5483,4.4721,4.4026,4.3698,4.3598,4.3598,4.3598,4.3598,4.3598,4.2539,4.1546,4.1413,4.0382,3.9481,3.9315,3.9395,3.9554,3.9815,3.9228,3.863,3.8121,3.7347,3.6535,3.5926,3.5701,3.56,3.56,3.5047,3.4472,3.3863,3.3694,3.3626,3.3626,3.3491,3.3423,3.3423,3.3423,3.3491,3.3626,3.371,3.3883,3.4082,3.4199,3.4401,2.3979,2.5002,2.6606,2.7915,2.8243,2.8475,0.0,0.0,3.0334,3.2361,3.3433,3.4571,3.6379,3.6768,3.7182,3.8314,3.8442,3.8601,3.92,3.9343,3.9373,3.9373,3.9373,3.9948,4.1265,4.1422,4.1923,4.32,4.3917,4.4317,4.4317,4.4945,4.5304,4.5346,4.5387,4.5481,4.5727,4.6343,4.6889,4.7374,4.7558,4.7978,4.8646,4.9487,5.0112,5.0576,5.1083,5.0485,4.9226,4.9061,4.8597,4.8001,4.8001,4.8001,4.8001,4.8001,4.8001,4.8001,4.8001,4.8001,4.8001,4.8001,4.8001,4.8001,4.8001,4.7934,4.7736,4.6974,4.6245,4.5516,4.4754,4.4092,4.3598,4.3598,4.3598,4.3598,4.3598,4.2936,4.2175,4.1541,4.0779,4.0078,3.9415,3.9315,3.9395,3.9528,3.91,3.8807,3.8706,3.758,3.6761,3.6694,3.6028,3.56,3.56,3.5532,3.543,3.5363,3.4742,3.437,3.437,3.3761,3.3423,3.3423,3.3423,3.3728,3.437,3.4392,3.473,3.5407,3.5407,3.5296,2.6233,2.7308,2.8798,0.0,3.1022,3.1772,3.2523,3.3004,3.3668,3.4907,3.5965,3.6932,3.7711,3.8125,3.8537,0.0,3.9026,3.908,3.9379,3.9373,3.9373,3.9373,3.9373,3.9798,4.0726,4.1145,4.1923,4.32,4.4287,4.5065,4.5454,4.6112,4.6471,4.6471,4.6471,4.6556,4.6738,4.7197,4.7526,4.7873,4.7956,4.8327,4.9015,4.971,5.0608,5.1586,5.1402,5.0951,5.0286,4.9458,4.8928,4.8597,4.8166,4.8001,4.8001,4.8001,4.8001,4.8001,4.8001,4.8001,4.8001,4.8001,4.8001,4.8001,4.8001,4.8001,4.7835,4.7106,4.6378,4.5616,4.4887,4.4158,4.3598,4.3598,4.3598,4.3598,4.3598,4.3002,4.2406,4.2075,4.1143,4.031,4.0011,3.958,3.9342,3.9395,3.9365,3.9177,3.8849,3.8391,3.7743,3.6897,3.6096,3.56,3.56,3.56,3.56,3.56,3.5295,3.5148,3.5148,3.4822,3.4687,3.4687,3.4687,3.4822,3.5148,3.5148,3.5295,3.56,3.56,3.5542,2.8543,2.9505,0.0,3.2228,3.3335,3.4262,3.51,3.5549,3.5968,3.6596,3.7464,3.8123,3.8123,3.8661,3.914,3.914,3.929,3.9373,3.9373,3.9373,3.9373,3.9373,3.9373,3.9619,4.0098,4.0726,4.1713,4.317,4.4377,4.5394,4.6219,4.695,4.7309,4.7309,4.7309,4.7396,4.7495,4.7709,4.7922,4.8133,4.8271,4.8687,4.93,5.0143,5.121,5.2376,5.1846,5.1514,5.1216,5.0154,4.9458,4.9061,4.8531,4.8166,4.8001,4.8001,4.8001,4.8001,4.8001,4.8001,4.8001,4.8001,4.8001,4.8001,4.8001,4.8001,4.7901,4.7338,4.651,4.5682,4.5119,4.4324,4.3598,4.3598,4.3598,4.3598,4.3598,4.3168,4.2738,4.2539,4.1508,4.0641,4.0442,3.9779,3.9315,3.9315,3.9494,3.951,3.9101,3.9041,3.843,3.6965,3.6265,3.5836,3.5633,3.56,3.56,3.56,3.56,3.56,3.56,3.56,3.56,3.56,3.56,3.56,3.56,3.56,3.56,3.56,3.56,3.56,0.0,0.0,3.2886,3.4891,3.54,3.5789,3.7045,3.6866,3.6626,3.7255,3.7404,3.7434,3.7434,3.7973,3.8422,3.8422,3.899,3.9373,3.9373,3.9373,3.9373,3.9373,3.9373,3.9403,0.0,4.0038,4.1235,4.314,4.3958,4.4915,4.6219,4.695,4.7309,4.7309,4.7309,4.7309,4.7309,4.7309,4.7439,4.7624,4.8282,4.8821,4.9237,5.0691,5.1765,5.2409,5.2409,5.1978,5.1315,5.1249,5.0386,4.9094,4.9094,4.863,4.8001,4.8001,4.8001,4.8001,4.8001,4.8001,4.8001,4.8001,4.8001,4.8001,4.8001,4.8001,4.8001,4.7968,4.6908,4.5781,4.5748,4.4688,4.3598,4.3598,4.3598,4.3598,4.3598,4.3565,4.3367,4.2638,4.1877,4.1177,4.0509,3.9779,3.9315,3.9315,3.9422,3.9554,3.9644,3.9295,3.843,3.6965,3.6795,3.6434,3.5667,3.56,3.56,3.56,3.56,3.56,3.56,3.56,3.56,3.56,3.56,3.56,3.56,3.56,3.56,3.56,3.56,3.56,3.163,0.0,3.4203,3.5759,3.6806,3.7524,3.7973,3.8242,3.8362,3.8123,3.7704,3.7404,3.7404,3.7255,3.7404,3.8242,3.8571,3.8901,3.9349,3.9373,3.9373,3.9373,3.9798,0.0,0.0,0.0,0.0,4.321,4.3958,4.5095,4.689,4.7189,4.7309,4.7309,4.7309,4.7352,4.7525,4.7495,4.7837,4.848,4.9519,5.0267,5.0691,5.1508,5.2086,5.2409,5.2409,5.2277,5.2011,5.1514,5.1017,5.0452,4.9491,4.8961,4.8663,4.8166,4.8001,4.8001,4.8001,4.8001,4.8001,4.8001,4.8001,4.8001,4.8001,4.8001,4.8001,4.8001,4.6941,4.5781,4.5781,4.4721,4.3598,4.3598,4.3598,4.3598,4.3598,4.3598,4.3532,4.3267,4.2241,4.1342,4.111,4.0083,3.9342,3.9422,3.9554,3.9677,3.9807,3.9345,3.8802,3.8319,3.7405,3.6694,3.64,3.5926,3.56,3.56,3.56,3.56,3.56,3.56,3.56,3.56,3.56,3.56,3.56,3.56,3.587,3.64,3.64,3.6671,3.3036,3.4382,3.5552,3.6836,3.7793,3.8392,3.8392,3.8721,3.8721,3.7584,3.6836,3.6297,3.6058,3.5878,3.6241,3.7494,3.8093,3.8631,3.932,3.9373,3.9373,3.9373,4.0008,4.0307,0.0,0.0,0.0,4.3539,4.4077,4.5185,4.7189,4.7309,4.7309,4.7309,4.7309,4.7396,4.7581,4.7837,4.8532,4.971,5.0608,5.129,5.1765,5.2086,5.2266,5.2409,5.2409,5.2409,5.234,5.1912,5.1547,5.1216,5.0253,4.9558,4.9061,4.8564,4.8233,4.8001,4.8001,4.8001,4.8001,4.8001,4.8001,4.8001,4.8001,4.8001,4.8001,4.8001,4.7139,4.6113,4.5847,4.4887,4.3959,4.3664,4.3598,4.3598,4.3598,4.3598,4.3598,4.3598,4.2605,4.1711,4.1475,4.0216,3.9342,3.9422,3.952,3.9677,3.9892,3.9556,3.9226,3.9005,3.8125,3.7371,3.6829,3.6332,3.5926,3.5633,3.56,3.56,3.56,3.56,3.56,3.56,3.56,3.56,3.56,3.5893,3.6299,3.6795,3.7066,3.7449,3.507,3.6088,3.6896,3.8123,3.8422,3.8392,3.8392,3.8332,3.7764,3.5848,3.4861,3.4174,0.0,0.0,3.4833,3.6301,3.7524,3.8601,3.932,3.9373,3.9403,0.0,0.0,0.0,0.0,0.0,0.0,4.4227,4.4317,4.5155,4.7189,4.7309,4.7309,4.7309,4.7309,4.7396,4.7624,4.8324,4.9479,5.1102,5.1327,5.1765,5.2409,5.2409,5.2409,5.2409,5.2409,5.2409,5.2409,5.2409,5.2011,5.1348,5.1315,5.0419,4.916,4.9127,4.863,4.8001,4.8001,4.8001,4.8001,4.8001,4.8001,4.8001,4.8001,4.8001,4.8001,4.8001,4.7471,4.6742,4.6046,4.5284,4.4522,4.3797,4.3631,4.3598,4.3598,4.3598,4.3598,4.3598,4.3002,4.2241,4.1508,4.0249,3.9348,3.9315,3.9422,3.958,3.9866,3.9884,3.9665,3.9116,3.9005,3.843,3.7032,3.6897,3.6535,3.5769,3.5701,3.5701,3.5701,3.5667,3.5667,3.5701,3.5667,3.5667,3.5701,3.6468,3.6897,3.6931,3.7618,3.799,3.6387,3.7404,3.8093,3.896,3.8781,3.8392,3.8392,3.7644,3.6537,3.504,3.3425,3.2377,0.0,0.0,0.0,3.6028,3.7135,0.0,3.926,3.9373,0.0,4.0098,0.0,4.1983,4.2273,4.294,0.0,0.0,4.4396,4.4635,4.7189,4.7309,4.7309,4.7309,4.7309,4.7495,4.788,4.9147,5.0338,5.1327,5.1725,5.2086,5.2409,5.2409,5.2409,5.2409,5.2409,5.2409,5.2409,5.2409,5.231,5.2078,5.1514,5.0717,4.9856,4.9326,4.863,4.8001,4.8001,4.8001,4.8001,4.8001,4.8001,4.8001,4.8001,4.8001,4.8001,4.8001,4.7471,4.6841,4.6676,4.5649,4.4622,4.4456,4.4026,4.3598,4.3598,4.3598,4.3598,4.3598,4.3002,4.2137,4.0845,4.0376,3.9945,3.9381,3.9342,3.9422,3.958,3.9789,3.9842,3.9699,3.926,3.8836,3.8464,3.7922,3.755,3.7324,3.729,3.729,3.729,3.6772,3.6738,3.7313,3.6772,3.6772,3.729,3.7516,3.7889,3.843,3.8633,3.9005,3.7375,3.8332,3.8871,3.896,3.8691,3.8182,3.7315,3.6327,3.507,3.3125,3.142,0.0,3.0731,3.0731,0.0,0.0,0.0,0.0,3.8781,3.9469,4.0098,0.0,4.1983,0.0,4.3329,4.3928,4.4736,0.0,4.4825,4.5095,4.7189,4.7309,4.7309,4.7309,4.7309,4.7794,4.878,4.9829,5.087,5.1838,5.2122,5.2266,5.2409,5.2409,5.2409,5.2409,5.2409,5.2409,5.2409,5.2409,5.2409,5.2376,5.1945,5.1115,5.0154,4.9756,4.8928,4.8001,4.8001,4.8001,4.8001,4.8001,4.8001,4.8001,4.8001,4.8001,4.8001,4.8001,4.7703,4.7305,4.6974,4.6046,4.5086,4.4754,4.4158,4.3598,4.3598,4.3598,4.3598,4.3598,4.3002,4.227,4.1475,4.1044,4.058,3.9912,3.9779,3.9707,3.9455,3.9573,3.9789,3.9884,3.959,3.9294,3.9005,3.8633,3.8261,3.7922,3.7922,3.7922,3.7922,3.7516,3.7483,3.7889,3.7483,3.7483,3.7922,3.8227,3.8599,3.9005,3.9309,3.9706,3.8212,3.896,3.926,3.8571,3.8272,3.7644,3.5789,3.4562,3.3156,3.0642,0.0,2.7979,2.8158,2.8757,3.0101,3.2796,0.0,3.6686,3.8063,3.9409,4.0576,4.1414,4.2671,4.3499,4.3748,4.4257,4.4855,4.5514,4.5484,4.5992,4.7249,4.7309,4.7309,4.7309,4.7352,4.8157,4.9765,5.026,5.1135,5.2409,5.2409,5.2409,5.2409,5.2409,5.2409,5.2409,5.2409,5.2409,5.2409,5.2409,5.2409,5.2409,5.2409,5.1545,5.0353,5.0353,4.9425,4.8166,4.8166,4.8067,4.8001,4.8001,4.8001,4.8001,4.8001,4.8001,4.8001,4.8001,4.8001,4.7868,4.7206,4.6411,4.5616,4.4986,4.4224,4.3598,4.3598,4.3598,4.3598,4.3598,4.3069,4.2605,4.2506,4.1943,4.1309,4.0669,4.0475,4.0177,3.9541,3.9515,3.9606,3.9866,3.9884,3.9699,3.9208,3.914,3.887,3.8227,3.8193,3.8193,3.8193,3.8091,3.8091,3.8193,3.8091,3.8091,3.8193,3.8836,3.914,3.914,3.9808,4.0113,3.902,3.932,3.926,3.8571,3.7584,3.6447,3.5013,3.2497,0.0,0.0,2.6153,2.4807,2.5914,2.6662,2.8158,3.1331,0.0,0.0,0.0,0.0,4.0247,0.0,0.0,0.0,0.0,0.0,0.0,0.0,4.6441,4.6471,4.7279,4.7309,4.7309,4.7309,4.7666,4.849,4.9765,5.026,5.1135,5.2409,5.2409,5.2409,5.2409,5.2409,5.2409,5.2409,5.2409,5.2409,5.2409,5.2409,5.2409,5.2409,5.2409,5.1879,5.1082,5.1082,5.0187,4.8928,4.8928,4.8498,4.8001,4.8001,4.8001,4.8001,4.8001,4.8001,4.8001,4.8001,4.8001,4.7968,4.7835,4.6808,4.5748,4.5616,4.4589,4.3598,4.3598,4.3598,4.3598,4.3598,4.3499,4.3201,4.2605,4.2373,4.21,4.1572,4.0857,4.037,4.0373,3.9867,3.958,3.9703,3.9833,3.9901,3.9884,3.991,3.9876,3.974,3.974,3.974,3.974,3.9106,3.9073,3.9706,3.9106,3.9106,3.974,3.9842,3.991,3.991,4.0045,4.0113,3.914,3.9373,3.917,3.8123,3.7165,3.5848,3.3484,0.0,0.0,0.0,2.4477,2.34,2.4388,0.0,0.0,0.0,0.0,0.0,0.0,0.0,0.0,0.0,0.0,0.0,0.0,0.0,4.695,4.7279,4.701,4.698,4.7279,4.7309,4.7309,4.7309,4.7752,4.8573,4.9765,5.026,5.1135,5.2409,5.2409,5.2409,5.2409,5.2409,5.2409,5.2409,5.2409,5.2409,5.2409,5.2409,5.2409,5.2409,5.2409,5.1978,5.1315,5.1315,5.0353,4.9094,4.9094,4.863,4.8001,4.8001,4.8001,4.8001,4.8001,4.8001,4.8001,4.8001,4.8001,4.8001,4.8001,4.7173,4.6278,4.5881,4.4688,4.3598,4.3598,4.3598,4.3598,4.3598,4.3598,4.3499,4.3135,4.3069,4.2833,4.219,4.1763,4.1238,4.0558,4.0219,3.9901,3.9711,3.9755,3.9884,4.0087,4.0113,4.0113,4.0113,4.0113,4.0113,4.0113,3.9774,3.974,4.0079,3.9774,3.9774,4.0113,4.0113,4.0113,4.0113,4.0113,4.0113,3.9044,3.9373,3.9074,3.7734,3.6716,3.522,3.2019,2.9448,0.0,0.0,2.3041,2.2254,2.2862,0.0,2.4784,0.0,0.0,0.0,0.0,0.0,0.0,0.0,0.0,0.0,0.0,0.0,0.0,4.7309,4.7309,4.7309,4.7309,4.7309,4.7309,4.7309,4.7752,4.8573,4.9765,5.026,5.1135,5.2409,5.2409,5.2409,5.2409,5.2409,5.2409,5.2409,5.2409,5.2409,5.2409,5.2409,5.2409,5.2409,5.2409,5.2045,5.1547,5.1547,5.0585,4.9359,4.9359,4.8763,4.8001,4.8001,4.8001,4.8001,4.8001,4.8001,4.8001,4.8001,4.8001,4.8001,4.8001,4.7438,4.6676,4.5781,4.4688,4.3764,4.3631,4.3598,4.3598,4.3598,4.3598,4.3598,4.3598,4.3598,4.3429,4.2895,4.2634,4.2104,4.1034,4.0741,4.0452,3.9979,3.9804,3.9807,4.0087,4.0113,4.0113,4.0113,4.0113,4.0113,4.0113,4.0113,4.0113,4.0113,4.0113,4.0113,4.0113,4.0113,4.0113,4.0113,4.0282,4.035,3.92,3.9373,3.9074,3.7734,3.6028,3.3964,3.121,0.0,0.0,2.3182,2.1325,2.0187,2.0838,2.1515,2.2622,2.4634,0.0,3.0552,0.0,0.0,0.0,0.0,0.0,0.0,0.0,0.0,4.7309,4.7309,4.7309,4.7309,4.7309,4.7309,4.7309,4.7309,4.7752,4.8573,4.9765,5.026,5.1135,5.2409,5.2409,5.2409,5.2409,5.2409,5.2409,5.2409,5.2409,5.2409,5.2409,5.2409,5.2409,5.2409,5.2409,5.2376,5.231,5.231,5.1347,5.0121,5.0121,4.9193,4.8001,4.8001,4.8001,4.8001,4.8001,4.8001,4.8001,4.8001,4.8001,4.8001,4.8001,4.7438,4.6543,4.5119,4.4688,4.4423,4.3731,4.3598,4.3598,4.3598,4.3598,4.3598,4.3598,4.3598,4.3625,4.3739,4.3053,4.2497,4.257,4.1825,4.1156,4.0756,4.0105,3.9807,4.0087,4.0113,4.0113,4.0113,4.0113,4.0113,4.0113,4.0113,4.0113,4.0113,4.0113,4.0113,4.0113,4.0113,4.0113,4.0113,4.0798,4.1102,3.8512,3.8811,3.8482,3.7165,3.537,3.3095,3.0043,0.0,2.4126,2.2443,2.0816,1.9899,2.0569,2.0917,2.1724,2.3699,2.6123,2.8607,3.0971,0.0,0.0,0.0,0.0,0.0,0.0,0.0,4.689,4.7279,4.7309,4.7309,4.7309,4.7309,4.7309,4.7309,4.7752,4.8573,4.9765,5.026,5.1135,5.2409,5.2409,5.2409,5.2409,5.2409,5.2409,5.2409,5.2409,5.2409,5.2409,5.2409,5.2409,5.2409,5.2409,5.2144,5.1746,5.1746,5.0783,4.9558,4.9558,4.8862,4.8001,4.8001,4.8001,4.8001,4.8001,4.8001,4.8001,4.8001,4.8001,4.8001,4.8001,4.7438,4.6742,4.6146,4.5351,4.4622,4.4324,4.3926,4.3598,4.3598,4.3598,4.3598,4.3598,4.3598,4.3628,4.3687,4.3393,4.3032,4.2688,4.2299,4.1863,4.1388,4.0762,4.0311,4.0121,4.0113,4.0113,4.0113,4.0113,4.0113,4.0113,4.0113,4.0113,4.0113,4.0113,4.0113,4.0113,4.0553,4.0764,4.0764,4.1508,4.1847,3.7434,3.7973,3.7793,3.6507,3.4681,3.2407,0.0,2.6393,2.3797,2.2054,2.0636,1.9839,2.0318,2.0408,2.0976,2.2742,2.4717,2.6871,2.9295,0.0,0.0,0.0,0.0,4.1983,0.0,4.5113,4.6591,4.7249,4.7309,4.7309,4.7309,4.7309,4.7309,4.7309,4.7752,4.8573,4.9765,5.026,5.1135,5.2409,5.2409,5.2409,5.2409,5.2409,5.2409,5.2409,5.2409,5.2409,5.2409,5.2409,5.2409,5.2409,5.2409,5.1978,5.1315,5.1315,5.0353,4.9094,4.9094,4.863,4.8001,4.8001,4.8001,4.8001,4.8001,4.8001,4.8001,4.8001,4.8001,4.8001,4.8001,4.7603,4.7173,4.6941,4.6113,4.5218,4.4787,4.4291,4.386,4.3631,4.3598,4.3598,4.3598,4.3598,4.3598,4.3598,4.3598,4.3429,4.2991,4.2866,4.2626,4.2127,4.1643,4.1171,4.0721,4.0527,4.0451,4.0451,4.0214,4.0113,4.0113,4.0113,4.0214,4.0417,4.0451,4.0553,4.0756,4.1271,4.1542,4.1542,4.2286,4.276,3.5968,3.6956,3.7105,3.5848,3.4023,3.1809,0.0,2.6004,2.3251,2.1964,2.0636,1.9708,1.9708,1.9708,2.0157,2.1485,2.3349,2.5322,2.7345,0.0,0.0,0.0,0.0,4.0449,4.305,4.5113,4.6591,4.7249,4.7309,4.7309,4.7309,4.7309,4.7309,4.7309,4.7752,4.8573,4.9765,5.026,5.1135,5.2409,5.2409,5.2409,5.2409,5.2409,5.2409,5.2409,5.2409,5.2409,5.2409,5.2409,5.2409,5.2409,5.2409,5.1978,5.1315,5.1315,5.0353,4.9094,4.9094,4.863,4.8001,4.8001,4.8001,4.8001,4.8001,4.8001,4.8001,4.8001,4.8001,4.8001,4.8001,4.8001,4.7802,4.7073,4.6874,4.6477,4.5019,4.4688,4.4456,4.3731,4.3598,4.3598,4.3598,4.3598,4.3598,4.3598,4.3598,4.3658,4.3868,4.3717,4.3418,4.3031,4.2784,4.2512,4.2112,4.1531,4.1204,4.1204,4.0493,4.0113,4.0113,4.0113,4.0426,4.117,4.1204,4.1542,4.2286,4.2286,4.2286,4.2286,4.3064,4.3809,3.4023,3.4921,3.51,3.3784,3.1958,2.9804,2.7171,2.4687,2.2613,2.1306,2.0318,1.9708,1.9708,1.9708,2.0157,2.1485,2.2951,2.4956,0.0,0.0,0.0,0.0,0.0,4.0816,0.0,0.0,4.6082,4.7219,4.7309,4.7309,4.7309,4.7439,4.7229,4.6651,4.751,4.8358,4.911,5.0044,5.1135,5.2409,5.2409,5.2409,5.2409,5.2409,5.2409,5.2409,5.2409,5.2409,5.2409,5.2409,5.2409,5.2409,5.2409,5.1645,5.0551,5.0551,4.9624,4.8365,4.8365,4.8199,4.8001,4.8001,4.8001,4.8001,4.8001,4.8001,4.8001,4.8001,4.8001,4.8001,4.8001,4.8001,4.7934,4.7703,4.7272,4.6775,4.6311,4.5384,4.4622,4.439,4.3959,4.3598,4.3598,4.3598,4.3598,4.3598,4.3598,4.3658,4.3868,4.3839,4.3768,4.3623,4.3729,4.3339,4.2206,4.1897,4.1639,4.1238,4.0967,4.0629,4.0113,4.0561,4.0967,4.1204,4.1711,4.2049,4.2286,4.2828,4.3335,4.3904,4.4113,4.435,0.0,3.2138,3.2407,3.13,2.9744,2.7889,2.5734,2.3729,2.1994,2.0927,2.0168,1.9708,1.9708,1.9708,2.0157,2.1485,2.2772,2.4597,0.0,0.0,0.0,0.0,0.0,0.0,0.0,4.5394,4.6142,4.7219,4.7309,4.7309,4.7309,4.7495,4.7202,4.6392,4.7646,4.8552,4.8909,5.0141,5.1285,5.2409,5.2409,5.2409,5.2409,5.2409,5.2409,5.2409,5.2409,5.2409,0.0,5.2409,5.2409,5.2409,5.2409,5.1479,5.022,5.022,4.9293,4.8001,4.8001,4.8001,4.8001,4.8001,4.8001,4.8001,4.8001,4.8001,4.8001,4.8001,4.8001,4.8001,4.8001,4.8001,4.8001,4.8001,4.7636,4.7239,4.6974,4.6179,4.5351,4.4787,4.4324,4.3959,4.3631,4.3598,4.3598,4.3598,4.3598,4.3687,4.3956,4.3927,4.3956,4.4039,4.4155,4.3866,4.3014,4.2732,4.2416,4.2057,4.1779,4.1407,4.0959,4.1373,4.1745,4.2049,4.2489,4.2861,4.3193,4.3639,4.4113,4.4615,4.4615,4.4615,0.0,2.8757,2.9262,2.8607,2.744,2.6093,2.4754,2.299,0.0,2.0748,2.0139,1.9708,1.9768,1.9768,2.0198,2.1605,2.2921,2.4477,0.0,0.0,0.0,0.0,4.0673,0.0,4.4197,4.5544,4.6591,4.7249,4.7309,4.7309,4.7309,4.7508,4.7266,4.6573,4.8057,4.892,4.9018,5.0322,5.1414,5.2241,5.231,5.2343,5.2343,5.2409,5.2409,5.2409,5.2409,5.2409,5.2409,5.2409,5.2409,5.2409,5.2409,5.1479,5.022,5.022,4.9293,4.8001,4.8001,4.8001,4.8001,4.8001,4.8001,4.8001,4.8001,4.8001,4.8001,4.8001,4.8001,4.8001,4.8001,4.8001,4.8001,4.8001,4.8001,4.7835,4.7206,4.7007,4.6576,4.5185,4.4854,4.4522,4.3797,4.3631,4.3598,4.3598,4.3628,4.3747,4.4068,4.4015,4.401,4.4265,4.4212,4.4184,4.4293,4.3799,4.3443,4.3375,4.276,4.2354,4.2286,4.2354,4.2692,4.3375,4.3443,4.3842,4.4615,4.4615,4.4615,4.4615,4.4615,4.4615,2.3601,0.0,2.726,2.7111,2.6063,2.4724,0.0,2.1994,2.0737,2.0079,0.0,1.9857,2.0378,2.0449,2.1066,2.2862,2.4268,2.6231,2.9362,0.0,0.0,4.0745,4.143,4.2526,4.4825,4.5813,4.6591,4.7249,4.7409,4.7538,4.7538,4.7729,4.7555,4.6975,4.8098,4.8541,4.8167,4.9163,5.002,5.0717,5.128,5.158,5.158,5.2144,5.2409,5.2409,5.2409,5.2409,5.2409,5.2409,5.2409,5.2409,5.2409,5.1479,5.022,5.022,4.9293,4.8001,4.8001,4.8001,4.8001,4.8001,4.8001,4.8001,4.8001,4.8001,4.8001,4.8001,4.8001,4.8001,4.8001,4.8001,4.8001,4.8001,4.8001,4.81,4.8498,4.8133,4.7636,4.7305,4.6311,4.5284,4.4556,4.3992,4.3598,4.3598,4.3717,4.3898,4.4068,4.4155,4.4241,4.4293,4.4412,4.4412,4.4293,4.4187,4.3872,4.3443,4.324,4.2895,4.232,4.2828,4.3206,4.3375,4.4012,4.4384,4.4615,4.4615,4.4615,4.4615,4.4615,4.4615,2.1894,2.3699,2.5226,2.5226,2.4477,2.346,2.2493,0.0,0.0,0.0,0.0,1.9899,2.0569,2.0927,2.1904,2.4148,2.5644,0.0,0.0,0.0,0.0,4.2132,4.2917,4.3615,4.4747,4.6022,4.692,4.7279,4.7495,4.7588,4.7551,4.7814,4.7809,4.7458,4.8083,4.8317,4.8037,4.9031,4.9739,5.022,5.0949,5.1315,5.1348,5.2078,5.2409,5.2409,5.2409,5.2409,5.2409,5.2409,5.2409,5.2409,5.2409,5.1479,5.022,5.022,4.9293,4.8001,4.8001,4.8001,4.8001,4.8001,4.8001,4.8001,4.8001,4.8001,4.8001,4.8001,4.8001,4.8001,4.8001,4.8001,4.81,4.8431,4.8498,4.873,4.9458,4.9293,4.8829,4.8133,4.7371,4.6344,4.492,4.4357,4.4022,4.3783,4.3839,4.3985,4.4184,4.427,4.4355,4.444,4.4559,4.4559,4.444,4.444,4.43,4.3978,4.3944,4.3775,4.3369,4.3741,4.3944,4.3944,4.4378,4.4615,4.4615,4.4615,4.4615,4.4615,4.4615,4.4615,2.1335,2.2712,2.3759,2.3759,2.3281,2.2703,2.2113,0.0,0.0,0.0,0.0,0.0,0.0,2.1695,0.0,0.0,0.0,0.0,3.777,3.869,3.9849,4.3051,4.425,4.4578,4.4208,4.5992,4.716,4.716,4.7375,4.7528,4.7538,4.7783,4.7902,4.7858,4.8042,4.8148,4.8184,4.915,4.9685,4.9889,5.0585,5.0984,5.1017,5.1711,5.2042,5.2042,5.2042,5.2042,5.2042,5.2042,5.2042,5.2042,5.2042,5.1214,5.0055,5.0055,4.916,4.8001,4.8001,4.8001,4.8001,4.8001,4.8001,4.8001,4.8001,4.8001,4.8001,4.8001,4.8001,4.8001,4.8001,4.8001,4.8166,4.8796,4.8928,4.9127,4.9889,5.0055,4.9657,4.8398,4.8166,4.7537,4.5549,4.5086,4.4882,4.4467,4.4327,4.4311,4.4466,4.449,4.4547,4.4587,4.4615,4.4615,4.4615,4.4615,4.4615,4.4615,4.4615,4.4615,4.4615,4.4615,4.4615,4.4615,4.4615,4.4615,4.4615,4.4615,4.4615,4.4615,4.4716,4.4784,2.1335,2.302,2.4455,2.4455,2.3947,2.343,2.334,2.2323,0.0,0.0,0.0,0.0,0.0,2.3708,2.5023,0.0,0.0,3.5094,0.0,0.0,4.0927,4.3087,4.3777,4.3883,4.3479,4.5263,4.6429,4.6429,4.6852,4.7291,4.7719,4.7383,4.7476,4.8137,4.7929,4.7836,4.8035,4.82,4.8299,4.8365,4.9094,4.9458,4.9458,5.022,5.0551,5.0551,5.0551,5.0551,5.0551,5.0551,5.0551,5.0551,5.0551,5.0021,4.9293,4.9293,4.873,4.8001,4.8001,4.8001,4.8001,4.8001,4.8001,4.8001,4.8001,4.8001,4.8001,4.8001,4.8001,4.8001,4.8001,4.8001,4.8034,4.8133,4.8166,4.8365,4.9127,4.9293,4.9193,4.8995,4.8928,4.863,4.7669,4.6974,4.6573,4.6695,4.6252,4.5768,4.5303,4.5385,4.5269,4.4682,4.4615,4.4615,4.4615,4.4615,4.4615,4.4615,4.4615,4.4615,4.4615,4.4615,4.4615,4.4615,4.4615,4.4615,4.4615,4.4615,4.4615,4.4615,4.5229,4.5534,2.1335,2.2862,2.4216,2.4963,2.5196,2.5016,2.4328,2.34,0.0,0.0,0.0,0.0,0.0,0.0,2.744,3.118,0.0,3.74,4.0159,4.105,4.1899,4.3223,4.4029,4.4125,4.3359,4.4796,4.5753,4.5753,4.6199,4.667,4.7184,4.7199,4.7452,4.8063,4.7935,4.7902,4.8001,4.8001,4.8001,4.8001,4.8763,4.9094,4.9127,4.9889,5.022,5.022,5.022,5.022,5.022,5.022,5.022,5.022,5.022,4.9756,4.9061,4.8663,4.8299,4.8001,4.8001,4.8001,4.8001,4.8001,4.8001,4.8001,4.8001,4.8001,4.8001,4.8001,4.8001,4.8001,4.8001,4.8001,4.81,4.8498,4.8597,4.8829,4.9626,4.9758,4.9625,4.9294,4.9161,4.8862,4.8133,4.7736,4.7468,4.7323,4.7049,4.6733,4.6229,4.6249,4.6007,4.5263,4.5196,4.5026,4.4649,4.4615,4.4615,4.4615,4.4615,4.4615,4.4615,4.4615,4.4615,4.4615,4.4615,4.4615,4.4615,4.4615,4.4818,4.5196,4.5534,4.5906,2.1126,2.2413,2.367,2.4837,2.5884,2.6363,2.5525,2.4777,2.4358,0.0,0.0,0.0,0.0,2.7619,0.0,3.4294,3.6676,3.8853,4.1392,4.2216,4.2757,4.3389,4.4258,4.4325,4.3259,4.4408,4.5229,4.5229,4.5678,4.6189,4.6734,4.7021,4.7478,4.7968,4.8001,4.8001,4.8001,4.8001,4.8001,4.8001,4.8564,4.8862,4.8862,4.9425,4.969,4.969,4.969,4.969,4.969,4.969,4.969,4.969,4.969,4.9359,4.8763,4.8199,4.8001,4.8001,4.8001,4.8001,4.8001,4.8001,4.8001,4.8001,4.8001,4.8001,4.8001,4.8033,4.8033,4.8001,4.8001,4.8001,4.8133,4.873,4.8895,4.9094,4.9759,4.9826,4.9626,4.9127,4.9128,4.8962,4.8365,4.8266,4.8198,4.7952,4.778,4.7502,4.7128,4.7192,4.6955,4.6041,4.5974,4.5602,4.4682,4.4615,4.4615,4.4615,4.4615,4.4615,4.4615,4.4615,4.4615,4.4615,4.4615,4.4682,4.4886,4.4886,4.5229,4.5974,4.6143,4.6515,2.0587,2.1754,2.2912,2.358,2.5166,2.6746,2.7255,2.6866,2.6566,2.7195,0.0,0.0,0.0,3.0462,3.3066,3.5878,3.7805,3.969,4.1949,4.2953,4.342,4.3332,4.3899,4.3891,4.2831,4.4104,4.501,4.501,4.5493,4.6157,4.6924,4.693,4.7266,4.7968,4.8001,4.8001,4.8001,4.8001,4.8001,4.8001,4.8067,4.8067,4.8067,4.8133,4.8166,4.8166,4.8166,4.8166,4.8166,4.8166,4.8166,4.8166,4.8166,4.8133,4.8067,4.8034,4.8001,4.8001,4.8001,4.8001,4.8001,4.8001,4.8001,4.8001,4.8001,4.8001,4.8033,4.813,4.8099,4.8001,4.8001,4.8001,4.8001,4.8067,4.8165,4.8295,4.8328,4.8491,4.8553,4.8327,4.8794,4.9227,4.9061,4.9028,4.9128,4.9389,4.8852,4.8274,4.7875,4.8443,4.8308,4.6853,4.6718,4.6143,4.4716,4.4615,4.4615,4.4615,4.4615,4.4615,4.4615,4.4615,4.4615,4.4615,4.4615,4.4953,4.5635,4.5635,4.6007,4.6718,4.7428,4.777,2.1126,2.1994,2.3062,2.4477,2.6033,2.7285,2.7525,2.8064,2.8637,2.9265,2.9744,0.0,0.0,0.0,3.4592,3.7255,3.8667,4.0436,4.3247,4.3867,4.4051,4.4058,4.419,4.4174,4.3861,4.4481,4.5025,4.5403,4.5739,4.6217,4.6831,4.6955,4.7303,4.7968,4.8001,4.8001,4.8001,4.8001,4.8001,4.8001,4.8001,4.8001,4.8001,4.8001,4.8001,4.8001,4.8001,4.8001,4.8001,4.8001,4.8001,4.8001,4.8001,4.8001,4.8001,4.8001,4.8001,4.8001,4.8001,4.8001,4.8001,4.8001,4.8001,4.8001,4.8001,4.8001,4.8033,4.8163,4.8163,4.8098,4.8098,4.8066,4.8033,4.8098,4.8163,4.826,4.8517,4.8515,4.8515,4.858,4.859,4.8761,4.9128,4.9161,4.9194,4.9523,4.9354,4.9046,4.8619,4.8849,4.8781,4.824,4.7327,4.6549,4.6007,4.5122,4.4615,4.4615,4.4615,4.4615,4.4615,4.4615,4.4615,4.4615,4.5026,4.5432,4.5703,4.6143,4.6752,4.7496,4.777,4.8173,2.1515,2.2024,2.2793,2.4537,2.6123,0.0,2.8094,2.9235,3.0432,3.127,3.1839,3.2318,3.3006,0.0,0.0,0.0,3.9294,4.0927,4.4141,4.4579,4.461,4.4662,4.473,4.473,4.4699,4.4999,4.5369,4.5841,4.6127,4.6445,4.6862,4.7168,4.7538,4.7968,4.8001,4.8001,4.8001,4.8001,4.8001,4.8001,4.8001,4.8001,4.8001,4.8001,4.8001,4.8001,4.8001,4.8001,4.8001,4.8001,4.8001,4.8001,4.8001,4.8001,4.8001,4.8001,4.8001,4.8001,4.8001,4.8001,4.8001,4.8001,4.8001,4.8001,4.8001,4.8001,4.8033,4.8227,4.826,4.8227,4.8356,4.826,4.813,4.8195,4.8292,4.8452,4.8738,4.8738,4.8673,4.8769,4.858,4.8523,4.886,4.8928,4.8993,4.9221,4.9318,4.9278,4.9055,4.9187,4.9255,4.9018,4.8105,4.7293,4.6819,4.6075,4.5534,4.5326,4.5292,4.5089,4.4615,4.4615,4.4716,4.4925,4.5432,4.594,4.6413,4.6921,4.753,4.8274,4.8274,4.8545,2.1545,2.1724,2.2024,2.331,0.0,0.0,2.9172,3.0612,3.1899,3.3245,3.3514,3.3724,3.4384,3.4533,0.0,3.8871,3.9702,4.1143,4.4366,4.503,4.5179,4.511,4.551,4.5651,4.5147,4.566,4.6092,4.6301,4.6687,4.6963,4.7101,4.7471,4.777,4.8001,4.8001,4.8001,4.8001,4.8001,4.8001,4.8001,4.8001,4.8001,4.8001,4.8001,4.8001,4.8001,4.8001,4.8001,4.8001,4.8001,4.8001,4.8001,4.8001,4.8001,4.8001,4.8001,4.8001,4.8001,4.8001,4.8001,4.8001,4.8001,4.8001,4.8001,4.8001,4.8001,4.8066,4.8388,4.8356,4.8292,4.8707,4.8675,4.8452,4.826,4.8517,4.8801,4.8801,4.8894,4.8956,4.8832,4.8801,4.8675,4.826,4.8356,4.8515,4.8515,4.8675,4.8832,4.8987,4.9627,4.983,4.9086,4.9018,4.8409,4.6955,4.7496,4.7597,4.6853,4.6786,4.6143,4.4682,4.4615,4.4959,4.5703,4.5737,4.6447,4.7906,4.7906,4.8308,4.9018,4.9018,4.9018,2.2866,2.3104,0.0,2.5848,0.0,0.0,0.0,3.1958,0.0,0.0,3.5938,3.6028,3.534,3.5938,3.6866,3.7853,3.9526,4.1653,4.436,4.52,4.5733,4.6237,4.6337,4.6372,4.6272,4.6585,4.6997,4.7471,4.7605,4.7671,4.7737,4.7869,4.7935,4.8001,4.8001,4.8001,4.8001,4.8001,4.8001,4.8001,4.8001,4.8001,4.8001,4.8001,4.8001,4.8001,4.8001,4.8001,4.8001,4.8001,4.8001,4.8001,4.8001,4.8001,4.8001,4.8001,4.8001,4.8001,4.8001,4.8001,4.8001,4.8001,4.8001,4.8001,4.8001,4.8066,4.8195,4.842,4.8547,4.8644,4.8769,4.8832,4.8798,4.8675,4.8707,4.8832,4.8925,4.8987,4.9018,4.8956,4.8863,4.8738,4.8644,4.8547,4.8547,4.8707,4.8769,4.8832,4.8987,4.9627,4.9999,4.9796,4.9763,4.9593,4.9154,4.8376,4.7804,4.7597,4.709,4.6583,4.6143,4.6172,4.6244,4.6481,4.6989,4.7432,4.7906,4.8443,4.8781,4.9018,4.9018,4.9018,2.3423,2.4108,0.0,2.7076,2.8783,3.0522,3.2766,0.0,0.0,0.0,3.6776,3.6896,3.6357,3.6963,3.7687,3.8227,4.0016,4.2164,4.4499,4.5504,4.6269,4.6862,4.6929,4.6929,4.6931,4.7169,4.7505,4.7968,4.8001,4.8001,4.8001,4.8001,4.8001,4.8001,4.8001,4.8001,4.8001,4.8001,4.8001,4.8001,4.8001,4.8001,4.8001,4.8001,4.8001,4.8001,4.8001,4.8001,4.8001,4.8001,4.8001,4.8001,4.8001,4.8001,4.8001,4.8001,4.8001,4.8001,4.8001,4.8001,4.8001,4.8066,4.8099,4.8099,4.8163,4.826,4.8356,4.8547,4.8707,4.8801,4.8863,4.8956,4.8987,4.8832,4.8832,4.8894,4.8987,4.9018,4.9018,4.9018,4.8925,4.8863,4.8801,4.8738,4.8704,4.8769,4.8832,4.8925,4.9018,4.939,4.9661,4.9661,4.9932,4.9965,4.9695,4.912,4.8646,4.8376,4.7936,4.7665,4.7665,4.709,4.6921,4.7225,4.7669,4.8041,4.8342,4.8781,4.9018,4.9018,4.9018,4.9018,2.3496,2.4867,0.0,2.7495,2.9382,0.0,3.4024,3.507,3.5699,3.6357,0.0,3.6806,3.7315,3.7661,3.828,3.9466,4.0957,4.2626,4.4585,4.58,4.6597,4.694,4.7273,4.7339,4.7104,4.7472,4.7803,4.8001,4.8001,4.8001,4.8001,4.8001,4.8001,4.8001,4.8001,4.8001,4.8001,4.8001,4.8001,4.8001,4.8001,4.8001,4.8001,4.8001,4.8001,4.8001,4.8001,4.8001,4.8001,4.8001,4.8001,4.8001,4.8001,4.8001,4.8001,4.8001,4.8001,4.8001,4.8001,4.8001,4.8033,4.8163,4.8195,4.8227,4.8452,4.8515,4.8547,4.8738,4.8801,4.8832,4.8987,4.9018,4.8987,4.8832,4.8925,4.9018,4.9018,4.9018,4.9018,4.9018,4.9018,4.8956,4.8832,4.8925,4.8956,4.8832,4.8925,4.9018,4.9018,4.9018,4.9018,4.9018,4.9661,4.983,4.9154,4.9695,4.9796,4.9154,4.9052,4.9018,4.9018,4.7699,4.7327,4.7973,4.7973,4.8342,4.9018,4.9018,4.9018,4.9018,4.9018,4.9018,2.441,2.5788,0.0,0.0,3.1866,3.3903,3.504,3.54,3.5699,3.6357,3.7285,3.7853,3.7494,3.8412,3.9325,3.9501,4.09,4.2456,4.3814,4.4788,4.5538,4.6023,4.6647,4.701,4.6945,4.7539,4.7968,4.8001,4.8001,4.8001,4.8001,4.8001,4.8001,4.8001,4.8001,4.8001,4.8001,4.8001,4.8001,4.8001,4.8001,4.8001,4.8001,4.8001,4.8001,4.8001,4.8001,4.8001,4.8001,4.8001,4.8001,4.8001,4.8001,4.8001,4.8001,4.8001,4.8001,4.8001,4.8001,4.8001,4.8033,4.8163,4.8195,4.8227,4.8452,4.861,4.8738,4.8769,4.8863,4.8987,4.8984,4.9018,4.8984,4.8987,4.8987,4.9018,4.9018,4.9018,4.9018,4.9018,4.9018,4.9018,4.8956,4.8987,4.9018,4.8956,4.8987,4.9018,4.9018,4.9018,4.9018,4.9018,4.9661,5.0033,4.9864,4.9999,5.0033,4.9864,4.9323,4.9018,4.9018,4.8714,4.8612,4.8781,4.8781,4.8849,4.9018,4.9018,4.9018,4.9018,4.9018,4.9018,2.4427,0.0,0.0,3.1262,0.0,3.4683,3.534,3.5519,3.5609,3.5938,3.6806,3.7554,3.7823,3.8697,3.9534,3.9989,4.1401,4.2768,4.3686,4.4624,4.5403,4.575,4.6444,4.6908,4.6908,4.757,4.8001,4.8001,4.8001,4.8001,4.8001,4.8001,4.8001,4.8001,4.8001,4.8001,4.8001,4.8001,4.8001,4.8001,4.8001,4.8001,4.8001,4.8001,4.8001,4.8001,4.8001,4.8001,4.8001,4.8001,4.8001,4.8001,4.8066,4.8066,4.8001,4.8066,4.8066,4.8001,4.8001,4.8001,4.8033,4.826,4.8356,4.8388,4.8642,4.8798,4.8894,4.8894,4.8956,4.9018,4.9018,4.9018,4.9018,4.9018,4.9018,4.9018,4.9018,4.9018,4.9018,4.9018,4.9018,4.9018,4.9018,4.9018,4.9018,4.9018,4.9018,4.9018,4.9018,4.9018,4.9018,4.9018,4.9357,4.956,4.956,4.956,4.956,4.956,4.9221,4.9018,4.9018,4.9018,4.9018,4.9018,4.9018,4.9018,4.9018,4.9018,4.9018,4.9018,4.9018,4.9018,2.4182,0.0,2.9536,3.2735,3.4055,0.0,3.534,3.5519,3.5519,3.5519,3.6028,3.6806,3.7853,3.8465,3.9188,4.0287,4.1551,4.2622,4.3354,4.4352,4.503,4.5218,4.598,4.651,4.651,4.7305,4.7802,4.7802,4.7934,4.8001,4.8001,4.8001,4.8001,4.8001,4.8001,4.8001,4.8001,4.8001,4.8001,4.8001,4.8001,4.8001,4.8001,4.8001,4.8001,4.8001,4.8001,4.8001,4.8001,4.8001,4.8001,4.8001,4.813,4.813,4.8066,4.8163,4.813,4.8033,4.8001,4.8001,4.8099,4.8388,4.8515,4.861,4.8925,4.9018,4.9018,4.9018,4.9018,4.9018,4.9018,4.9086,4.9187,4.9187,4.9289,4.9323,4.9052,4.9018,4.9018,4.9018,4.9018,4.9018,4.9018,4.9018,4.9018,4.9018,4.9018,4.9018,4.9018,4.9018,4.9018,4.9018,4.9018,4.9018,4.9018,4.9018,4.9018,4.9018,4.9018,4.9018,4.9018,4.9018,4.9018,4.9018,4.9018,4.9018,4.9018,4.912,4.9187,4.9187,4.9323,4.939,2.4356,0.0,3.1497,0.0,3.4179,3.484,0.0,0.0,3.5519,0.0,3.6028,3.6537,3.6716,3.75,3.843,3.9439,4.0038,4.072,4.1609,4.2411,4.2936,4.2936,4.4158,4.4986,4.4986,4.6245,4.704,4.704,4.7636,4.8001,4.8001,4.8001,4.8001,4.8001,4.8001,4.8001,4.8001,4.8001,4.8001,4.8001,4.8001,4.8001,4.8001,4.8001,4.8001,4.8001,4.8001,4.8001,4.8001,4.8001,4.8001,4.8001,4.813,4.8195,4.8163,4.8195,4.8195,4.8163,4.8033,4.8099,4.8195,4.842,4.861,4.8801,4.8956,4.9018,4.9018,4.9018,4.9018,4.9018,4.9018,4.9458,4.9932,4.9932,5.0439,5.0574,4.9289,4.9018,4.9018,4.9018,4.9018,4.9018,4.9018,4.9018,4.9018,4.9018,4.9018,4.9018,4.9018,4.9018,4.9018,4.9018,4.9018,4.9018,4.9018,4.9018,4.9018,4.9018,4.9018,4.9018,4.9018,4.9018,4.9018,4.9018,4.9018,4.9018,4.9018,4.9627,4.9932,4.9965,5.0608,5.0881,2.5341,2.8812,3.1596,0.0,3.4182,3.4845,3.4925,0.0,3.5519,3.5519,3.5764,3.6162,3.652,3.7119,3.7949,3.9094,3.9627,4.018,4.1037,4.1898,4.2448,4.2473,4.4158,4.5317,4.5317,4.6643,4.7504,4.7504,4.7835,4.8001,4.8001,4.8001,4.8001,4.8001,4.8001,4.8001,4.8001,4.8001,4.8001,4.8001,4.8001,4.8001,4.8001,4.8001,4.8001,4.8001,4.8001,4.8001,4.8001,4.8001,4.8001,4.8033,4.826,4.8292,4.8227,4.842,4.8452,4.8356,4.8292,4.8324,4.8388,4.8578,4.8738,4.8832,4.8956,4.9018,4.9018,4.9018,4.9018,4.9018,4.9018,4.956,5.0101,5.0101,5.0676,5.1016,5.0371,5.0236,5.0236,5.0236,5.0236,5.0236,5.0236,5.0236,5.0236,5.0236,4.9864,4.9763,5.0202,4.9864,4.9763,5.0202,5.0236,5.0236,5.0236,5.0236,5.0236,5.0236,5.0236,5.0236,5.0236,5.0236,5.0236,5.0236,4.9424,4.9187,4.9627,4.9932,5.0304,5.0744,5.1048,5.1185,2.5578,2.8519,3.0728,3.2296,3.3472,3.4243,0.0,0.0,3.5282,0.0,3.5533,3.5965,3.6449,3.6799,3.7401,3.856,3.8965,3.9454,4.0225,4.1107,4.1741,4.1943,4.3727,4.4953,4.4953,4.6311,4.7173,4.7173,4.7338,4.7438,4.7438,4.7438,4.7438,4.7438,4.7438,4.7438,4.7438,4.7636,4.7802,4.8001,4.8001,4.8001,4.8001,4.8001,4.8001,4.8001,4.8001,4.8001,4.8001,4.8001,4.8001,4.8033,4.8356,4.842,4.8324,4.8675,4.8707,4.8547,4.8515,4.8515,4.8578,4.8738,4.8801,4.8863,4.8987,4.912,4.9289,4.9289,4.9424,4.956,4.956,5.0101,5.0642,5.0642,5.1251,5.1691,5.1252,5.1185,5.1185,5.1185,5.1185,5.1185,5.1185,5.1185,5.1185,5.1185,5.0744,5.0574,5.115,5.071,5.0574,5.115,5.1185,5.1185,5.1185,5.1185,5.1185,5.1185,5.1185,5.1185,5.1185,5.1185,5.1185,5.1185,5.0135,4.983,5.0371,5.0574,5.0947,5.1455,5.1691,5.1792,2.4291,2.6603,2.8975,3.0392,3.1681,0.0,0.0,0.0,3.4689,3.4563,3.5327,3.6037,3.6194,3.6413,3.6755,3.7391,3.7512,3.7748,3.8351,3.9255,4.0001,4.0453,4.1806,4.2671,4.2671,4.4026,4.4854,4.4854,4.5516,4.5914,4.5914,4.5914,4.5914,4.5914,4.5914,4.5914,4.5914,4.6609,4.7305,4.8001,4.8001,4.8001,4.8001,4.8001,4.8001,4.8001,4.8001,4.8001,4.8001,4.8001,4.8001,4.8033,4.8356,4.8483,4.8515,4.8707,4.8769,4.8738,4.8547,4.861,4.8769,4.8801,4.8894,4.9018,4.9018,4.9492,5.0033,5.0033,5.0541,5.1116,5.1116,5.1623,5.2198,5.2198,5.2807,5.2976,5.1522,5.1185,5.1185,5.1185,5.1185,5.1185,5.1185,5.1185,5.1185,5.1185,5.1183,5.1183,5.1185,5.1183,5.1183,5.1185,5.1185,5.1185,5.1185,5.1185,5.1185,5.1185,5.1185,5.1185,5.1185,5.1185,5.1185,5.1185,5.1117,5.1083,5.115,5.186,5.2198,5.2266,5.3044,5.3382,2.2373,2.4383,0.0,2.8188,2.9721,3.098,3.1586,3.2667,3.3728,3.4355,3.4841,3.5396,3.6166,3.6476,3.6723,3.7089,3.7389,3.7711,3.8112,3.9129,3.9959,4.0354,4.164,4.2671,4.3168,4.4125,4.4917,4.5351,4.5649,4.5781,4.5781,4.5781,4.5781,4.5781,4.5781,4.6013,4.651,4.6775,4.7272,4.8001,4.8001,4.8001,4.8001,4.8001,4.8001,4.8001,4.8001,4.8001,4.8001,4.8001,4.8001,4.8033,4.8356,4.8515,4.8547,4.8832,4.8925,4.8925,4.8829,4.8894,4.8925,4.8925,4.8956,4.9018,4.9018,4.9526,5.0101,5.0101,5.0642,5.1185,5.1185,5.1758,5.2435,5.2942,5.3281,5.3348,5.2807,5.2672,5.2672,5.2672,5.2672,5.2672,5.2672,5.2672,5.2672,5.2672,5.2232,5.2097,5.2604,5.2232,5.2097,5.2638,5.2672,5.2672,5.2672,5.2672,5.2672,5.2672,5.2672,5.2672,5.2672,5.2672,5.2672,5.2672,5.2672,5.2435,5.1928,5.2164,5.257,5.3078,5.3382,5.3518,2.0737,2.2503,0.0,0.0,0.0,2.9226,2.9816,0.0,3.2724,3.3697,3.4361,3.5091,3.6073,3.6476,3.6754,3.7089,3.7389,3.7711,3.8112,3.8934,3.9598,3.999,4.1077,4.2005,4.2502,4.3164,4.3794,4.4291,4.4556,4.4688,4.4688,4.492,4.5052,4.5052,4.5052,4.5417,4.6146,4.6146,4.6643,4.7636,4.7701,4.7834,4.8001,4.8066,4.8033,4.8001,4.8066,4.8033,4.8001,4.8001,4.8033,4.8099,4.8388,4.8547,4.861,4.8892,4.9018,4.9018,4.9018,4.9018,4.9052,4.9289,4.9357,4.9424,4.9661,5.027,5.0845,5.0845,5.1386,5.1995,5.1995,5.2334,5.2841,5.3382,5.3518,5.3518,5.3518,5.3518,5.3518,5.3518,5.3518,5.3518,5.3518,5.3518,5.3518,5.3518,5.3044,5.2909,5.345,5.3044,5.2909,5.345,5.3518,5.3518,5.3518,5.3518,5.3518,5.3518,5.3518,5.3518,5.3518,5.3518,5.3518,5.3518,5.3518,5.3247,5.2706,5.2706,5.2976,5.3518,5.3518,5.3518,0.0,0.0,0.0,0.0,0.0,0.0,2.7399,0.0,3.1647,3.2459,3.3879,3.5093,3.5821,3.6227,3.6662,3.7326,3.7415,3.7621,3.8222,3.8479,3.8794,3.9262,3.9945,4.0376,4.0409,4.0978,4.138,4.1409,4.2075,4.2506,4.2506,4.3201,4.3598,4.3598,4.3598,4.3959,4.4688,4.4688,4.5417,4.6874,4.7098,4.7466,4.7968,4.813,4.8131,4.8001,4.813,4.8131,4.8001,4.8001,4.8099,4.8227,4.842,4.8644,4.8801,4.8956,4.9018,4.9018,4.9018,4.9018,4.9154,4.9864,5.0101,5.027,5.098,5.1725,5.23,5.23,5.2875,5.3518,5.3518,5.3518,5.3518,5.3518,5.3518,5.3518,5.3518,5.3518,5.3518,5.3518,5.3518,5.3518,5.3518,5.3518,5.3518,5.3518,5.3518,5.3518,5.3518,5.3518,5.3518,5.3518,5.3518,5.3518,5.3518,5.3518,5.3518,5.3518,5.3518,5.3518,5.3518,5.3518,5.3518,5.3518,5.3518,5.3518,5.3518,5.3518,5.3518,5.3518,5.3518,5.3518,1.889,0.0,0.0,0.0,0.0,0.0,0.0,0.0,2.9415,3.1247,3.2237,3.3184,3.463,3.5182,3.5861,3.7172,3.7592,3.7943,3.8455,3.8733,3.8985,3.9288,3.9481,3.9812,4.0343,4.0575,4.0878,4.1375,4.2075,4.2506,4.2506,4.3201,4.3598,4.3598,4.3598,4.3959,4.4688,4.4688,4.5152,4.6113,4.6866,4.72,4.7239,4.7898,4.8131,4.8001,4.813,4.8163,4.8163,4.8292,4.8388,4.8452,4.8644,4.8738,4.8801,4.8956,4.9018,4.9018,4.9018,4.9357,4.983,5.0033,5.0473,5.0947,5.115,5.1725,5.23,5.23,5.2875,5.3518,5.3518,5.3518,5.3518,5.3518,5.3518,5.3518,5.3518,5.3518,5.3518,5.3518,5.3518,5.3518,5.3518,5.3518,5.3518,5.3518,5.3518,5.3518,5.3518,5.3518,5.3518,5.3518,5.3518,5.3518,5.3518,5.3518,5.3518,5.3518,5.3518,5.3518,5.3518,5.3518,5.3518,5.3518,5.3518,5.3518,5.3518,5.3518,5.3518,5.3518,5.3518,5.3518,1.9995,0.0,0.0,0.0,0.0,0.0,2.4331,2.5935,2.7749,0.0,3.0693,3.1693,3.3156,3.3696,3.4442,3.5935,3.6486,3.7224,3.869,3.904,3.9175,3.9315,3.9315,3.9481,3.9912,3.9945,4.0111,4.0481,4.121,4.174,4.2009,4.2738,4.3135,4.3135,4.3433,4.3797,4.4257,4.4257,4.4622,4.5351,4.6029,4.6562,4.6908,4.7563,4.7929,4.8001,4.8227,4.8324,4.8356,4.861,4.8673,4.8644,4.8738,4.8832,4.8894,4.8987,4.9018,4.9018,4.9018,4.9492,5.0135,5.0473,5.1048,5.1725,5.2063,5.2469,5.2807,5.2807,5.3145,5.3518,5.3518,5.3518,5.3518,5.3518,5.3518,5.3518,5.3518,5.3518,5.3518,5.3518,5.3518,5.3518,5.3518,5.3518,5.3518,5.3518,5.3518,5.3518,5.3518,5.3518,5.3518,5.3518,5.3518,5.3518,5.3518,5.3518,5.3518,5.3518,5.3518,5.3518,5.3518,5.3518,5.3518,5.3518,5.3518,5.3518,5.3518,5.3518,5.3518,5.3518,5.3518,5.3518,2.2195,2.2177,0.0,0.0,2.2381,0.0,2.3225,2.4659,2.6322,0.0,2.9088,3.0273,3.1353,3.19,3.2694,3.3974,3.4587,3.5864,3.8772,3.9183,3.9216,3.9282,3.9315,3.9315,3.9315,3.9315,3.9315,3.9315,3.9978,4.068,4.1375,4.2075,4.2506,4.2506,4.3201,4.3598,4.3598,4.3598,4.3959,4.4556,4.4987,4.5724,4.6775,4.7191,4.7625,4.8033,4.8356,4.8515,4.8547,4.8861,4.8925,4.8801,4.8801,4.8894,4.9018,4.9018,4.9018,4.9018,4.9018,4.9492,5.0202,5.0879,5.1623,5.2435,5.3145,5.345,5.3518,5.3518,5.3518,5.3518,5.3518,5.3518,5.3518,5.3518,5.3518,5.3518,5.3518,5.3518,5.3518,5.3518,5.3518,5.3518,5.3518,5.3518,5.3518,5.3518,5.3518,5.3518,5.3518,5.3518,5.3518,5.3518,5.3518,5.3518,5.3518,5.3518,5.3518,5.3518,5.3518,5.3518,5.3518,5.3518,5.3518,5.3518,5.3518,5.3518,5.3518,5.3518,5.3518,5.3518,5.3518,5.3518,2.4613,2.4448,2.4183,2.299,0.0,0.0,2.2251,2.3162,2.4464,0.0,2.6915,2.8117,2.9142,2.9998,3.0939,3.2135,3.2959,3.4635,3.7952,3.8427,3.8626,3.9249,3.9315,3.9315,3.9315,3.9315,3.9315,3.9315,3.9978,4.068,4.1375,4.2075,4.2506,4.2506,4.3201,4.3598,4.3598,4.3598,4.3664,4.3797,4.4634,4.5366,4.6013,4.6864,4.7561,4.8163,4.8388,4.8578,4.8769,4.8925,4.8987,4.8956,4.8956,4.8987,4.9018,4.9018,4.9018,4.9018,4.9018,4.9492,5.0101,5.027,5.1217,5.2334,5.2503,5.2976,5.3518,5.3518,5.3518,5.3518,5.3518,5.3518,5.3518,5.3518,5.3518,5.3518,5.3518,5.3518,5.3518,5.3518,5.3518,5.3518,5.3518,5.3518,5.3518,5.3518,5.3518,5.3518,5.3518,5.3518,5.3518,5.3518,5.3518,5.3518,5.3518,5.3518,5.3518,5.3518,5.3518,5.3518,5.3518,5.3518,5.3518,5.3518,5.3518,5.3518,5.3518,5.3518,5.3518,5.3518,5.3518,5.3518,2.7874,2.7296,2.6369,2.4911,0.0,0.0,0.0,2.247,2.3568,2.5144,2.6178,2.7253,2.8803,2.9566,3.0147,3.0784,3.1694,3.3027,3.5157,3.6406,3.7367,3.8096,3.8851,3.9149,3.8791,3.9415,3.9713,3.9315,3.9647,4.0011,4.0315,4.1375,4.1943,4.1943,4.3002,4.3598,4.3598,4.3598,4.3598,4.3598,4.4205,4.4936,4.5846,4.646,4.7258,4.8227,4.8515,4.8707,4.8801,4.8956,4.9018,4.9018,4.9018,4.9018,4.9018,4.9018,4.9018,4.9018,4.9018,4.9492,5.0101,5.0101,5.1082,5.23,5.23,5.2875,5.3518,5.3518,5.3518,5.3518,5.3518,5.3518,5.3518,5.3518,5.3518,5.3518,5.3518,5.3518,5.3518,5.3518,5.3518,5.3518,5.3518,5.3518,5.3518,5.3518,5.3518,5.3518,5.3518,5.3518,5.3518,5.3518,5.3518,5.3518,5.3518,5.3518,5.3518,5.3518,5.3518,5.3518,5.3518,5.3518,5.3518,5.3518,5.3518,5.3518,5.3518,5.3518,5.3518,5.3518,5.3518,5.3518,0.0,0.0,0.0,0.0,0.0,2.405,0.0,0.0,0.0,2.515,2.6094,0.0,0.0,0.0,0.0,2.9478,0.0,0.0,0.0,3.3524,0.0,3.6539,3.7831,3.8427,3.7831,3.899,3.9547,3.8917,3.9017,3.9083,3.9083,4.0448,4.121,4.121,4.2473,4.3234,4.3367,4.34,4.3466,4.3598,4.3747,4.4574,4.5877,4.6155,4.7018,4.8324,4.8675,4.8801,4.8832,4.8956,4.9018,4.9018,4.9018,4.9018,4.9018,4.9018,4.9018,4.9018,4.9018,4.939,4.9864,4.9864,5.0879,5.2131,5.2435,5.2976,5.3518,5.3518,5.3518,5.3518,5.3518,5.3518,5.3518,5.3518,5.3518,5.3518,5.3518,5.3518,5.3518,5.3518,5.3518,5.3518,5.3518,5.3518,5.3518,5.3518,5.3518,5.3518,5.3518,5.3518,5.3518,5.3518,5.3518,5.3518,5.3518,5.3518,5.3518,5.3518,5.3518,5.3518,5.3518,5.3518,5.3518,5.3518,5.3518,5.3518,5.3518,5.3518,5.3518,5.3518,5.3518,5.3518,0.0,0.0,0.0,0.0,2.7031,0.0,0.0,0.0,2.486,2.5125,0.0,0.0,0.0,0.0,0.0,0.0,0.0,0.0,2.8873,2.9615,3.1383,3.475,3.5876,3.634,3.6274,3.7003,3.7433,3.7367,3.7963,3.8328,3.8328,3.9719,4.0509,4.0509,4.1243,4.1943,4.2605,4.2605,4.2936,4.3598,4.3628,4.448,4.6062,4.6093,4.708,4.8738,4.8769,4.8863,4.8987,4.8984,4.9018,4.9018,4.9018,4.9018,4.9018,4.9018,4.9018,4.9018,4.9018,4.9052,4.912,4.912,5.0135,5.1589,5.2942,5.345,5.3518,5.3518,5.3518,5.3518,5.3518,5.3518,5.3518,5.3518,5.3518,5.3518,5.3518,5.3518,5.3518,5.3518,5.3518,5.3518,5.3518,5.3518,5.3518,5.3518,5.3518,5.3518,5.3518,5.3518,5.3518,5.3518,5.3518,5.3518,5.3518,5.3518,5.3518,5.3518,5.3518,5.3518,5.3518,5.3518,5.3518,5.3518,5.3518,5.3518,5.3518,5.3518,5.3518,5.3518,5.3518,5.3518,0.0,0.0,0.0,0.0,0.0,0.0,2.4978,0.0,2.4944,0.0,0.0,0.0,0.0,0.0,0.0,0.0,2.8243,0.0,0.0,0.0,2.9682,3.2067,3.3756,3.5048,3.5909,3.5876,3.581,3.581,3.6903,3.7566,3.7566,3.9752,4.0779,4.0409,4.1044,4.1744,4.2473,4.2506,4.287,4.3598,4.3717,4.4604,4.6127,4.6277,4.7234,4.8801,4.8894,4.8956,4.9018,4.9018,4.9018,4.9018,4.9018,4.9018,4.9018,4.9018,4.9018,4.9018,4.9018,4.9289,4.9763,5.0642,5.1352,5.2063,5.3179,5.3518,5.3518,5.3518,5.3518,5.3518,5.3518,5.3518,5.3518,5.3518,5.3518,5.3518,5.3518,5.3518,5.3518,5.3518,5.3518,5.3518,5.3518,5.3518,5.3518,5.3518,5.3518,5.3518,5.3518,5.3518,5.3518,5.3518,5.3518,5.3518,5.3518,5.3518,5.3518,5.3518,5.3518,5.3518,5.3518,5.3518,5.3518,5.3518,5.3518,5.3518,5.3518,5.3518,5.3518,5.3518,5.3518,5.3518,3.6638,0.0,0.0,0.0,0.0,0.0,0.0,0.0,0.0,0.0,0.0,0.0,0.0,0.0,0.0,0.0,0.0,2.7907,0.0,2.6634,0.0,0.0,0.0,3.3458,3.4949,3.4419,3.4087,3.4286,3.5479,3.6473,3.7069,3.9288,4.0481,4.0409,4.068,4.1276,4.2175,4.2175,4.27,4.3687,4.3839,4.4723,4.6216,4.6394,4.7353,4.8863,4.8956,4.9018,4.9018,4.9018,4.9018,4.9018,4.9018,4.9018,4.9018,4.9018,4.9018,4.9018,4.9018,4.9492,5.0338,5.1826,5.23,5.2469,5.3281,5.3518,5.3518,5.3518,5.3518,5.3518,5.3518,5.3518,5.3518,5.3518,5.3518,5.3518,5.3518,5.3518,5.3518,5.3518,5.3518,5.3518,5.3518,5.3518,5.3518,5.3518,5.3518,5.3518,5.3518,5.3518,5.3518,5.3518,5.3518,5.3518,5.3518,5.3518,5.3585,5.3788,5.3991,5.4025,5.3822,5.3788,5.3721,5.3518,5.3518,5.3518,5.3518,5.3518,5.3518,5.3518,5.3518,5.3518,0.0,3.5479,0.0,3.1019,0.0,0.0,0.0,0.0,2.9085,0.0,0.0,0.0,0.0,0.0,0.0,0.0,0.0,0.0,0.0,0.0,0.0,0.0,0.0,0.0,3.2685,3.2133,3.1979,3.2718,3.3481,3.4849,3.7003,3.7838,3.8957,4.0376,3.9746,4.0017,4.1442,4.1442,4.2261,4.3898,4.3898,4.4808,4.6484,4.6514,4.7413,4.8984,4.9018,4.9018,4.9018,4.9018,4.9018,4.9018,4.9018,4.9018,4.9018,4.9018,4.9018,4.9018,4.9018,4.9492,5.0338,5.1826,5.23,5.2469,5.3281,5.3518,5.3518,5.3518,5.3518,5.3518,5.3518,5.3518,5.3518,5.3518,5.3518,5.3518,5.3518,5.3518,5.3518,5.3518,5.3518,5.3518,5.3518,5.3518,5.3518,5.3518,5.3518,5.3518,5.3518,5.3518,5.3518,5.3518,5.3518,5.3518,5.3518,5.3518,5.3788,5.4499,5.5243,5.531,5.4566,5.4566,5.4228,5.3518,5.3518,5.3518,5.3518,5.3518,5.3518,5.3518,5.3518,5.3518,3.9719,3.803,3.6307,3.4584,3.2475,3.0787,0.0,0.0,0.0,0.0,0.0,0.0,0.0,0.0,0.0,0.0,0.0,0.0,0.0,0.0,0.0,0.0,0.0,0.0,0.0,3.0721,3.1184,3.1934,3.3094,3.475,3.697,3.8261,3.9381,4.0376,3.968,3.9978,4.1409,4.1554,4.2342,4.3898,4.4068,4.4951,4.6514,4.6634,4.7537,4.9018,4.9018,4.9018,4.9018,4.9018,4.9018,4.9018,4.9018,4.9018,4.9052,4.956,4.9729,4.9864,5.0845,5.1352,5.1725,5.2773,5.3078,5.3145,5.3416,5.3518,5.3518,5.3518,5.3518,5.3518,5.3518,5.3518,5.3518,5.3518,5.3518,5.3518,5.3518,5.3518,5.3653,5.4126,5.4228,5.4397,5.4871,5.4972,5.4634,5.3653,5.3518,5.3518,5.3518,5.3518,5.3518,5.3518,5.3518,5.3518,5.3518,5.3957,5.4329,5.4566,5.531,5.5378,5.4634,5.46,5.4262,5.3518,5.3518,5.3518,5.3518,5.3518,5.3518,5.3518,5.3518,5.3518,4.1972,4.0448,3.899,3.7533,3.5545,3.3733,3.2895,3.2,3.1603,0.0,0.0,0.0,0.0,0.0,0.0,0.0,0.0,0.0,0.0,2.4713,0.0,0.0,0.0,0.0,0.0,0.0,3.0423,3.1151,3.2597,3.4485,3.697,3.7996,3.9116,4.0376,3.968,3.9978,4.1409,4.161,4.2489,4.3985,4.4447,4.5366,4.6638,4.6997,4.7868,4.9018,4.9018,4.9018,4.9018,4.9018,4.9018,4.9018,4.9018,4.9154,4.9458,4.9898,5.027,5.0676,5.1894,5.23,5.2435,5.3247,5.3518,5.3518,5.3518,5.3518,5.3518,5.3518,5.3518,5.3518,5.3518,5.3518,5.3518,5.3518,5.3518,5.3518,5.3518,5.3518,5.3721,5.4465,5.46,5.4837,5.5581,5.5681,5.5412,5.4431,5.4296,5.4296,5.4296,5.4296,5.4296,5.4296,5.4296,5.4296,5.4296,5.4972,5.5378,5.5378,5.6089,5.6156,5.5412,5.5378,5.504,5.4296,5.4296,5.4296,5.4296,5.4296,5.416,5.389,5.389,5.3754]}]]